[[{"header":{"parameterUnit":"m.s-1","parameterCategory":1,"la1":31.0,"la2":29.5877,"lo1":-88.7671,"lo2":-86.6584,"dy":0.0162,"dx":0.0185,"nx":115,"ny":88,"refTime":"2023-06-14T06:00:00:Z","depth":0,"parameterNumber":2,"parameterNumberName":"U-component_of_WINDS"},"data":[0.0,0.0,0.0,0.0,0.0,0.0,0.0,0.0,0.0,0.0,0.0,0.0,0.0,0.0,0.0,0.0,0.0,0.0,0.0,0.0,0.0,0.0,0.0,0.0,0.0,0.0,0.0,0.0,0.0,0.0,0.0,0.0,0.0,0.0,0.0,0.0,0.0,0.0,0.0,0.0,0.0,0.0,0.0,0.0,0.0,0.0,0.0,0.0,0.0,0.0,0.0,0.0,0.0,0.0,0.0,0.0,0.0,0.0,0.0,0.0,0.0,0.0,0.0,0.0,0.0,0.0,0.0,0.0,0.0,0.0,0.0,0.0,0.0,0.0,0.0,0.0,0.0,0.0,0.0,0.0,0.0,0.0,0.0,0.0,0.0,0.0,0.0,0.0,0.0,0.0,0.0,0.0,0.0,0.0,0.0,0.0,0.0,0.0,0.0,0.0,0.0,0.0,0.0,0.0,0.0,0.0,0.0,0.0,0.0,0.0,0.0,0.0,0.0,0.0,0.0,0.0,0.0,0.0,0.0,0.0,0.0,0.0,0.0,0.0,0.0,0.0,0.0,0.0,0.0,0.0,0.0,0.0,0.0,0.0,0.0,0.0,0.0,0.0,0.0,0.0,0.0,0.0,0.0,0.0,0.0,0.0,0.0,0.0,0.0,0.0,0.0,0.0,0.0,0.0,0.0,0.0,0.0,0.0,0.0,0.0,0.0,0.0,0.0,0.0,0.0,0.0,0.0,0.0,0.0,0.0,0.0,0.0,0.0,0.0,0.0,0.0,0.0,0.0,0.0,0.0,0.0,0.0,0.0,0.0,0.0,0.0,0.0,0.0,0.0,0.0,0.0,0.0,0.0,0.0,0.0,0.0,0.0,0.0,0.0,0.0,0.0,0.0,0.0,0.0,0.0,0.0,0.0,0.0,0.0,0.0,0.0,0.0,0.0,0.0,0.0,0.0,0.0,0.0,0.0,0.0,0.0,0.0,0.0,0.0,0.0,0.0,0.0,0.0,0.0,0.0,0.0,0.0,0.0,0.0,0.0,0.0,0.0,0.0,0.0,0.0,0.0,0.0,0.0,0.0,0.0,0.0,0.0,0.0,0.0,0.0,0.0,0.0,0.0,0.0,0.0,0.0,0.0,0.0,0.0,0.0,0.0,0.0,0.0,0.0,0.0,0.0,0.0,0.0,0.0,0.0,0.0,0.0,0.0,0.0,0.0,0.0,0.0,0.0,0.0,0.0,0.0,0.0,0.0,0.0,0.0,0.0,0.0,0.0,0.0,0.0,0.0,0.0,0.0,0.0,0.0,0.0,0.0,0.0,0.0,0.0,0.0,0.0,0.0,0.0,0.0,0.0,0.0,0.0,0.0,0.0,0.0,0.0,0.0,0.0,0.0,0.0,0.0,0.0,0.0,0.0,0.0,0.0,0.0,0.0,0.0,0.0,0.0,0.0,0.0,0.0,0.0,0.0,0.0,0.0,0.0,0.0,0.0,0.0,0.0,0.0,0.0,0.0,0.0,0.0,0.0,0.0,0.0,0.0,0.0,0.0,0.0,0.0,0.0,0.0,0.0,0.0,0.0,0.0,0.0,0.0,0.0,0.0,0.0,0.0,0.0,0.0,0.0,0.0,0.0,0.0,0.0,0.0,0.0,0.0,0.0,0.0,0.0,0.0,0.0,0.0,0.0,0.0,0.0,0.0,0.0,0.0,0.0,0.0,0.0,0.0,0.0,0.0,0.0,0.0,0.0,0.0,0.0,0.0,0.0,0.0,0.0,0.0,0.0,0.0,0.0,0.0,0.0,0.0,0.0,0.0,0.0,0.0,0.0,0.0,0.0,0.0,0.0,0.0,0.0,0.0,0.0,0.0,0.0,0.0,0.0,0.0,0.0,0.0,0.0,0.0,0.0,0.0,0.0,0.0,0.0,0.0,0.0,0.0,0.0,0.0,0.0,0.0,0.0,0.0,0.0,0.0,0.0,0.0,0.0,0.0,0.0,0.0,0.0,0.0,0.0,0.0,0.0,0.0,0.0,0.0,0.0,0.0,0.0,0.0,0.0,0.0,0.0,0.0,0.0,0.0,0.0,0.0,0.0,0.0,0.0,0.0,0.0,0.0,0.0,0.0,0.0,0.0,0.0,0.0,0.0,0.0,0.0,0.0,0.0,0.0,0.0,0.0,0.0,0.0,0.0,0.0,0.0,0.0,0.0,0.0,0.0,0.0,0.0,0.0,0.0,0.0,0.0,0.0,0.0,0.0,0.0,0.0,0.0,0.0,0.0,0.0,0.0,0.0,0.0,0.0,0.0,0.0,0.0,0.0,0.0,0.0,0.0,0.0,0.0,0.0,0.0,0.0,0.0,0.0,0.0,0.0,0.0,0.0,0.0,0.0,0.0,0.0,0.0,0.0,0.0,0.0,0.0,0.0,0.0,0.0,0.0,0.0,0.0,0.0,0.0,0.0,0.0,0.0,0.0,0.0,0.0,0.0,0.0,0.0,0.0,0.0,0.0,0.0,0.0,0.0,0.0,0.0,0.0,0.0,0.0,0.0,0.0,0.0,0.0,0.0,0.0,0.0,0.0,0.0,0.0,0.0,0.0,0.0,0.0,0.0,0.0,0.0,0.0,0.0,0.0,0.0,0.0,0.0,0.0,0.0,0.0,0.0,0.0,0.0,0.0,0.0,0.0,0.0,0.0,0.0,0.0,0.0,0.0,0.0,0.0,0.0,0.0,0.0,0.0,0.0,0.0,0.0,0.0,0.0,0.0,0.0,0.0,0.0,0.0,0.0,0.0,0.0,0.0,0.0,0.0,0.0,0.0,0.0,0.0,0.0,0.0,0.0,0.0,0.0,0.0,0.0,0.0,0.0,0.0,0.0,0.0,0.0,0.0,0.0,0.0,0.0,0.0,0.0,0.0,0.0,0.0,0.0,0.0,0.0,0.0,0.0,0.0,0.0,0.0,0.0,0.0,0.0,0.0,0.0,0.0,0.0,0.0,0.0,0.0,0.0,0.0,0.0,0.0,0.0,0.0,0.0,0.0,0.0,0.0,0.0,0.0,0.0,0.0,0.0,0.0,0.0,0.0,0.0,0.0,0.0,0.0,0.0,0.0,0.0,0.0,0.0,0.0,0.0,0.0,0.0,0.0,0.0,0.0,0.0,0.0,0.0,0.0,0.0,0.0,0.0,0.0,0.0,0.0,0.0,0.0,0.0,0.0,0.0,0.0,0.0,0.0,0.0,0.0,0.0,0.0,0.0,0.0,0.0,0.0,0.0,0.0,0.0,0.0,0.0,0.0,0.0,0.0,0.0,0.0,0.0,0.0,0.0,0.0,0.0,0.0,0.0,0.0,0.0,0.0,0.0,0.0,0.0,0.0,0.0,0.0,0.0,0.0,0.0,0.0,0.0,0.0,0.0,0.0,0.0,0.0,0.0,0.0,0.0,0.0,0.0,0.0,0.0,0.0,0.0,0.0,0.0,0.0,0.0,0.0,0.0,0.0,0.0,0.0,0.0,0.0,0.0,0.0,0.0,0.0,0.0,0.0,0.0,0.0,0.0,0.0,0.0,0.0,0.0,0.0,0.0,0.0,0.0,0.0,0.0,0.0,0.0,0.0,0.0,0.0,0.0,0.0,0.0,0.0,0.0,0.0,0.0,0.0,0.0,0.0,0.0,0.0,0.0,0.0,0.0,0.0,0.0,0.0,0.0,0.0,0.0,0.0,0.0,0.0,0.0,0.0,0.0,0.0,0.0,0.0,0.0,0.0,0.0,0.0,0.0,0.0,0.0,0.0,0.0,0.0,0.0,0.0,0.0,0.0,0.0,0.0,0.0,0.0,0.0,0.0,0.0,0.0,0.0,0.0,0.0,0.0,0.0,0.0,0.0,0.0,0.0,0.0,0.0,0.0,0.0,0.0,0.0,0.0,0.0,0.0,0.0,0.0,0.0,0.0,0.0,0.0,0.0,0.0,0.0,0.0,0.0,0.0,0.0,0.0,0.0,0.0,0.0,0.0,0.0,0.0,0.0,0.0,0.0,0.0,0.0,0.0,0.0,0.0,0.0,0.0,0.0,0.0,0.0,0.0,0.0,0.0,0.0,0.0,0.0,0.0,0.0,0.0,0.0,0.0,0.0,0.0,0.0,0.0,0.0,0.0,0.0,0.0,0.0,0.0,0.0,0.0,0.0,0.0,0.0,0.0,0.0,0.0,0.0,0.0,0.0,0.0,0.0,0.0,0.0,0.0,0.0,0.0,0.0,0.0,0.0,0.0,0.0,-2.1811,0.0,0.0,0.0,0.0,0.0,0.0,0.0,0.0,0.0,0.0,0.0,0.0,0.0,0.0,0.0,0.0,0.0,0.0,0.0,0.0,0.0,0.0,0.0,0.0,0.0,0.0,0.0,0.0,0.0,0.0,0.0,0.0,0.0,0.0,0.0,0.0,0.0,0.0,0.0,0.0,0.0,0.0,0.0,0.0,0.0,0.0,0.0,0.0,0.0,0.0,0.0,0.0,0.0,0.0,0.0,0.0,0.0,0.0,0.0,0.0,0.0,0.0,0.0,0.0,0.0,0.0,0.0,0.0,0.0,0.0,0.0,0.0,0.0,0.0,0.0,0.0,0.0,0.0,0.0,0.0,0.0,0.0,0.0,0.0,0.0,0.0,0.0,0.0,0.0,0.0,0.0,0.0,0.0,0.0,0.0,0.0,0.0,0.0,0.0,0.0,0.0,0.0,0.0,0.0,0.0,0.0,0.0,0.0,0.0,0.0,-2.4447,-2.3164,-2.2863,-2.2168,-2.0896,0.0,0.0,0.0,0.0,0.0,0.0,0.0,0.0,0.0,0.0,0.0,0.0,0.0,0.0,0.0,0.0,0.0,0.0,0.0,0.0,0.0,0.0,0.0,0.0,0.0,0.0,0.0,0.0,0.0,0.0,0.0,0.0,0.0,0.0,0.0,0.0,0.0,0.0,0.0,0.0,0.0,0.0,0.0,0.0,0.0,0.0,0.0,0.0,0.0,0.0,0.0,0.0,0.0,0.0,0.0,0.0,0.0,0.0,0.0,0.0,0.0,0.0,0.0,0.0,0.0,0.0,0.0,0.0,0.0,0.0,0.0,0.0,0.0,0.0,0.0,0.0,0.0,0.0,0.0,0.0,0.0,0.0,0.0,0.0,0.0,0.0,0.0,0.0,0.0,0.0,0.0,0.0,0.0,0.0,0.0,0.0,0.0,0.0,0.0,0.0,0.0,0.0,0.0,0.0,0.0,0.0,0.0,0.0,0.0,0.0,0.0,0.0,-2.196,-2.1083,-1.9786,0.0,0.0,0.0,0.0,0.0,0.0,0.0,0.0,0.0,0.0,0.0,0.0,0.0,0.0,0.0,0.0,0.0,0.0,0.0,0.0,0.0,0.0,0.0,0.0,0.0,0.0,0.0,0.0,0.0,0.0,0.0,0.0,0.0,0.0,0.0,0.0,0.0,0.0,0.0,0.0,0.0,0.0,0.0,0.0,0.0,0.0,0.0,0.0,0.0,0.0,0.0,0.0,0.0,0.0,0.0,0.0,0.0,0.0,0.0,0.0,0.0,0.0,0.0,0.0,0.0,0.0,0.0,0.0,0.0,0.0,0.0,0.0,0.0,0.0,0.0,0.0,0.0,0.0,0.0,0.0,0.0,0.0,0.0,0.0,0.0,0.0,0.0,0.0,0.0,0.0,0.0,0.0,0.0,0.0,0.0,0.0,0.0,0.0,0.0,0.0,0.0,0.0,0.0,0.0,0.0,0.0,0.0,0.0,0.0,0.0,-2.2665,-2.2137,-2.0892,0.0,-1.8417,0.0,0.0,0.0,0.0,0.0,0.0,0.0,0.0,0.0,0.0,0.0,0.0,0.0,0.0,0.0,0.0,0.0,0.0,0.0,0.0,0.0,0.0,0.0,0.0,0.0,0.0,0.0,0.0,0.0,0.0,0.0,0.0,0.0,0.0,0.0,0.0,0.0,0.0,0.0,0.0,0.0,0.0,0.0,0.0,0.0,0.0,0.0,0.0,0.0,0.0,0.0,0.0,0.0,0.0,0.0,0.0,0.0,0.0,0.0,0.0,0.0,0.0,0.0,0.0,0.0,0.0,0.0,0.0,0.0,0.0,0.0,0.0,0.0,0.0,0.0,0.0,0.0,0.0,0.0,0.0,0.0,0.0,0.0,0.0,0.0,0.0,0.0,0.0,0.0,0.0,0.0,0.0,0.0,0.0,0.0,0.0,0.0,0.0,0.0,0.0,0.0,0.0,0.0,0.0,0.0,0.0,0.0,0.0,0.0,0.0,-2.2248,-2.1153,-1.9915,-1.8977,0.0,0.0,0.0,0.0,0.0,0.0,0.0,0.0,0.0,0.0,0.0,0.0,0.0,0.0,0.0,0.0,0.0,0.0,0.0,0.0,0.0,0.0,0.0,0.0,0.0,0.0,0.0,0.0,0.0,0.0,0.0,0.0,0.0,0.0,0.0,0.0,0.0,0.0,0.0,0.0,0.0,0.0,0.0,0.0,0.0,0.0,0.0,0.0,0.0,0.0,0.0,0.0,0.0,0.0,0.0,0.0,0.0,0.0,0.0,0.0,0.0,0.0,0.0,0.0,0.0,0.0,0.0,0.0,0.0,0.0,0.0,0.0,0.0,0.0,0.0,0.0,0.0,0.0,0.0,0.0,0.0,0.0,0.0,0.0,0.0,0.0,0.0,0.0,0.0,0.0,0.0,0.0,0.0,0.0,0.0,0.0,0.0,0.0,0.0,0.0,0.0,0.0,0.0,0.0,0.0,0.0,0.0,0.0,0.0,0.0,-2.2363,-2.1394,-1.9889,-1.8879,-1.839,-1.8464,0.0,0.0,0.0,0.0,0.0,0.0,0.0,0.0,0.0,0.0,0.0,0.0,0.0,0.0,0.0,0.0,0.0,0.0,0.0,0.0,0.0,0.0,0.0,0.0,0.0,0.0,0.0,0.0,0.0,0.0,0.0,0.0,0.0,0.0,0.0,0.0,0.0,0.0,0.0,0.0,0.0,0.0,0.0,0.0,0.0,0.0,0.0,0.0,0.0,0.0,0.0,0.0,0.0,0.0,0.0,0.0,0.0,0.0,0.0,0.0,0.0,0.0,0.0,0.0,0.0,0.0,0.0,0.0,0.0,0.0,0.0,0.0,0.0,0.0,0.0,0.0,0.0,0.0,0.0,0.0,0.0,0.0,0.0,0.0,0.0,0.0,0.0,0.0,0.0,0.0,0.0,0.0,0.0,0.0,0.0,0.0,0.0,0.0,0.0,0.0,0.0,0.0,0.0,0.0,0.0,0.0,0.0,0.0,-2.0557,-2.0395,-1.9711,-1.8286,-1.772,-1.766,0.0,0.0,0.0,0.0,0.0,0.0,0.0,0.0,0.0,0.0,0.0,0.0,0.0,0.0,0.0,0.0,0.0,0.0,0.0,0.0,0.0,0.0,0.0,0.0,0.0,0.0,0.0,0.0,0.0,0.0,0.0,0.0,0.0,0.0,0.0,0.0,0.0,0.0,0.0,0.0,0.0,0.0,0.0,0.0,0.0,0.0,0.0,0.0,0.0,0.0,0.0,0.0,0.0,0.0,0.0,0.0,0.0,0.0,0.0,0.0,0.0,0.0,0.0,0.0,0.0,0.0,0.0,0.0,0.0,0.0,0.0,0.0,0.0,0.0,0.0,0.0,0.0,0.0,0.0,0.0,0.0,0.0,0.0,0.0,0.0,0.0,0.0,0.0,0.0,0.0,0.0,0.0,0.0,0.0,0.0,0.0,0.0,0.0,0.0,0.0,0.0,0.0,0.0,0.0,0.0,0.0,0.0,0.0,0.0,-1.9478,-1.8211,-1.7625,-1.7743,-1.7163,-1.733,0.0,0.0,0.0,0.0,0.0,0.0,0.0,0.0,0.0,0.0,0.0,0.0,0.0,0.0,0.0,0.0,0.0,0.0,0.0,0.0,0.0,0.0,0.0,0.0,0.0,0.0,0.0,0.0,0.0,0.0,0.0,0.0,0.0,0.0,0.0,0.0,0.0,0.0,0.0,0.0,0.0,0.0,0.0,0.0,0.0,0.0,0.0,0.0,0.0,0.0,0.0,0.0,0.0,0.0,0.0,0.0,0.0,0.0,0.0,0.0,0.0,0.0,0.0,0.0,0.0,0.0,0.0,0.0,0.0,0.0,0.0,0.0,0.0,0.0,0.0,0.0,0.0,0.0,0.0,0.0,0.0,0.0,0.0,0.0,0.0,0.0,0.0,0.0,0.0,0.0,0.0,0.0,0.0,0.0,0.0,0.0,0.0,0.0,0.0,0.0,0.0,0.0,0.0,0.0,0.0,0.0,0.0,0.0,0.0,-1.8884,0.0,-1.6869,-1.777,-1.7197,-1.7583,0.0,0.0,0.0,0.0,0.0,0.0,0.0,0.0,0.0,0.0,0.0,0.0,0.0,0.0,0.0,0.0,0.0,0.0,0.0,0.0,0.0,0.0,0.0,0.0,0.0,0.0,0.0,0.0,0.0,0.0,0.0,0.0,0.0,0.0,0.0,0.0,0.0,0.0,0.0,0.0,0.0,0.0,0.0,0.0,0.0,0.0,0.0,0.0,0.0,0.0,0.0,0.0,0.0,0.0,0.0,0.0,0.0,0.0,0.0,0.0,0.0,0.0,0.0,0.0,0.0,0.0,0.0,0.0,0.0,0.0,0.0,0.0,0.0,0.0,0.0,0.0,0.0,0.0,0.0,0.0,0.0,0.0,0.0,0.0,0.0,0.0,0.0,0.0,0.0,0.0,0.0,0.0,0.0,0.0,0.0,0.0,0.0,0.0,0.0,0.0,0.0,0.0,0.0,0.0,0.0,0.0,0.0,0.0,-1.9541,-1.872,-1.772,-1.7545,-1.8255,-1.7875,-1.8421,0.0,0.0,0.0,0.0,0.0,0.0,0.0,0.0,0.0,0.0,0.0,0.0,0.0,0.0,0.0,0.0,0.0,0.0,0.0,0.0,0.0,0.0,0.0,0.0,0.0,0.0,0.0,0.0,0.0,0.0,0.0,0.0,0.0,0.0,0.0,0.0,0.0,0.0,0.0,0.0,0.0,0.0,0.0,0.0,0.0,0.0,0.0,0.0,0.0,0.0,0.0,0.0,0.0,0.0,0.0,0.0,0.0,0.0,0.0,0.0,0.0,0.0,0.0,0.0,0.0,0.0,0.0,0.0,0.0,0.0,0.0,0.0,0.0,0.0,0.0,0.0,0.0,0.0,0.0,0.0,0.0,0.0,0.0,0.0,0.0,0.0,0.0,0.0,0.0,0.0,0.0,0.0,0.0,0.0,0.0,0.0,0.0,0.0,0.0,0.0,0.0,0.0,0.0,0.0,0.0,0.0,0.0,0.0,0.0,-1.9054,-1.8081,-1.7946,-1.8728,-1.8873,-1.9254,0.0,0.0,0.0,0.0,0.0,0.0,0.0,0.0,0.0,0.0,0.0,0.0,0.0,0.0,0.0,0.0,0.0,0.0,0.0,0.0,0.0,0.0,0.0,0.0,0.0,0.0,0.0,0.0,0.0,0.0,0.0,0.0,0.0,0.0,0.0,0.0,0.0,0.0,0.0,0.0,0.0,0.0,0.0,0.0,0.0,0.0,0.0,0.0,0.0,0.0,0.0,0.0,0.0,0.0,0.0,0.0,0.0,0.0,0.0,0.0,0.0,0.0,0.0,0.0,0.0,0.0,0.0,0.0,0.0,0.0,0.0,0.0,0.0,0.0,0.0,0.0,0.0,0.0,0.0,0.0,0.0,0.0,0.0,0.0,0.0,0.0,0.0,0.0,0.0,0.0,0.0,0.0,0.0,0.0,0.0,0.0,0.0,0.0,0.0,0.0,0.0,0.0,0.0,0.0,0.0,0.0,0.0,0.0,0.0,-2.1621,-2.0235,-1.9854,-2.0649,-2.0734,-2.0763,-2.0794,0.0,0.0,0.0,0.0,0.0,0.0,0.0,0.0,0.0,0.0,0.0,0.0,0.0,0.0,0.0,0.0,0.0,0.0,0.0,0.0,0.0,0.0,0.0,0.0,0.0,0.0,0.0,0.0,0.0,0.0,0.0,0.0,0.0,0.0,0.0,0.0,0.0,0.0,0.0,0.0,0.0,0.0,0.0,0.0,0.0,0.0,0.0,0.0,0.0,0.0,0.0,0.0,0.0,0.0,0.0,0.0,0.0,0.0,0.0,0.0,0.0,0.0,0.0,0.0,0.0,0.0,0.0,0.0,0.0,0.0,0.0,0.0,0.0,0.0,0.0,0.0,0.0,0.0,0.0,0.0,0.0,0.0,0.0,0.0,0.0,0.0,0.0,0.0,0.0,0.0,0.0,0.0,0.0,0.0,0.0,0.0,0.0,0.0,0.0,0.0,0.0,0.0,0.0,0.0,0.0,0.0,0.0,0.0,-2.6095,-2.4004,-2.3067,-2.3472,-2.3201,-2.2735,0.0,0.0,0.0,0.0,0.0,0.0,0.0,0.0,0.0,0.0,0.0,0.0,0.0,0.0,0.0,0.0,0.0,0.0,0.0,0.0,0.0,0.0,0.0,0.0,0.0,0.0,0.0,0.0,0.0,0.0,0.0,0.0,0.0,0.0,0.0,0.0,0.0,0.0,0.0,0.0,0.0,0.0,0.0,0.0,0.0,0.0,0.0,0.0,0.0,0.0,0.0,0.0,0.0,0.0,0.0,0.0,0.0,0.0,0.0,0.0,0.0,0.0,0.0,0.0,0.0,0.0,0.0,0.0,0.0,0.0,0.0,0.0,0.0,0.0,0.0,0.0,0.0,0.0,0.0,0.0,0.0,0.0,0.0,0.0,0.0,0.0,0.0,0.0,0.0,0.0,0.0,0.0,0.0,0.0,0.0,0.0,0.0,0.0,0.0,0.0,0.0,0.0,0.0,0.0,0.0,0.0,0.0,0.0,0.0,-2.8685,-2.7766,-2.6532,-2.5312,-2.484,-2.399,0.0,0.0,0.0,0.0,0.0,0.0,0.0,0.0,0.0,0.0,0.0,0.0,0.0,0.0,0.0,0.0,0.0,0.0,0.0,0.0,0.0,0.0,0.0,0.0,0.0,0.0,0.0,0.0,0.0,0.0,0.0,0.0,0.0,0.0,0.0,0.0,0.0,0.0,0.0,0.0,0.0,0.0,0.0,0.0,0.0,0.0,0.0,0.0,0.0,0.0,0.0,0.0,0.0,0.0,0.0,0.0,0.0,0.0,0.0,0.0,0.0,0.0,0.0,0.0,0.0,0.0,0.0,0.0,0.0,0.0,0.0,0.0,0.0,0.0,0.0,0.0,0.0,0.0,0.0,0.0,0.0,0.0,0.0,0.0,0.0,0.0,0.0,0.0,0.0,0.0,0.0,0.0,0.0,0.0,0.0,0.0,0.0,0.0,0.0,0.0,0.0,0.0,0.0,0.0,0.0,0.0,0.0,0.0,-2.7868,-3.0887,-3.0233,-2.9421,-2.8529,-2.6752,-2.5185,0.0,0.0,0.0,0.0,0.0,0.0,0.0,0.0,0.0,0.0,0.0,0.0,0.0,0.0,0.0,0.0,0.0,0.0,0.0,0.0,0.0,0.0,0.0,0.0,0.0,0.0,0.0,0.0,0.0,0.0,0.0,0.0,0.0,0.0,0.0,0.0,0.0,0.0,0.0,0.0,0.0,0.0,0.0,0.0,0.0,0.0,0.0,0.0,0.0,0.0,0.0,0.0,0.0,0.0,0.0,0.0,0.0,0.0,0.0,0.0,0.0,0.0,0.0,0.0,0.0,0.0,0.0,0.0,0.0,0.0,0.0,0.0,0.0,0.0,0.0,0.0,0.0,0.0,0.0,0.0,0.0,0.0,0.0,0.0,0.0,0.0,0.0,0.0,0.0,0.0,0.0,0.0,0.0,0.0,0.0,0.0,0.0,0.0,0.0,0.0,0.0,0.0,0.0,0.0,0.0,0.0,0.0,0.0,-2.9693,-3.2513,-3.1858,-3.1724,-3.215,-2.8783,-2.6371,0.0,0.0,0.0,0.0,0.0,0.0,0.0,0.0,0.0,0.0,0.0,0.0,0.0,0.0,0.0,0.0,0.0,0.0,0.0,0.0,0.0,0.0,0.0,0.0,0.0,0.0,0.0,0.0,0.0,0.0,0.0,0.0,0.0,0.0,0.0,0.0,0.0,0.0,0.0,0.0,0.0,0.0,0.0,0.0,0.0,0.0,0.0,0.0,0.0,0.0,0.0,0.0,0.0,0.0,0.0,0.0,0.0,0.0,0.0,0.0,0.0,0.0,0.0,0.0,0.0,0.0,0.0,0.0,0.0,0.0,0.0,0.0,0.0,0.0,0.0,0.0,0.0,0.0,0.0,0.0,0.0,0.0,0.0,0.0,0.0,0.0,0.0,0.0,0.0,0.0,0.0,0.0,0.0,0.0,0.0,0.0,0.0,0.0,0.0,0.0,0.0,0.0,0.0,0.0,0.0,0.0,0.0,0.0,-3.1835,-3.3899,-3.3015,-3.2747,-3.3339,-3.0111,-2.7542,0.0,0.0,0.0,0.0,0.0,0.0,0.0,0.0,0.0,0.0,0.0,0.0,0.0,0.0,0.0,0.0,0.0,0.0,0.0,0.0,0.0,0.0,0.0,0.0,0.0,0.0,0.0,0.0,0.0,0.0,0.0,0.0,0.0,0.0,0.0,0.0,0.0,0.0,0.0,0.0,0.0,0.0,0.0,0.0,0.0,0.0,0.0,0.0,-1.7476,0.0,0.0,0.0,0.0,0.0,0.0,0.0,0.0,0.0,0.0,0.0,0.0,0.0,0.0,0.0,0.0,0.0,0.0,0.0,0.0,0.0,0.0,0.0,0.0,0.0,0.0,0.0,0.0,0.0,0.0,0.0,0.0,0.0,0.0,0.0,0.0,0.0,0.0,0.0,0.0,0.0,0.0,0.0,0.0,0.0,0.0,0.0,0.0,0.0,0.0,0.0,0.0,0.0,0.0,0.0,0.0,0.0,0.0,0.0,-3.1897,-3.3777,-3.2717,-3.2474,-3.3159,-3.0785,-2.8723,0.0,0.0,0.0,0.0,0.0,0.0,0.0,0.0,0.0,0.0,0.0,0.0,0.0,0.0,0.0,0.0,0.0,0.0,0.0,0.0,0.0,0.0,0.0,0.0,0.0,0.0,0.0,0.0,0.0,0.0,0.0,0.0,0.0,0.0,0.0,0.0,0.0,0.0,0.0,0.0,0.0,0.0,0.0,0.0,0.0,0.0,0.0,0.0,0.0,0.0,0.0,0.0,0.0,0.0,0.0,0.0,0.0,0.0,0.0,0.0,0.0,0.0,0.0,0.0,0.0,0.0,0.0,0.0,0.0,0.0,0.0,0.0,0.0,0.0,0.0,0.0,0.0,0.0,0.0,0.0,0.0,0.0,0.0,0.0,0.0,0.0,0.0,0.0,0.0,0.0,0.0,0.0,0.0,0.0,0.0,0.0,0.0,0.0,0.0,0.0,0.0,0.0,0.0,0.0,0.0,0.0,0.0,-3.1385,-3.1707,-3.3177,-3.2229,-3.1999,-3.2627,-3.1147,-2.9727,-2.8407,0.0,0.0,0.0,0.0,0.0,0.0,0.0,0.0,0.0,0.0,0.0,0.0,0.0,0.0,0.0,0.0,0.0,0.0,0.0,0.0,0.0,0.0,0.0,0.0,0.0,0.0,0.0,0.0,0.0,0.0,0.0,0.0,0.0,0.0,0.0,0.0,0.0,0.0,-1.9153,-1.9798,0.0,0.0,0.0,0.0,0.0,0.0,0.0,0.0,-2.0661,0.0,0.0,0.0,0.0,0.0,0.0,0.0,0.0,0.0,0.0,0.0,0.0,0.0,0.0,0.0,0.0,0.0,0.0,0.0,0.0,0.0,0.0,0.0,0.0,0.0,0.0,0.0,0.0,0.0,0.0,0.0,0.0,0.0,0.0,0.0,0.0,0.0,0.0,0.0,0.0,0.0,0.0,0.0,0.0,0.0,0.0,0.0,0.0,0.0,0.0,0.0,0.0,0.0,0.0,0.0,0.0,-3.2505,-3.3826,-3.4056,-3.322,-3.3348,-3.2996,-3.2167,-3.1331,-3.0154,-2.8457,0.0,0.0,0.0,0.0,0.0,0.0,0.0,0.0,0.0,0.0,0.0,0.0,0.0,0.0,0.0,0.0,0.0,0.0,0.0,0.0,0.0,0.0,0.0,0.0,0.0,0.0,0.0,0.0,0.0,0.0,0.0,0.0,0.0,0.0,0.0,0.0,0.0,0.0,0.0,-2.1603,-2.1987,0.0,0.0,0.0,0.0,0.0,0.0,0.0,0.0,-2.3858,0.0,0.0,0.0,0.0,0.0,0.0,0.0,0.0,0.0,0.0,0.0,0.0,0.0,0.0,0.0,0.0,0.0,0.0,0.0,0.0,0.0,0.0,0.0,0.0,0.0,0.0,0.0,0.0,0.0,0.0,0.0,0.0,0.0,0.0,0.0,0.0,0.0,0.0,0.0,0.0,0.0,0.0,0.0,0.0,0.0,0.0,0.0,0.0,0.0,0.0,0.0,0.0,0.0,0.0,0.0,-3.1956,-3.3104,-3.3607,-3.3375,-3.2981,-3.2884,-3.3027,-3.1766,-3.0571,0.0,0.0,0.0,0.0,0.0,0.0,0.0,0.0,0.0,0.0,0.0,0.0,0.0,0.0,0.0,0.0,0.0,0.0,0.0,0.0,0.0,0.0,0.0,0.0,0.0,0.0,0.0,0.0,0.0,0.0,0.0,0.0,0.0,0.0,0.0,0.0,0.0,0.0,0.0,0.0,-2.288,-2.3655,-2.4152,0.0,0.0,0.0,0.0,0.0,0.0,-2.5982,-2.6508,0.0,0.0,0.0,0.0,0.0,0.0,0.0,0.0,0.0,0.0,0.0,0.0,0.0,0.0,0.0,0.0,0.0,0.0,0.0,0.0,0.0,0.0,0.0,0.0,0.0,0.0,0.0,0.0,0.0,0.0,0.0,0.0,0.0,0.0,0.0,0.0,0.0,0.0,0.0,0.0,0.0,0.0,0.0,0.0,0.0,0.0,0.0,0.0,0.0,0.0,0.0,0.0,0.0,0.0,0.0,-3.1937,-3.26,-3.3184,-3.3565,-3.2916,-3.2959,-3.3635,-3.2323,-3.1068,0.0,0.0,0.0,0.0,0.0,0.0,0.0,0.0,0.0,0.0,0.0,0.0,0.0,0.0,0.0,0.0,0.0,0.0,0.0,0.0,0.0,0.0,0.0,0.0,0.0,0.0,0.0,0.0,0.0,0.0,0.0,0.0,0.0,0.0,0.0,0.0,0.0,0.0,0.0,0.0,0.0,-2.5031,-2.6205,-2.5765,0.0,0.0,0.0,0.0,-2.7619,-2.829,0.0,0.0,0.0,0.0,0.0,0.0,0.0,0.0,0.0,0.0,0.0,0.0,0.0,0.0,0.0,0.0,0.0,0.0,0.0,0.0,0.0,0.0,0.0,0.0,0.0,0.0,0.0,0.0,0.0,0.0,0.0,0.0,0.0,0.0,0.0,0.0,0.0,0.0,0.0,0.0,0.0,0.0,0.0,0.0,0.0,0.0,0.0,0.0,0.0,0.0,0.0,0.0,0.0,0.0,0.0,0.0,-3.4167,-3.5047,-3.4969,-3.4037,-3.4629,-3.4185,-3.2588,-3.2922,-3.1901,0.0,0.0,0.0,0.0,0.0,0.0,0.0,0.0,0.0,0.0,0.0,0.0,0.0,0.0,0.0,0.0,0.0,0.0,0.0,0.0,0.0,0.0,0.0,0.0,0.0,0.0,0.0,0.0,0.0,0.0,0.0,0.0,0.0,0.0,0.0,0.0,0.0,0.0,0.0,0.0,0.0,-2.6123,-2.7941,-2.7871,-2.7591,0.0,0.0,-2.9315,-2.9764,-3.0242,0.0,0.0,0.0,0.0,0.0,0.0,0.0,0.0,0.0,0.0,0.0,0.0,0.0,0.0,0.0,0.0,0.0,0.0,0.0,0.0,0.0,0.0,0.0,0.0,0.0,0.0,0.0,0.0,0.0,0.0,0.0,0.0,0.0,0.0,0.0,0.0,0.0,0.0,0.0,0.0,0.0,0.0,0.0,0.0,0.0,0.0,0.0,0.0,0.0,0.0,0.0,0.0,0.0,0.0,0.0,-3.1867,-3.3504,-3.4935,-3.5611,-3.5531,-3.5881,-3.5657,-3.4737,-3.4336,-3.3011,0.0,0.0,0.0,0.0,0.0,0.0,0.0,0.0,0.0,0.0,0.0,0.0,0.0,0.0,0.0,0.0,0.0,0.0,0.0,0.0,0.0,0.0,0.0,0.0,0.0,0.0,0.0,0.0,0.0,0.0,0.0,0.0,0.0,0.0,0.0,0.0,0.0,0.0,0.0,0.0,0.0,0.0,-2.9606,-2.9833,0.0,0.0,0.0,-3.114,-3.1409,0.0,0.0,0.0,0.0,0.0,0.0,0.0,0.0,0.0,0.0,0.0,0.0,0.0,0.0,0.0,0.0,0.0,0.0,0.0,0.0,0.0,0.0,0.0,0.0,0.0,0.0,0.0,0.0,0.0,0.0,0.0,0.0,0.0,0.0,0.0,0.0,0.0,0.0,0.0,0.0,0.0,0.0,0.0,0.0,0.0,0.0,0.0,0.0,0.0,0.0,0.0,0.0,0.0,0.0,0.0,0.0,0.0,-3.3341,-3.4798,-3.5892,-3.6665,-3.6727,-3.6713,-3.6635,-3.5625,0.0,0.0,0.0,0.0,0.0,0.0,0.0,0.0,0.0,0.0,0.0,0.0,0.0,0.0,0.0,0.0,0.0,0.0,0.0,0.0,0.0,0.0,0.0,0.0,0.0,0.0,0.0,-2.6955,0.0,0.0,0.0,0.0,0.0,0.0,0.0,0.0,0.0,0.0,0.0,0.0,0.0,0.0,-2.9283,-3.112,-3.1689,-3.195,0.0,0.0,-3.2552,-3.2318,-3.2255,-3.1763,0.0,0.0,0.0,0.0,0.0,0.0,0.0,0.0,0.0,0.0,0.0,0.0,0.0,0.0,0.0,0.0,0.0,0.0,0.0,0.0,0.0,0.0,0.0,0.0,0.0,0.0,0.0,0.0,0.0,0.0,0.0,0.0,0.0,0.0,0.0,0.0,0.0,0.0,0.0,0.0,0.0,0.0,0.0,0.0,0.0,0.0,0.0,0.0,0.0,0.0,0.0,0.0,0.0,0.0,0.0,-3.5008,-3.5429,-3.5981,-3.6688,-3.687,-3.6928,-3.6869,-3.658,-3.5274,0.0,0.0,0.0,0.0,0.0,0.0,0.0,0.0,0.0,0.0,0.0,0.0,0.0,0.0,0.0,0.0,0.0,0.0,0.0,0.0,0.0,0.0,0.0,0.0,0.0,0.0,0.0,0.0,0.0,0.0,0.0,0.0,0.0,0.0,0.0,0.0,0.0,0.0,0.0,0.0,0.0,-3.0392,-3.2484,-3.335,-3.3485,0.0,-3.3365,-3.3607,-3.2319,-3.2413,-3.1989,-3.0107,0.0,0.0,0.0,0.0,0.0,0.0,0.0,0.0,0.0,0.0,0.0,0.0,0.0,0.0,0.0,0.0,0.0,0.0,0.0,0.0,0.0,0.0,0.0,0.0,0.0,0.0,0.0,0.0,0.0,0.0,0.0,0.0,0.0,0.0,0.0,0.0,0.0,0.0,0.0,0.0,0.0,0.0,0.0,0.0,0.0,0.0,0.0,0.0,0.0,0.0,0.0,0.0,0.0,-3.2416,-3.4776,-3.5789,-3.6614,-3.7373,-3.7927,-3.7931,-3.7327,-3.7209,-3.6071,0.0,0.0,0.0,0.0,0.0,0.0,0.0,0.0,0.0,0.0,0.0,0.0,0.0,0.0,0.0,0.0,0.0,0.0,0.0,0.0,0.0,0.0,0.0,0.0,0.0,0.0,0.0,0.0,-3.3507,-3.4248,-3.3447,0.0,0.0,0.0,0.0,0.0,0.0,0.0,0.0,0.0,0.0,-3.2253,-3.3348,-3.4245,0.0,0.0,-3.4219,-3.4302,-3.3511,-3.3323,-3.2879,-3.1873,-3.0639,0.0,0.0,0.0,0.0,0.0,0.0,0.0,0.0,0.0,0.0,0.0,0.0,0.0,0.0,0.0,0.0,0.0,0.0,0.0,0.0,0.0,0.0,0.0,0.0,0.0,0.0,0.0,0.0,0.0,0.0,0.0,0.0,0.0,0.0,0.0,0.0,0.0,0.0,0.0,0.0,0.0,0.0,0.0,0.0,0.0,0.0,0.0,0.0,0.0,0.0,0.0,0.0,-3.3144,-3.5633,-3.6567,-3.7547,-3.8521,-3.8769,-3.8619,-3.815,-3.7656,-3.6599,0.0,0.0,0.0,0.0,0.0,0.0,0.0,0.0,0.0,0.0,0.0,0.0,0.0,0.0,0.0,0.0,0.0,0.0,0.0,0.0,0.0,0.0,0.0,0.0,0.0,0.0,0.0,0.0,-3.435,-3.4311,-3.3215,0.0,0.0,0.0,0.0,0.0,0.0,0.0,0.0,0.0,0.0,-3.3764,-3.4439,-3.5009,-3.5201,-3.4821,-3.5039,-3.5046,-3.4445,-3.3922,-3.3465,-3.3212,0.0,0.0,0.0,0.0,0.0,0.0,0.0,0.0,0.0,0.0,0.0,0.0,0.0,0.0,0.0,0.0,0.0,0.0,0.0,0.0,0.0,0.0,0.0,0.0,0.0,0.0,0.0,-2.0764,0.0,0.0,-1.9535,0.0,0.0,0.0,0.0,0.0,0.0,0.0,0.0,0.0,0.0,0.0,0.0,0.0,0.0,0.0,0.0,0.0,0.0,0.0,0.0,0.0,0.0,-3.5098,-3.8235,-3.799,-3.8665,-4.0202,-3.9184,-3.8826,-3.918,-3.8067,-3.6872,-3.5695,0.0,0.0,0.0,0.0,0.0,0.0,0.0,0.0,0.0,0.0,0.0,0.0,0.0,0.0,0.0,0.0,0.0,0.0,0.0,0.0,0.0,0.0,0.0,0.0,0.0,0.0,-3.5602,-3.5538,-3.464,0.0,0.0,0.0,0.0,0.0,0.0,0.0,0.0,0.0,-3.4042,-3.421,-3.4628,-3.5793,-3.5747,-3.5587,-3.5385,-3.5849,-3.589,-3.4893,-3.4037,-3.3424,0.0,0.0,0.0,0.0,0.0,0.0,0.0,0.0,0.0,0.0,0.0,0.0,0.0,0.0,0.0,0.0,0.0,0.0,0.0,0.0,0.0,0.0,0.0,0.0,0.0,0.0,0.0,-2.6041,-2.5516,0.0,0.0,0.0,0.0,0.0,0.0,0.0,0.0,0.0,0.0,0.0,-3.1335,-3.203,0.0,0.0,0.0,0.0,0.0,0.0,0.0,0.0,0.0,0.0,0.0,0.0,-3.52,-3.7873,-3.8688,-3.9376,-4.0025,-3.98,-3.9417,-3.8967,-3.8148,-3.6796,-3.4906,0.0,0.0,0.0,0.0,0.0,0.0,0.0,0.0,0.0,0.0,0.0,0.0,0.0,0.0,0.0,0.0,0.0,0.0,0.0,0.0,0.0,0.0,0.0,0.0,0.0,-3.5003,0.0,0.0,0.0,0.0,0.0,0.0,0.0,0.0,0.0,0.0,0.0,-3.4804,-3.5658,-3.5945,-3.6213,-3.6678,-3.6748,-3.6633,0.0,0.0,0.0,0.0,0.0,0.0,0.0,0.0,0.0,0.0,0.0,0.0,0.0,0.0,-2.816,-2.6549,-2.6448,-2.6512,-2.6059,0.0,0.0,0.0,0.0,0.0,0.0,0.0,0.0,0.0,0.0,0.0,0.0,0.0,0.0,-2.8568,0.0,-2.7589,0.0,0.0,0.0,0.0,0.0,0.0,0.0,0.0,-3.1629,-3.2818,-3.3254,-3.4647,-3.5107,0.0,-3.4556,-3.371,0.0,0.0,0.0,0.0,0.0,0.0,0.0,0.0,-3.5897,-3.856,-3.9203,-3.9726,-4.0254,-4.0058,-3.9638,-3.9167,-3.809,-3.6777,-3.5182,-3.4273,-3.3435,0.0,0.0,0.0,0.0,0.0,0.0,0.0,0.0,0.0,0.0,0.0,0.0,0.0,0.0,0.0,0.0,0.0,0.0,0.0,0.0,0.0,0.0,0.0,-3.6167,0.0,0.0,0.0,0.0,0.0,0.0,0.0,0.0,0.0,-3.4647,-3.5583,-3.6286,-3.6571,-3.6288,-3.6254,-3.6837,0.0,0.0,0.0,0.0,0.0,0.0,0.0,-3.6812,-3.6989,-3.6206,-3.5437,-3.5193,-3.4118,-3.3103,-3.2318,0.0,0.0,-2.9149,-2.9033,-2.911,-2.8314,-2.8513,-2.873,-2.8513,-2.8622,-2.8839,0.0,0.0,0.0,0.0,0.0,0.0,0.0,0.0,-3.0834,-2.9942,0.0,-2.9609,0.0,0.0,0.0,0.0,-2.8738,-3.0413,0.0,0.0,-3.4617,-3.5564,-3.4034,-3.646,-3.7411,-3.6877,-3.6772,-3.6621,-3.6389,-3.4216,0.0,0.0,0.0,0.0,0.0,0.0,-3.713,-4.0233,-3.9656,-3.981,-4.1043,-3.9989,-3.9462,-3.9697,-3.7917,-3.6861,-3.6566,-3.4425,-3.3489,-3.4065,-3.252,0.0,0.0,0.0,0.0,0.0,0.0,0.0,0.0,0.0,0.0,0.0,0.0,0.0,0.0,0.0,0.0,0.0,0.0,0.0,0.0,-3.6508,0.0,0.0,0.0,0.0,0.0,0.0,0.0,0.0,0.0,0.0,-3.5519,-3.6463,-3.6973,-3.6966,0.0,0.0,0.0,0.0,-3.5298,-3.7303,-3.7949,-3.8115,-3.7945,-3.6745,-3.5911,-3.612,0.0,0.0,-3.3593,-3.3826,-3.3961,-3.3904,-3.3763,-3.2849,-3.0379,-3.0494,-3.0549,-2.9672,-3.0142,-3.0565,-3.0231,-3.0333,-3.0498,-3.915,0.0,0.0,0.0,0.0,-3.4246,-3.4956,-3.6243,-3.5743,-3.5326,-3.5026,-3.4484,0.0,0.0,0.0,0.0,0.0,0.0,-3.4198,-3.4859,-3.6792,-3.8065,-3.8737,-3.9513,-3.9913,-3.993,-4.0042,-3.992,-3.9528,-3.9002,-3.7221,-3.4285,0.0,0.0,0.0,0.0,-3.864,-4.0696,-4.0906,-4.1125,-4.1468,-4.0687,-3.9826,-3.8977,-3.8215,-3.7473,-3.6891,-3.5848,-3.5176,-3.4811,-3.381,0.0,0.0,0.0,0.0,0.0,0.0,0.0,0.0,0.0,0.0,0.0,0.0,0.0,0.0,0.0,0.0,0.0,0.0,0.0,-3.621,-3.7091,-3.7301,0.0,0.0,0.0,0.0,0.0,0.0,0.0,0.0,0.0,-3.6737,-3.8191,-3.9306,0.0,0.0,-3.8649,-3.8667,-3.8103,-3.7689,-3.7736,-3.7992,0.0,-3.7439,-3.7415,-3.7311,-3.6935,-3.6105,-3.5576,-3.5648,-3.524,-3.4993,-3.4972,-3.492,-3.4554,-3.368,-3.3357,-3.3135,-3.269,-3.2792,-3.2872,-3.2507,-3.2609,-3.2833,-4.1951,-3.9987,-3.8167,-3.7271,-3.7045,-3.6934,-3.754,-3.8549,-3.8305,-3.8112,-3.7867,-3.749,-3.6183,-3.4222,-3.4173,0.0,0.0,0.0,-3.6734,-3.732,-3.8616,-3.9496,-3.9959,-4.1061,-4.1422,-4.116,-4.1976,-4.2079,-4.1604,-4.1672,-4.0226,-3.7415,0.0,0.0,-3.7855,-3.8409,-3.9548,-4.1247,-4.1447,-4.1532,-4.1691,-4.0998,-4.0235,-3.9428,-3.8547,-3.7929,-3.7451,-3.694,-3.6387,-3.5668,-3.5161,-3.443,0.0,0.0,0.0,0.0,0.0,0.0,0.0,0.0,0.0,0.0,0.0,-3.1065,-3.1388,0.0,0.0,0.0,-3.4463,-3.6087,-3.8132,-3.8183,0.0,0.0,0.0,0.0,0.0,0.0,0.0,-3.5587,-3.6006,-3.6608,-3.7774,-3.9082,-3.9753,-3.927,-3.8672,-3.8266,-3.8357,0.0,-3.754,-3.7582,-3.7913,-3.7983,-3.7301,-3.7387,-3.7231,-3.6376,-3.5859,-3.5644,-3.5798,-3.547,-3.5211,-3.5376,-3.5418,-3.5356,-3.5108,-3.4922,-3.4673,-3.4235,-3.4298,-3.436,-3.3859,-3.3985,-3.411,-4.4438,-4.3517,-4.0998,-3.9594,-3.9007,-3.9084,-3.9218,-3.9348,-3.9399,-3.9113,-3.8591,-3.9142,-3.8253,-3.6326,-3.6279,0.0,-3.8142,-3.8607,-3.8776,-3.868,-4.0297,-4.0305,-3.9082,-4.1626,-4.2257,-4.1211,-4.2783,-4.3265,-4.2795,-4.2597,-4.1962,-4.095,-3.9898,-3.9613,-4.0031,-3.959,-4.0184,-4.1785,-4.1396,-4.1365,-4.1694,-4.0971,-4.0559,-4.0535,-3.8997,-3.8202,-3.8202,-3.7679,-3.7155,-3.6595,-3.6355,-3.5637,-3.438,0.0,0.0,0.0,0.0,0.0,0.0,0.0,0.0,0.0,0.0,0.0,0.0,0.0,0.0,0.0,-3.692,0.0,-3.9786,-3.923,0.0,0.0,0.0,-3.5356,-3.4567,-3.4375,-3.4659,-3.5663,0.0,0.0,-3.8593,-3.9121,-3.8743,-3.6979,-3.5933,-3.5742,-3.6719,-3.6156,-3.5879,-3.7148,-3.7709,-3.7833,-3.7201,-3.6714,-3.6063,-3.5272,-3.4505,-3.4463,-3.4876,-3.4899,-3.5004,-3.5355,-3.5418,-3.5418,-3.5418,-3.5356,-3.5232,-3.461,-3.4922,-3.5108,-3.4485,-3.4423,-3.4423,-4.5842,-4.5363,-4.4959,-4.3596,-4.1725,-4.1929,-4.2389,-4.2931,-4.1932,-4.1872,-4.2435,-4.1314,-4.0764,-4.0631,-3.9798,-4.0227,-4.1708,-4.1409,-4.142,-4.1576,-4.2354,-4.2446,-4.1919,-4.2729,-4.2961,-4.271,-4.3253,-4.3265,-4.2843,-4.3084,-4.2996,-4.2381,-4.2135,-4.1323,-4.0137,-4.1146,-4.1748,-4.1923,-4.207,-4.1759,-4.0951,-4.0797,-4.0575,-4.0294,-3.9592,-3.915,-3.9127,-3.804,-3.7409,-3.7252,-3.6248,-3.5607,-3.5413,-3.4679,0.0,0.0,0.0,0.0,0.0,0.0,0.0,0.0,0.0,-3.4587,-3.5395,0.0,-3.8367,0.0,-3.869,-3.8217,-3.7405,-3.7323,0.0,0.0,-3.6645,-3.6601,-3.5845,-3.5831,-3.6248,-3.7263,-3.6849,-3.6924,-3.8034,-3.7862,-3.7363,-3.6622,-3.7623,-3.8352,-3.8169,-3.7345,-3.6842,-3.7081,-3.6822,-3.6372,-3.627,-3.593,-3.5636,-3.562,-3.5353,-3.5148,-3.5252,-3.5273,-3.5314,-3.5397,-3.5418,-3.5418,-3.5438,-3.5418,-3.5376,-3.517,-3.5108,-3.4922,-3.4485,-3.461,-3.4797,-4.6596,-4.6362,-4.6097,-4.5223,-4.4146,-4.4284,-4.4557,-4.4815,-4.4061,-4.4,-4.4342,-4.3229,-4.2961,-4.3187,-4.261,-4.2724,-4.3519,-4.3244,-4.313,-4.3258,-4.3466,-4.3532,-4.3498,-4.3443,-4.3389,-4.3413,-4.365,-4.3566,-4.3385,-4.3808,-4.376,-4.3197,-4.356,-4.2962,-4.1563,-4.2363,-4.2982,-4.3288,-4.3223,-4.2683,-4.1659,-4.1245,-4.1065,-4.11,-4.0266,-3.9905,-4.03,-3.9223,-3.865,-3.8572,-3.7589,-3.6967,-3.6717,-3.6034,-3.5525,0.0,0.0,0.0,0.0,0.0,0.0,0.0,0.0,0.0,0.0,0.0,-3.9385,-3.9981,-3.8871,-3.7933,-3.7736,-3.7736,-3.7481,-3.6639,-3.71,-3.715,-3.6376,-3.6369,-3.6707,-3.7369,-3.7023,-3.6921,-3.7555,-3.7257,-3.6888,-3.6624,-3.7353,-3.7747,-3.7461,-3.6879,-3.6567,-3.6575,-3.6441,-3.6279,-3.6178,-3.5993,-3.5809,-3.5665,-3.5375,-3.519,-3.5376,-3.5252,-3.519,-3.5376,-3.5418,-3.55,-3.5687,-3.5728,-3.5728,-3.5686,-3.5643,-3.535,-3.4941,-3.4984,-3.5108,-4.715,-4.7081,-4.6058,-4.5919,-4.6365,-4.6304,-4.6145,-4.5782,-4.5648,-4.5451,-4.5164,-4.4868,-4.4777,-4.4777,-4.4644,-4.4544,-4.446,-4.4369,-4.4319,-4.4369,-4.4135,-4.4085,-4.4211,-4.3993,-4.389,-4.3831,-4.3999,-4.4087,-4.416,-4.4622,-4.4512,-4.3796,-4.45,-4.4421,-4.3612,-4.3538,-4.4015,-4.4952,-4.4464,-4.3811,-4.2996,-4.2345,-4.2168,-4.2538,-4.132,-4.0877,-4.1414,-4.0593,-4.0058,-3.993,-3.9322,-3.8617,-3.7842,-3.7352,-3.6994,0.0,-3.6137,0.0,0.0,0.0,0.0,0.0,0.0,0.0,0.0,-3.8262,-3.9539,-3.9528,-3.841,-3.8046,-3.8978,-3.8894,-3.8332,-3.7244,-3.7303,-3.716,-3.6566,-3.6465,-3.6484,-3.681,-3.6871,-3.6972,-3.7193,-3.6972,-3.6728,-3.6667,-3.6298,-3.6091,-3.5972,-3.5879,-3.5752,-3.5807,-3.6465,-3.6796,-3.6734,-3.659,-3.6345,-3.5727,-3.5334,-3.5066,-3.548,-3.5293,-3.5169,-3.5459,-3.5604,-3.5749,-3.6059,-3.6142,-3.6163,-3.5997,-3.6033,-3.5947,-3.5396,-3.5252,-3.5356,-4.8668,-4.8676,-4.8228,-4.8083,-4.8188,-4.7922,-4.7482,-4.6924,-4.6,-4.5565,-4.5502,-4.5646,-4.5649,-4.5623,-4.4878,-4.5062,-4.5864,-4.5221,-4.5069,-4.5262,-4.5414,-4.5162,-4.4552,-4.4684,-4.473,-4.473,-4.453,-4.462,-4.5061,-4.5159,-4.5157,-4.5032,-4.5191,-4.5203,-4.4999,0.0,0.0,0.0,-4.4928,-4.4464,-4.3897,-4.4377,-4.4568,-4.4335,-4.3622,0.0,-4.2266,-4.0893,-3.9956,-3.9369,-3.8966,0.0,0.0,0.0,0.0,0.0,0.0,0.0,0.0,0.0,0.0,0.0,-3.8717,-3.8912,-3.7801,-3.9616,-4.0243,-3.8709,-3.9174,-3.9054,-3.7818,-3.7941,-3.7981,-3.7756,-3.7434,-3.7095,-3.6933,-3.6657,-3.6423,-3.6484,-3.6484,-3.6545,-3.6606,-3.63,-3.6116,-3.6116,-3.5726,-3.5707,-3.5998,-3.5769,-3.5458,-3.5562,-3.6556,-3.7348,-3.7718,-3.7388,-3.7079,-3.6727,-3.6248,-3.5936,-3.5998,-3.6225,-3.6225,-3.6059,-3.6287,-3.639,-3.6204,-3.6411,-3.6453,-3.5707,-3.5893,-3.5891,-3.5169,-3.5082,-3.5055,-4.8956,-4.9069,-4.8492,-4.8319,0.0,-4.81,-4.7927,-4.767,-4.7094,-4.6791,-4.6643,-4.655,-4.6467,-4.6349,-4.6019,-4.6045,-4.6276,-4.6172,-4.6221,-4.6324,-4.6442,-4.6289,-4.5893,-4.5565,-4.5354,-4.5235,-4.5057,-4.5027,-4.5179,-4.5572,-4.5608,-4.5335,-4.5515,-4.5573,-4.5603,-4.5487,-4.5196,-4.4556,-4.4522,-4.4186,-4.3507,-4.3897,-4.3989,-4.3823,-4.3201,0.0,0.0,0.0,0.0,0.0,0.0,0.0,0.0,-3.8457,0.0,-3.8457,-3.8032,-3.7929,-3.8326,-3.8316,-3.8285,-3.8284,-3.8954,-3.9279,-3.8864,-3.9311,-3.9136,-3.8214,-3.8682,-3.8584,-3.7763,-3.7763,-3.7932,-3.8059,-3.7845,-3.7758,-3.784,-3.735,-3.701,-3.6905,-3.6633,-3.6423,-3.6423,-3.6116,-3.5911,-3.587,-3.5811,-3.5852,-3.6039,-3.5914,-3.6019,-3.6915,-3.7898,-3.8543,-3.8508,-3.8341,-3.7993,-3.7601,-3.7062,-3.6687,-3.6624,-3.6561,-3.639,-3.6183,-3.6308,-3.6473,-3.6804,-3.6991,-3.6926,-3.6321,-3.6362,-3.6131,-3.5242,-3.5017,-3.4893,-4.911,-4.9361,-4.8596,-4.8373,-4.8578,-4.8296,-4.8246,-4.8347,-4.8257,0.0,0.0,-4.7442,-4.7172,-4.6959,-4.7087,-4.6909,-4.6481,-4.7027,-4.7265,-4.7205,-4.7265,-4.7154,-4.6908,-4.6323,-4.5826,-4.5497,-4.5615,-4.5522,-4.535,-4.61,-4.623,-4.5759,-4.6027,-4.6063,-4.6027,-4.5806,-4.5147,-4.4169,-4.4361,-4.4184,-4.3535,-4.3531,-4.3515,-4.3533,-4.2916,-4.2616,-4.265,-4.1696,-4.1079,-4.077,-4.0389,-3.9923,-3.9404,-3.9404,-3.9374,-3.9308,-3.9181,-3.9037,-3.8812,-3.8807,-3.8873,-3.8847,-3.8938,-3.9125,-3.9559,-3.8685,-3.8103,-3.8125,-3.821,-3.821,-3.8189,-3.8252,-3.8358,-3.8634,-3.8548,-3.8631,-3.8862,-3.8282,-3.7749,-3.7641,-3.7093,-3.6569,-3.6444,-3.6324,-3.616,-3.6162,-3.6519,-3.6666,-3.6624,-3.6541,-3.6897,-3.8535,-3.9179,-3.9584,-3.9505,-3.9232,-3.9048,-3.8671,-3.8049,-3.7568,-3.7359,-3.6981,-3.6622,-3.6453,-3.6411,-3.6784,-3.7343,-3.7529,-3.7398,-3.6992,-3.6881,-3.6567,-3.5537,-3.5116,-3.4873,-5.0155,-5.0602,-5.0213,-5.0046,-5.0072,-4.9818,-4.9418,-4.8952,-4.8431,-4.8172,-4.8114,-4.7762,-4.7619,-4.7527,-4.7324,-4.7146,-4.7087,-4.7442,-4.7501,-4.7205,-4.7501,-4.7093,-4.6104,-4.6262,-4.6061,-4.559,-4.6002,-4.6374,-4.6594,-4.6909,-4.7163,-4.7233,-4.7344,-4.7248,-4.6856,-4.5883,-4.539,-4.553,-4.5733,-4.5974,-4.6174,-4.6321,-4.6391,-4.6329,-4.5872,-4.5316,-4.4458,-4.3703,-4.2866,-4.1823,-4.1672,-4.1028,-3.9867,-3.9813,-3.965,-3.9313,-3.8666,-3.8401,-3.8775,-3.8993,-3.9293,-3.98,-3.966,-3.9406,-3.9085,-3.8958,-3.8916,-3.9041,-3.9237,-3.9411,-3.9497,-3.9715,-3.9866,-3.9931,-3.9625,-3.9449,-3.9513,-3.8949,-3.8451,-3.8102,-3.7681,-3.7136,-3.6612,-3.6948,-3.7224,-3.7185,-3.7693,-3.8608,-3.8698,-3.7866,-3.7859,-3.9179,-3.9433,-3.9611,-4.025,-4.0095,-3.9921,-4.0137,-3.9569,-3.8955,-3.838,-3.8379,-3.814,-3.7452,-3.7512,-3.7674,-3.7612,-3.7839,-3.7649,-3.7044,-3.6824,-3.6607,-3.5816,-3.5396,-3.5022,-5.1044,-5.1766,-5.1349,-5.0851,-5.0349,-4.9783,-4.9556,-4.9556,-4.927,-4.8868,-4.8431,-4.8114,-4.8061,-4.8143,-4.7892,-4.7741,-4.7667,-4.7892,-4.7762,-4.7501,-4.7795,-4.7574,-4.6905,-4.6847,-4.6637,-4.6247,-4.6942,-4.7283,-4.7297,-4.818,-4.8618,-4.8634,-4.8755,-4.8419,-4.7653,-4.7122,-4.6577,-4.6059,-4.5665,-4.5575,-4.5933,-4.5893,-4.5613,-4.5317,-4.503,-4.4478,-4.3726,-4.3388,-4.2937,-4.2215,-4.2125,-4.1671,-4.069,-4.0693,-4.0476,-3.9771,-3.9906,-3.98,-3.9496,-3.974,-3.9998,-4.0256,-4.012,-3.9887,-3.9758,-3.9671,-3.9715,-3.9801,-3.9953,-4.0018,-4.0018,-4.0018,-4.0084,-4.0279,-3.9931,-3.9758,-3.9886,-3.9409,-3.889,-3.8588,-3.784,-3.7267,-3.7053,-3.7409,-3.7746,-3.7727,-3.8644,-3.9575,-4.0356,-3.9658,-3.9349,-4.0423,-4.0756,-4.091,-4.1198,-4.1051,-4.0955,-4.1097,-4.0531,-3.9914,-3.9316,-3.9174,-3.8528,-3.7822,-3.7749,-3.7864,-3.7798,-3.7872,-3.7591,-3.7208,-3.677,-3.6446,-3.5976,-3.5673,-3.5303,-5.2184,-5.3187,-5.257,-5.171,-5.068,-4.9916,-4.9805,-5.0179,-5.0179,-4.9921,-4.9458,-4.889,-4.8668,-4.8681,-4.844,-4.8316,-4.8273,-4.8231,-4.8055,-4.788,-4.823,-4.823,-4.7912,-4.7795,-4.7637,-4.7581,-4.8291,-4.8549,-4.8584,-4.9722,-5.0191,-5.0019,-5.0054,-4.9663,-4.873,-4.8515,-4.7991,-4.7101,-4.6163,-4.5612,-4.5514,-4.5147,-4.4683,-4.4293,-4.4002,-4.359,-4.3205,-4.312,-4.2928,-4.2591,-4.2567,-4.2279,-4.1714,-4.1638,-4.1342,-4.0841,-4.1306,-4.1413,-4.0834,-4.0914,-4.0891,-4.0774,-4.0642,-4.0474,-4.0344,-4.0474,-4.0474,-4.0344,-4.0279,-4.0279,-4.0279,-4.0018,-3.9953,-4.0214,-4.0018,-3.9997,-4.017,-3.9758,-3.9282,-3.913,-3.8314,-3.7756,-3.7749,-3.8106,-3.8656,-3.921,-3.9759,-4.0548,-4.1309,-4.1126,-4.1103,-4.1433,-4.1774,-4.1771,-4.1581,-4.1558,-4.1558,-4.1558,-4.1234,-4.072,-4.0159,-3.9406,-3.8787,-3.8337,-3.7947,-3.7909,-3.8042,-3.7816,-3.7461,-3.7179,-3.6777,-3.629,-3.5838,-3.5514,-3.5291,-5.3977,-5.4644,-5.4116,-5.2995,-5.1707,-5.1254,-5.1009,-5.0906,-5.085,-5.1266,-5.1764,-5.0481,-4.961,-4.909,-4.8832,-4.8685,-4.8679,-4.8341,-4.8257,-4.8283,-4.8779,-4.8837,-4.869,-4.9125,-4.9507,-4.9701,-5.0036,-5.05,-5.0869,-5.1476,-5.1686,-5.1429,-5.0961,-5.069,-5.0463,-4.9811,-4.9438,-4.9568,-4.8713,-4.7564,-4.6266,-4.5574,-4.5245,-4.5196,-4.4804,-4.4497,-4.413,-4.4141,-4.3901,-4.3444,-4.3372,-4.318,-4.2748,-4.2219,-4.2123,-4.2472,-4.2171,-4.2197,-4.2743,-4.2541,-4.2179,-4.1734,-4.1377,-4.0993,-4.0474,-4.0864,-4.0928,-4.0474,-4.0344,-4.0409,-4.0344,-4.0279,-4.0279,-4.0344,-4.0279,-4.0279,-4.0344,-4.0236,-4.0039,-3.958,-3.9362,-3.9015,-3.8419,-3.925,-4.0527,-4.133,-4.1552,-4.1797,-4.1947,-4.1993,-4.1919,-4.1919,-4.1542,-4.1283,-4.1506,-4.1581,-4.1667,-4.1627,-4.1908,-4.1524,-4.0792,-4.0482,-4.0256,-3.9002,-3.8735,-3.8399,-3.7909,-3.7616,-3.7482,-3.7126,-3.6689,-3.6234,-3.5544,-3.4949,-3.4538,-5.5125,-5.5774,-5.5123,-5.431,-5.3304,-5.2351,-5.2519,-5.3544,-5.3544,-5.3715,-5.3804,-5.3245,-5.2351,-5.1214,-5.0401,-4.9982,-4.9952,-4.9663,-4.9547,-4.9547,-4.9631,-4.9966,-5.0546,-5.0605,-5.0739,-5.0864,-5.1277,-5.1632,-5.202,-5.2729,-5.3147,-5.3125,-5.285,-5.2299,-5.1432,-5.1046,-5.0417,-4.946,-4.9393,-4.8885,-4.7949,-4.6727,-4.6035,-4.5853,-4.5208,-4.4656,-4.4347,-4.447,-4.4596,-4.4561,-4.4719,-4.4767,-4.4582,-4.4269,-4.387,-4.3565,-4.3144,-4.3277,-4.4061,-4.3617,-4.3192,-4.2988,-4.2483,-4.1911,-4.1293,-4.1421,-4.1293,-4.0777,-4.0971,-4.1035,-4.0712,-4.0582,-4.0669,-4.0799,-4.0539,-4.0474,-4.0864,-4.0928,-4.0664,-4.0008,-3.9907,-3.9757,-3.9305,-4.0011,-4.1132,-4.2046,-4.2275,-4.227,-4.1994,-4.2132,-4.2103,-4.183,-4.153,-4.1623,-4.1807,-4.1919,-4.1896,-4.193,-4.212,-4.1942,-4.141,-4.1084,-4.0688,-3.9585,-3.9236,-3.8793,-3.8083,-3.7549,-3.7213,-3.6951,-3.6308,-3.5642,-3.5078,-3.4724,-3.4502,-5.6255,-5.6604,-5.5781,-5.4993,-5.4205,-5.3501,-5.3891,-5.5111,-5.5467,-5.5583,-5.5484,-5.5146,-5.4539,-5.3584,-5.2173,-5.1498,-5.1383,-5.1122,-5.0976,-5.0949,-5.0833,-5.125,-5.2093,-5.1976,-5.2058,-5.2307,-5.2602,-5.2902,-5.3152,-5.3768,-5.4221,-5.4221,-5.4074,-5.3435,-5.2453,-5.2279,-5.1697,-5.0532,-5.0604,-5.03,-4.9534,-4.847,-4.747,-4.6683,-4.5772,-4.5121,-4.4688,-4.4913,-4.5221,-4.5503,-4.577,-4.5974,-4.607,-4.5773,-4.5295,-4.4615,-4.4401,-4.4524,-4.5037,-4.4607,-4.4113,-4.3678,-4.3365,-4.2862,-4.2229,-4.2293,-4.2229,-4.1783,-4.2229,-4.2293,-4.1335,-4.1399,-4.1591,-4.1806,-4.1181,-4.1072,-4.1633,-4.1524,-4.1193,-4.0733,-4.0711,-4.0455,-4.0152,-4.0456,-4.1106,-4.1903,-4.2161,-4.2247,-4.2005,-4.2097,-4.2085,-4.1699,-4.1877,-4.1885,-4.1955,-4.2156,-4.221,-4.2031,-4.2061,-4.2282,-4.1804,-4.1534,-4.1293,-4.0384,-3.991,-3.9364,-3.8747,-3.8017,-3.7206,-3.6817,-3.603,-3.5171,-3.4805,-3.458,-3.4274,-5.7414,-5.7499,-5.6079,-5.4902,-5.3819,-5.4799,-5.4994,-5.501,-5.5854,-5.6447,-5.6559,-5.5597,-5.549,-5.5954,-5.4064,-5.3131,-5.299,-5.2474,-5.227,-5.227,-5.2471,-5.2672,-5.2814,-5.3044,-5.3579,-5.4167,-5.4018,-5.4383,-5.5091,-5.479,-5.4607,-5.452,-5.3954,-5.3565,-5.3389,-5.3362,-5.345,-5.3031,-5.268,-5.2015,-5.097,-5.0717,-4.9677,-4.7825,-4.6895,-4.6279,-4.5733,-4.5724,-4.5883,-4.6068,-4.6273,-4.6481,-4.6704,-4.6248,-4.591,-4.5843,-4.6034,-4.601,-4.5732,-4.5635,-4.5061,-4.3826,-4.3989,-4.374,-4.2673,-4.3428,-4.3802,-4.3615,-4.4051,-4.3841,-4.265,-4.2713,-4.3028,-4.3067,-4.2358,-4.2147,-4.2603,-4.1965,-4.1771,-4.1868,-4.1587,-4.1099,-4.0693,-4.08,-4.103,-4.1621,-4.2017,-4.2328,-4.2441,-4.2272,-4.2141,-4.2154,-4.2019,-4.1784,-4.1831,-4.2084,-4.2008,-4.1947,-4.2257,-4.2534,-4.2057,-4.161,-4.1497,-4.1248,-4.0819,-4.017,-3.9473,-3.8687,-3.7798,-3.6942,-3.5661,-3.4848,-3.457,-3.365,-3.3572,-5.8029,-5.7387,-5.6249,-5.5823,-5.5994,-5.6241,-5.668,-5.7433,-5.7897,-5.7907,-5.7702,-5.7221,-5.703,-5.6899,-5.6162,-5.5195,-5.4148,-5.3836,-5.3744,-5.3715,-5.3483,-5.3763,-5.4474,-5.4618,-5.4818,-5.5072,-5.5042,-5.5038,-5.5116,-5.4936,-5.4639,-5.4341,-5.4074,-5.3833,-5.3652,-5.3592,-5.3549,-5.3402,-5.3457,-5.3174,-5.242,-5.2305,-5.1622,-5.0314,-4.91,-4.8161,-4.7507,-4.7677,-4.7709,-4.7374,-4.7631,-4.7735,-4.767,-4.7287,-4.689,-4.6561,-4.656,-4.6506,-4.618,-4.612,-4.5878,-4.5306,-4.5245,-4.4878,-4.4151,-4.436,-4.4422,-4.4113,-4.4607,-4.4706,-4.4336,-4.3927,-4.3615,-4.3482,-4.2732,-4.2343,-4.2818,-4.2545,-4.2063,-4.186,-4.133,-4.0829,-4.0713,-4.0801,-4.1089,-4.1499,-4.1839,-4.1916,-4.1916,-4.204,-4.2192,-4.1979,-4.2005,-4.2065,-4.1923,-4.1932,-4.2019,-4.2254,-4.2521,-4.2537,-4.2246,-4.2046,-4.1911,-4.1463,-4.1229,-4.0797,-3.991,-3.8655,-3.7858,-3.6439,-3.5167,-3.4899,-3.429,-3.3858,-3.3858,-5.8195,-5.7301,-5.6615,-5.6729,-5.7272,-5.7283,-5.7837,-5.8798,-5.8936,-5.8664,-5.825,-5.8085,-5.7751,-5.736,-5.7303,-5.67,-5.5503,-5.5282,-5.5195,-5.5108,-5.4588,-5.4753,-5.5381,-5.5496,-5.5496,-5.5496,-5.5496,-5.5379,-5.5144,-5.4967,-5.4639,-5.4254,-5.4134,-5.3954,-5.3652,-5.3713,-5.3675,-5.3608,-5.3882,-5.3773,-5.3157,-5.3326,-5.2883,-5.191,-5.1023,-5.0132,-4.9153,-4.9306,-4.9334,-4.904,-4.9187,-4.912,-4.8655,-4.8042,-4.7527,-4.7138,-4.69,-4.6686,-4.6506,-4.6446,-4.6301,-4.6059,-4.6059,-4.5793,-4.5098,-4.5159,-4.5,-4.4878,-4.5184,-4.5611,-4.5489,-4.5,-4.457,-4.4374,-4.345,-4.3047,-4.3645,-4.3227,-4.2565,-4.1961,-4.1555,-4.0994,-4.0561,-4.0809,-4.1065,-4.1376,-4.1626,-4.1724,-4.1935,-4.1962,-4.2205,-4.1936,-4.1852,-4.1946,-4.1873,-4.1769,-4.1958,-4.2205,-4.2494,-4.2514,-4.2527,-4.2437,-4.2212,-4.1765,-4.1335,-4.0946,-4.0101,-3.883,-3.7423,-3.5972,-3.5495,-3.5289,-3.4808,-3.4342,-3.4405,-5.7892,-5.7474,-5.7332,-5.7418,-5.7647,-5.8033,-5.8225,-5.8449,-5.8639,-5.8555,-5.8195,-5.7948,-5.7669,-5.736,-5.7303,-5.7189,-5.6933,-5.6451,-5.6194,-5.6136,-5.5644,-5.5381,-5.5496,-5.5496,-5.5496,-5.5496,-5.5496,-5.5496,-5.5379,-5.4936,-5.4639,-5.452,-5.4254,-5.4014,-5.3652,-5.3954,-5.4074,-5.4139,-5.4166,-5.3713,-5.2951,-5.3653,-5.3407,-5.2217,-5.2548,-5.2084,-5.0445,-5.0401,-5.0496,-5.0594,-5.0763,-5.0412,-4.9475,-4.8531,-4.7755,-4.7741,-4.7215,-4.6916,-4.6857,-4.6907,-4.6597,-4.5914,-4.6326,-4.6436,-4.5732,-4.5914,-4.612,-4.6059,-4.6059,-4.618,-4.618,-4.6059,-4.5817,-4.5707,-4.4694,-4.4354,-4.4389,-4.3988,-4.3216,-4.2447,-4.2149,-4.1686,-4.0787,-4.074,-4.1094,-4.1187,-4.1482,-4.2039,-4.2492,-4.222,-4.2043,-4.2304,-4.2195,-4.1931,-4.1798,-4.1653,-4.1827,-4.2078,-4.2347,-4.2488,-4.2576,-4.2494,-4.2379,-4.202,-4.1701,-4.1267,-4.0237,-3.9036,-3.7886,-3.6644,-3.6289,-3.5666,-3.5229,-3.4831,-3.4871,-5.8571,-5.862,-5.8873,-5.9112,-5.9293,-5.947,-5.9513,-5.9453,-5.9145,-5.8664,-5.825,-5.8114,-5.7807,-5.736,-5.7303,-5.7191,-5.6993,-5.6566,-5.6423,-5.6279,-5.5787,-5.5496,-5.5496,-5.5496,-5.5496,-5.5496,-5.5496,-5.5379,-5.5172,-5.4995,-5.4817,-5.458,-5.4548,-5.4401,-5.4309,-5.4194,-5.4254,-5.4671,-5.458,-5.4323,-5.4276,-5.456,-5.4138,-5.321,-5.3323,-5.292,-5.204,-5.1993,-5.1883,-5.1743,-5.1576,-5.111,-5.0254,-4.9778,-4.9348,-4.8928,-4.8747,-4.8265,-4.7803,-4.8033,-4.7784,-4.7009,-4.7291,-4.7196,-4.6471,-4.6481,-4.6541,-4.6301,-4.5914,-4.5732,-4.612,-4.5878,-4.5586,-4.5428,-4.4875,-4.4535,-4.4449,-4.4055,-4.3405,-4.2772,-4.246,-4.1769,-4.0985,-4.1065,-4.1383,-4.14,-4.1553,-4.199,-4.2544,-4.2592,-4.2424,-4.2663,-4.2303,-4.2,-4.176,-4.1591,-4.1619,-4.1851,-4.2078,-4.2376,-4.249,-4.2567,-4.2454,-4.2252,-4.1934,-4.132,-4.0267,-3.921,-3.7981,-3.7055,-3.6285,-3.5872,-3.5542,-3.5375,-3.5334,-5.8914,-5.8867,-5.9833,-6.0126,-6.0054,-6.0317,-6.0326,-6.0057,-5.9419,-5.8762,-5.8254,-5.7974,-5.7786,-5.7679,-5.7681,-5.751,-5.7225,-5.6938,-5.6594,-5.6221,-5.5729,-5.5496,-5.5552,-5.5749,-5.6002,-5.617,-5.6198,-5.594,-5.5538,-5.542,-5.5269,-5.515,-5.4869,-5.4837,-5.4856,-5.4603,-5.4671,-5.4908,-5.4817,-5.4877,-5.5085,-5.5085,-5.4577,-5.3796,-5.3483,-5.3259,-5.2899,-5.2767,-5.2657,-5.2523,-5.2245,-5.1636,-5.0989,-5.0597,-5.0138,-4.969,-4.9421,-4.9144,-4.8704,-4.8875,-4.8685,-4.7855,-4.7992,-4.788,-4.7146,-4.6934,-4.6755,-4.6301,-4.5974,-4.5732,-4.5646,-4.5206,-4.489,-4.4853,-4.4998,-4.4816,-4.4546,-4.4223,-4.3716,-4.3204,-4.2844,-4.2208,-4.1725,-4.1499,-4.1874,-4.1924,-4.1913,-4.2135,-4.2763,-4.2923,-4.2899,-4.2791,-4.2573,-4.2234,-4.1827,-4.1601,-4.1422,-4.1585,-4.1816,-4.211,-4.2418,-4.2389,-4.2263,-4.2006,-4.1734,-4.1167,-4.0244,-3.9103,-3.7978,-3.7157,-3.6531,-3.6179,-3.5892,-3.5624,-3.55,-5.9045,-5.8518,-6.0314,-6.0511,-5.9912,-6.0767,-6.0749,-6.0041,-5.9474,-5.887,-5.8206,-5.7725,-5.7708,-5.8145,-5.8087,-5.7887,-5.7801,-5.7454,-5.6848,-5.6303,-5.5896,-5.5864,-5.5889,-5.6342,-5.6764,-5.7154,-5.7238,-5.6985,-5.6448,-5.6181,-5.6089,-5.6033,-5.55,-5.5297,-5.5539,-5.521,-5.4995,-5.5165,-5.5082,-5.5144,-5.5437,-5.5203,-5.4585,-5.3753,-5.3526,-5.3299,-5.3047,-5.2955,-5.3024,-5.3111,-5.2712,-5.2292,-5.177,-5.1043,-5.059,-5.0254,-4.9759,-4.9698,-4.9524,-4.968,-4.9221,-4.8369,-4.8463,-4.8205,-4.7419,-4.7087,-4.6874,-4.6361,-4.6059,-4.5696,-4.5025,-4.4439,-4.4171,-4.4243,-4.4875,-4.5146,-4.478,-4.4387,-4.3964,-4.3482,-4.3275,-4.2968,-4.2311,-4.2185,-4.2446,-4.2676,-4.2577,-4.2971,-4.3355,-4.3468,-4.3085,-4.2885,-4.2763,-4.2224,-4.176,-4.1619,-4.1417,-4.1379,-4.1635,-4.1983,-4.2268,-4.2226,-4.224,-4.2,-4.1579,-4.0968,-4.0293,-3.928,-3.8448,-3.7752,-3.7141,-3.6654,-3.6324,-3.6017,-3.5686,-5.9306,-6.0028,-6.0844,-6.0842,-6.0487,-6.1413,-6.1151,-6.0188,-5.974,-5.9224,-5.8564,-5.7929,-5.7938,-5.8203,-5.7826,-5.7626,-5.7801,-5.7539,-5.7162,-5.6813,-5.7092,-5.7024,-5.7021,-5.7253,-5.739,-5.7495,-5.7551,-5.7294,-5.7154,-5.7037,-5.6977,-5.7005,-5.6272,-5.6272,-5.666,-5.5615,-5.5451,-5.5793,-5.528,-5.5144,-5.5437,-5.5437,-5.4848,-5.3838,-5.4034,-5.3724,-5.3023,-5.341,-5.3637,-5.3474,-5.3375,-5.3133,-5.2715,-5.2432,-5.2116,-5.1724,-5.1505,-5.1189,-5.0865,-5.0864,-5.035,-4.9057,-4.9187,-4.8979,-4.7663,-4.7172,-4.6755,-4.624,-4.5489,-4.5,-4.4927,-4.4305,-4.3988,-4.4383,-4.4705,-4.4748,-4.4312,-4.423,-4.4097,-4.3277,-4.3091,-4.283,-4.2651,-4.2774,-4.3176,-4.3375,-4.3491,-4.3763,-4.4175,-4.3998,-4.3595,-4.3079,-4.2806,-4.2123,-4.167,-4.1529,-4.1386,-4.1331,-4.1585,-4.1947,-4.2117,-4.2125,-4.2183,-4.2229,-4.1738,-4.1129,-4.0583,-3.9825,-3.9054,-3.8287,-3.7779,-3.7251,-3.6748,-3.6332,-3.5956,-5.9707,-6.0091,-6.1146,-6.1204,-6.0793,-6.1669,-6.1549,-6.067,-6.0257,-5.9732,-5.9097,-5.8605,-5.8695,-5.8987,-5.8321,-5.8205,-5.8491,-5.788,-5.7499,-5.7406,-5.7856,-5.8079,-5.8047,-5.8288,-5.837,-5.8198,-5.8442,-5.8269,-5.7833,-5.764,-5.7499,-5.7154,-5.6479,-5.6395,-5.6757,-5.588,-5.5429,-5.583,-5.5488,-5.532,-5.5496,-5.5496,-5.5018,-5.4288,-5.44,-5.4006,-5.3163,-5.3548,-5.3716,-5.3571,-5.361,-5.3652,-5.3349,-5.3193,-5.2922,-5.2615,-5.243,-5.2059,-5.1751,-5.175,-5.1163,-4.9939,-4.974,-4.9064,-4.8106,-4.7349,-4.6815,-4.6059,-4.5306,-4.5061,-4.4939,-4.4377,-4.4008,-4.3886,-4.4269,-4.4486,-4.4269,-4.4392,-4.4209,-4.3763,-4.3681,-4.3721,-4.3348,-4.3794,-4.4127,-4.441,-4.4369,-4.4661,-4.4976,-4.4507,-4.3954,-4.343,-4.2784,-4.2184,-4.1612,-4.1375,-4.1661,-4.1633,-4.172,-4.2042,-4.2,-4.204,-4.1999,-4.196,-4.1715,-4.1309,-4.0759,-4.0174,-3.9533,-3.8868,-3.8358,-3.7762,-3.7129,-3.6939,-3.6478,-6.0079,-5.9413,-6.1257,-6.1437,-6.0638,-6.1555,-6.1615,-6.1028,-6.0706,-6.0297,-5.9713,-5.9423,-5.9451,-6.006,-5.9073,-5.9127,-5.9616,-5.8534,-5.8178,-5.8228,-5.8625,-5.8819,-5.888,-5.9184,-5.9205,-5.9149,-5.9834,-5.931,-5.8555,-5.8079,-5.7676,-5.7242,-5.6226,-5.6058,-5.6451,-5.5917,-5.558,-5.5693,-5.555,-5.5496,-5.5554,-5.5526,-5.5132,-5.4514,-5.4233,-5.3893,-5.3357,-5.349,-5.3561,-5.3127,-5.3723,-5.3866,-5.3652,-5.3349,-5.3044,-5.2799,-5.2738,-5.2527,-5.2218,-5.2103,-5.1558,-5.0409,-4.9663,-4.9014,-4.8106,-4.7349,-4.6695,-4.6059,-4.5878,-4.5561,-4.5253,-4.4867,-4.449,-4.4041,-4.4372,-4.4791,-4.4999,-4.4807,-4.4493,-4.4475,-4.4738,-4.4903,-4.5062,-4.5164,-4.5316,-4.5345,-4.5296,-4.5363,-4.5276,-4.4769,-4.4175,-4.356,-4.2925,-4.2245,-4.1696,-4.1197,-4.172,-4.197,-4.2114,-4.2252,-4.208,-4.1986,-4.1768,-4.1639,-4.162,-4.132,-4.0815,-4.03,-3.9858,-3.9496,-3.898,-3.8103,-3.7255,-3.7509,-3.7276,-6.0016,-5.9713,-6.1115,-6.0735,-5.9625,-6.1175,-6.1439,-6.0471,-6.0589,-6.0472,-6.0033,-5.9539,-5.9508,-5.9821,-5.942,-5.9391,-5.9642,-5.9137,-5.9038,-5.9333,-5.9418,-5.9532,-5.9565,-5.9786,-5.9643,-5.9493,-5.9872,-5.9607,-5.8852,-5.8508,-5.8132,-5.7326,-5.6564,-5.6507,-5.6845,-5.6002,-5.5777,-5.603,-5.5749,-5.5641,-5.5787,-5.5615,-5.5107,-5.429,-5.3809,-5.3303,-5.3107,-5.3585,-5.3613,-5.3216,-5.3585,-5.3997,-5.3872,-5.3658,-5.3443,-5.3349,-5.3105,-5.2983,-5.2799,-5.2377,-5.1496,-5.0262,-4.9637,-4.8834,-4.7537,-4.6874,-4.6481,-4.618,-4.6155,-4.6075,-4.6003,-4.6007,-4.568,-4.5252,-4.5273,-4.5653,-4.5857,-4.5292,-4.4658,-4.4347,-4.4352,-4.4326,-4.4843,-4.5431,-4.5732,-4.6134,-4.6172,-4.6009,-4.5575,-4.5066,-4.441,-4.3744,-4.2784,-4.2089,-4.1864,-4.1637,-4.2184,-4.2544,-4.271,-4.2678,-4.2503,-4.2164,-4.2038,-4.184,-4.1701,-4.1352,-4.0959,-4.0762,-4.0447,-4.006,-3.9606,-3.8766,-3.8231,-3.8253,-3.7806,-6.0578,-6.0471,-6.1112,-6.0821,-6.0122,-6.0997,-6.1081,-6.0521,-6.0432,-6.0343,-6.0225,-5.9996,-5.9935,-5.9896,-5.9527,-5.9527,-5.9807,-5.9586,-5.9451,-5.9459,-5.9426,-5.9346,-5.939,-5.9683,-5.9688,-5.9399,-6.0266,-5.9912,-5.8941,-5.8515,-5.7945,-5.6989,-5.6311,-5.6204,-5.6629,-5.5892,-5.581,-5.6068,-5.5927,-5.5816,-5.5903,-5.565,-5.5025,-5.4148,-5.3414,-5.288,-5.277,-5.3302,-5.3246,-5.3051,-5.3438,-5.3951,-5.4023,-5.3782,-5.3653,-5.3806,-5.3713,-5.3349,-5.3105,-5.2685,-5.1865,-5.0217,-4.9716,-4.8593,-4.7479,-4.6636,-4.6396,-4.6456,-4.65,-4.6561,-4.6843,-4.7157,-4.6998,-4.6634,-4.6457,-4.6594,-4.6726,-4.6125,-4.5552,-4.5363,-4.5727,-4.5849,-4.6104,-4.6191,-4.6463,-4.6997,-4.6754,-4.6603,-4.6175,-4.5579,-4.4718,-4.3857,-4.2682,-4.1972,-4.185,-4.2114,-4.289,-4.3168,-4.3348,-4.3354,-4.3236,-4.2771,-4.2299,-4.2063,-4.1759,-4.161,-4.1244,-4.1114,-4.0926,-4.045,-3.9995,-3.9433,-3.9002,-3.8616,-3.8018,-6.1075,-6.0988,-6.1075,-6.1015,-6.0868,-6.0598,-6.048,-6.0359,-6.003,-5.9858,-6.0083,-6.0355,-6.0123,-6.0022,-5.9712,-5.9737,-5.99,-5.9858,-5.9578,-5.9267,-5.9267,-5.9166,-5.9215,-5.9503,-5.964,-5.9454,-6.0377,-5.9944,-5.8685,-5.8178,-5.7639,-5.6457,-5.5805,-5.5782,-5.5814,-5.5699,-5.5727,-5.5988,-5.596,-5.6105,-5.6106,-5.5852,-5.5197,-5.4148,-5.3271,-5.2738,-5.2627,-5.285,-5.2961,-5.2798,-5.3135,-5.3527,-5.3858,-5.3785,-5.3716,-5.3969,-5.3855,-5.3468,-5.2931,-5.2608,-5.185,-5.0292,-4.9646,-4.8765,-4.7606,-4.7112,-4.6968,-4.7027,-4.7213,-4.7438,-4.7696,-4.8023,-4.8092,-4.7773,-4.7558,-4.7531,-4.756,-4.7185,-4.7019,-4.6793,-4.6675,-4.669,-4.6965,-4.7132,-4.7516,-4.7677,-4.7383,-4.7087,-4.6695,-4.607,-4.5182,-4.4537,-4.3562,-4.3068,-4.2904,-4.2149,-4.2996,-4.3468,-4.376,-4.3684,-4.3579,-4.2973,-4.2404,-4.2068,-4.1811,-4.1668,-4.1547,-4.1388,-4.1158,-4.0837,-4.0428,-3.9973,-3.9411,-3.8936,-3.8444,-6.0694,-5.9963,-6.0511,-6.0333,-5.9632,-5.9514,-5.9543,-5.9429,-5.888,-5.8968,-5.9454,-5.9483,-5.9704,-5.9716,-5.9986,-6.0014,-5.9763,-5.9668,-5.9482,-5.9205,-5.9205,-5.9189,-5.9436,-5.9555,-5.9606,-5.9825,-6.0287,-5.9712,-5.8377,-5.8042,-5.7324,-5.6007,-5.558,-5.5554,-5.5669,-5.5554,-5.5671,-5.6019,-5.6019,-5.625,-5.6394,-5.6108,-5.5423,-5.4175,-5.3266,-5.2729,-5.245,-5.2422,-5.2592,-5.2961,-5.2431,-5.2826,-5.3499,-5.3655,-5.3641,-5.3634,-5.3512,-5.3157,-5.2506,-5.1743,-5.0585,-4.9348,-4.8945,-4.8659,-4.8061,-4.7854,-4.7912,-4.8236,-4.8526,-4.8877,-4.9451,-4.9243,-4.9002,-4.8731,-4.8515,-4.838,-4.8677,-4.8622,-4.824,-4.7742,-4.7545,-4.737,-4.7648,-4.7875,-4.7911,-4.7919,-4.7677,-4.7442,-4.7087,-4.6431,-4.5657,-4.5183,-4.4756,-4.4415,-4.4255,-4.3173,-4.2891,-4.3423,-4.3636,-4.3566,-4.3333,-4.2829,-4.2459,-4.2311,-4.2137,-4.1954,-4.1833,-4.1665,-4.1415,-4.1075,-4.0795,-4.0406,-3.9972,-3.9497,-3.9517,-5.9762,-5.9491,-5.9463,-5.9202,-5.8765,-5.8557,-5.8526,-5.8469,-5.8033,-5.8171,-5.8685,-5.9006,-5.9196,-5.9465,-5.9763,-5.9763,-5.9544,-5.9482,-5.9329,-5.9205,-5.9205,-5.9267,-5.9482,-5.9482,-5.9482,-5.9516,-5.983,-5.9322,-5.7765,-5.7891,-5.7262,-5.626,-5.5693,-5.5695,-5.6009,-5.5782,-5.5844,-5.6105,-5.625,-5.6251,-5.6334,-5.5991,-5.5104,-5.4278,-5.3687,-5.3181,-5.2871,-5.31,-5.3244,-5.3359,-5.319,-5.3331,-5.3585,-5.3667,-5.3603,-5.3458,-5.3257,-5.2705,-5.1971,-5.1261,-5.0439,-4.896,-4.883,-4.8688,-4.8387,-4.8379,-4.8815,-4.9301,-4.9813,-5.0152,-5.0349,-5.0159,-5.0049,-4.9994,-4.9721,-4.961,-4.9773,-4.9799,-4.9303,-4.8725,-4.8661,-4.8512,-4.8391,-4.8457,-4.8253,-4.81,-4.7912,-4.7788,-4.7578,-4.7061,-4.6476,-4.5949,-4.5487,-4.4847,-4.4621,-4.3919,-4.2913,-4.329,-4.359,-4.3443,-4.3348,-4.3004,-4.2871,-4.2833,-4.2637,-4.2241,-4.1983,-4.177,-4.1542,-4.1245,-4.0612,-4.016,-4.0211,-4.0169,-4.0038,-5.8832,-5.8962,-5.842,-5.8161,-5.8042,-5.763,-5.7454,-5.7454,-5.7242,-5.7491,-5.8142,-5.8523,-5.8889,-5.9217,-5.9392,-5.9482,-5.9205,-5.9205,-5.9205,-5.9205,-5.9205,-5.9205,-5.9267,-5.9205,-5.9267,-5.9454,-5.9454,-5.8889,-5.801,-5.7994,-5.751,-5.6764,-5.6086,-5.6204,-5.666,-5.6235,-5.6216,-5.6393,-5.6537,-5.6336,-5.6102,-5.5582,-5.5034,-5.4515,-5.4366,-5.403,-5.3634,-5.3834,-5.4119,-5.412,-5.4092,-5.4092,-5.398,-5.3839,-5.3613,-5.3329,-5.3272,-5.2443,-5.1494,-5.1116,-5.0324,-4.8799,-4.9094,-4.9033,-4.9201,-4.9415,-4.984,-5.0235,-5.0516,-5.0795,-5.0795,-5.0823,-5.0823,-5.0795,-5.0795,-5.0767,-5.0461,-5.0293,-5.0126,-4.9791,-4.9783,-4.9472,-4.9049,-4.8647,-4.8442,-4.8426,-4.8238,-4.8387,-4.8262,-4.812,-4.7615,-4.6822,-4.6144,-4.5229,-4.4803,-4.451,-4.3622,-4.316,-4.3349,-4.334,-4.3373,-4.332,-4.3251,-4.3052,-4.2793,-4.2437,-4.2155,-4.1856,-4.1693,-4.1238,-4.0319,-4.0044,-4.0318,-4.0278,-4.0126,-5.8218,-5.7976,-5.7891,-5.7712,-5.7358,-5.6609,-5.6385,-5.6564,-5.6381,-5.6688,-5.7688,-5.8142,-5.8705,-5.9093,-5.9267,-5.9205,-5.9205,-5.9205,-5.9205,-5.9205,-5.9205,-5.9329,-5.9544,-5.9267,-5.9329,-5.9392,-5.9329,-5.8902,-5.8306,-5.8471,-5.816,-5.7383,-5.7097,-5.727,-5.7274,-5.6832,-5.6929,-5.7165,-5.6967,-5.6907,-5.6959,-5.6437,-5.5979,-5.5666,-5.5214,-5.4789,-5.4509,-5.4653,-5.4797,-5.5167,-5.4796,-5.4712,-5.4686,-5.429,-5.3979,-5.3669,-5.3216,-5.2451,-5.1061,-5.0806,-5.0274,-4.9155,-4.9085,-4.961,-5.0288,-5.0738,-5.11,-5.1155,-5.1128,-5.1045,-5.1072,-5.0934,-5.0906,-5.0962,-5.0962,-5.0822,-5.0655,-5.0738,-5.0543,-5.0292,-5.0123,-4.967,-4.9244,-4.8926,-4.8632,-4.8557,-4.8623,-4.8773,-4.8864,-4.8781,-4.8635,-4.7838,-4.713,-4.6231,-4.5236,-4.4972,-4.4332,-4.3455,-4.3227,-4.3296,-4.3492,-4.354,-4.3312,-4.3091,-4.2855,-4.2656,-4.2374,-4.2097,-4.1824,-4.1388,-4.0796,-4.0676,-4.0753,-4.0581,-4.0321,-5.6329,-5.6456,-5.6093,-5.5922,-5.5774,-5.5376,-5.5607,-5.6037,-5.6061,-5.6712,-5.7739,-5.8165,-5.8643,-5.9121,-5.9205,-5.9205,-5.9205,-5.9205,-5.9205,-5.9205,-5.9205,-5.9267,-5.9329,-5.9267,-5.9329,-5.9267,-5.9142,-5.8836,-5.8569,-5.8446,-5.8231,-5.794,-5.7603,-5.7547,-5.7748,-5.72,-5.7186,-5.7138,-5.6966,-5.6901,-5.7015,-5.6781,-5.6348,-5.6237,-5.6099,-5.5787,-5.5474,-5.5536,-5.5736,-5.5966,-5.568,-5.5595,-5.5452,-5.4998,-5.4516,-5.426,-5.4089,-5.3042,-5.144,-5.1192,-5.0438,-4.969,-4.9727,-5.0653,-5.1627,-5.2016,-5.2323,-5.2715,-5.224,-5.1878,-5.16,-5.135,-5.1238,-5.1211,-5.1155,-5.1155,-5.0989,-5.0989,-5.0934,-5.0711,-5.046,-5.001,-4.9697,-4.9412,-4.9068,-4.8827,-4.8831,-4.8976,-4.9172,-4.9307,-4.9143,-4.8797,-4.8143,-4.7357,-4.6301,-4.5572,-4.5055,-4.4192,-4.3235,-4.3355,-4.3755,-4.3735,-4.3583,-4.3325,-4.3051,-4.2846,-4.257,-4.2178,-4.181,-4.1556,-4.1388,-4.1223,-4.1033,-4.0819,-4.071,-5.4616,-5.4974,-5.4713,-5.4667,-5.4639,-5.452,-5.5058,-5.5945,-5.5987,-5.6748,-5.7802,-5.8227,-5.8625,-5.8996,-5.9017,-5.8955,-5.9233,-5.908,-5.9142,-5.9142,-5.9205,-5.9205,-5.9205,-5.9205,-5.9142,-5.908,-5.8892,-5.8676,-5.8502,-5.8376,-5.8339,-5.8379,-5.816,-5.8053,-5.8034,-5.7715,-5.7448,-5.7312,-5.6962,-5.6928,-5.7158,-5.6897,-5.6723,-5.6725,-5.6816,-5.6762,-5.6389,-5.6449,-5.6623,-5.6623,-5.6594,-5.6423,-5.6137,-5.5737,-5.5253,-5.4995,-5.4739,-5.3834,-5.2653,-5.2095,-5.1314,-5.0735,-5.0655,-5.1571,-5.2296,-5.2658,-5.2883,-5.3416,-5.2911,-5.2519,-5.2324,-5.1905,-5.171,-5.157,-5.1486,-5.1486,-5.1486,-5.1376,-5.1155,-5.085,-5.0628,-5.0516,-5.0179,-4.998,-4.9667,-4.9236,-4.9128,-4.9179,-4.9449,-4.9801,-4.9453,-4.9132,-4.8752,-4.7995,-4.6882,-4.6059,-4.554,-4.4984,-4.3995,-4.3693,-4.4241,-4.4184,-4.3983,-4.3716,-4.3443,-4.3082,-4.2852,-4.2299,-4.1794,-4.1661,-4.1542,-4.1392,-4.1158,-4.1055,-4.1124,-5.3679,-5.3794,-5.4369,-5.4699,-5.4849,-5.4373,-5.4851,-5.5876,-5.5887,-5.6438,-5.7439,-5.7965,-5.8592,-5.8892,-5.8641,-5.8641,-5.9142,-5.8892,-5.8836,-5.8961,-5.9205,-5.9058,-5.894,-5.8877,-5.8989,-5.8711,-5.855,-5.8388,-5.8325,-5.8179,-5.8376,-5.8592,-5.8563,-5.8581,-5.8377,-5.7976,-5.7597,-5.7426,-5.7131,-5.7158,-5.7274,-5.7216,-5.7187,-5.7187,-5.7274,-5.7218,-5.7189,-5.7105,-5.7078,-5.7078,-5.6849,-5.6736,-5.6308,-5.5994,-5.5595,-5.5223,-5.4995,-5.4317,-5.3641,-5.3023,-5.2379,-5.1766,-5.1706,-5.2317,-5.3106,-5.2319,-5.2573,-5.367,-5.3472,-5.2883,-5.2631,-5.2407,-5.2237,-5.1901,-5.176,-5.176,-5.1706,-5.1596,-5.1376,-5.1017,-5.0906,-5.085,-5.0683,-5.0431,-4.9867,-4.9438,-4.9711,-4.9785,-4.9947,-5.0141,-4.967,-4.9296,-4.9139,-4.8387,-4.7218,-4.6463,-4.5936,-4.553,-4.4819,-4.4779,-4.4975,-4.4792,-4.4674,-4.426,-4.4073,-4.3529,-4.3048,-4.254,-4.2172,-4.1906,-4.1719,-4.1655,-4.1723,-4.1666,-4.1694,-5.3592,-5.3592,-5.3921,-5.4014,-5.4134,-5.3894,-5.4561,-5.5661,-5.5538,-5.6094,-5.7314,-5.7922,-5.8325,-5.8451,-5.8388,-5.8325,-5.8578,-5.8451,-5.8292,-5.8335,-5.8488,-5.8292,-5.8181,-5.8292,-5.8537,-5.8028,-5.7977,-5.8071,-5.7944,-5.7944,-5.8135,-5.8388,-5.8767,-5.8625,-5.8344,-5.7894,-5.757,-5.7453,-5.7303,-5.7303,-5.7303,-5.7303,-5.7303,-5.7303,-5.7303,-5.7303,-5.7247,-5.7134,-5.7078,-5.6934,-5.6562,-5.6249,-5.5965,-5.5594,-5.5225,-5.4969,-5.4856,-5.4686,-5.4176,-5.3585,-5.3048,-5.2903,-5.267,-5.2952,-5.3949,-5.3438,-5.3919,-5.443,-5.4346,-5.3584,-5.3472,-5.3161,-5.2765,-5.2285,-5.2059,-5.2059,-5.2033,-5.1869,-5.1706,-5.1348,-5.1348,-5.1348,-5.1155,-5.0878,-5.0206,-4.9664,-5.0105,-5.0398,-5.0488,-5.0359,-4.9835,-4.933,-4.9146,-4.8904,-4.7782,-4.7018,-4.6301,-4.5994,-4.5707,-4.5594,-4.5662,-4.5855,-4.5658,-4.5206,-4.4587,-4.3946,-4.3418,-4.2915,-4.2506,-4.2148,-4.2066,-4.2134,-4.2184,-4.2279,-4.2486,-5.3592,-5.3592,-5.3592,-5.3652,-5.3713,-5.3652,-5.4284,-5.5258,-5.4924,-5.5463,-5.6754,-5.733,-5.7795,-5.7914,-5.7889,-5.8071,-5.8135,-5.8079,-5.7721,-5.7736,-5.7841,-5.7557,-5.7335,-5.7363,-5.7723,-5.7409,-5.7512,-5.7605,-5.7752,-5.7688,-5.8007,-5.8325,-5.8459,-5.832,-5.7889,-5.7412,-5.7139,-5.725,-5.7303,-5.7303,-5.7303,-5.7303,-5.7191,-5.7191,-5.7276,-5.7247,-5.7134,-5.7021,-5.6936,-5.6708,-5.6307,-5.5737,-5.531,-5.4912,-5.4486,-5.4403,-5.4488,-5.4714,-5.4232,-5.4002,-5.3827,-5.3878,-5.354,-5.4111,-5.4626,-5.437,-5.4205,-5.5339,-5.4969,-5.4457,-5.4062,-5.358,-5.3124,-5.2641,-5.2386,-5.2358,-5.2304,-5.2195,-5.195,-5.1732,-5.1706,-5.157,-5.1433,-5.1096,-5.0751,-5.0209,-5.0269,-5.0552,-5.0664,-5.0458,-4.9955,-4.9475,-4.9075,-4.8832,-4.8453,-4.7541,-4.6737,-4.6968,-4.6642,-4.6201,-4.6241,-4.6431,-4.6269,-4.5621,-4.4952,-4.4365,-4.3796,-4.3322,-4.2818,-4.2339,-4.2436,-4.2578,-4.289,-4.3009,-4.351,-5.3619,-5.3592,-5.3592,-5.3773,-5.3954,-5.3713,-5.3972,-5.463,-5.4348,-5.4681,-5.5527,-5.6097,-5.674,-5.7166,-5.7177,-5.7432,-5.7797,-5.7679,-5.7349,-5.7126,-5.7169,-5.7204,-5.6948,-5.6865,-5.7161,-5.7523,-5.7578,-5.7578,-5.7688,-5.7752,-5.8135,-5.8333,-5.8285,-5.8063,-5.7467,-5.6759,-5.6766,-5.7191,-5.7247,-5.7191,-5.7191,-5.7191,-5.7021,-5.6964,-5.7163,-5.7134,-5.6993,-5.6851,-5.6823,-5.6708,-5.6137,-5.5709,-5.5536,-5.5251,-5.4797,-5.44,-5.4345,-5.4317,-5.4176,-5.4677,-5.4871,-5.484,-5.4472,-5.4736,-5.4799,-5.446,-5.4205,-5.5424,-5.5026,-5.4345,-5.3976,-5.3803,-5.3457,-5.3083,-5.2852,-5.2662,-5.2608,-5.2556,-5.2396,-5.1982,-5.1653,-5.1488,-5.1457,-5.1363,-5.118,-5.0887,-5.069,-5.0698,-5.0916,-5.0638,-5.0266,-4.9534,-4.9108,-4.8989,-4.8629,-4.7766,-4.7308,-4.7589,-4.7557,-4.7059,-4.6785,-4.6929,-4.6558,-4.5966,-4.5382,-4.4793,-4.4229,-4.3712,-4.3264,-4.2801,-4.2949,-4.3092,-4.3383,-4.3901,-4.4453,-5.3972,-5.3592,-5.3592,-5.3652,-5.3773,-5.3652,-5.3944,-5.4426,-5.4556,-5.4539,-5.461,-5.5096,-5.5826,-5.6296,-5.636,-5.6595,-5.7305,-5.6459,-5.6077,-5.6112,-5.6272,-5.5881,-5.5799,-5.6272,-5.6648,-5.6931,-5.7168,-5.755,-5.7688,-5.7825,-5.8043,-5.827,-5.8015,-5.7858,-5.7559,-5.7071,-5.685,-5.6709,-5.668,-5.668,-5.6737,-5.6737,-5.668,-5.6566,-5.6851,-5.6993,-5.6823,-5.6709,-5.6566,-5.6337,-5.5709,-5.5112,-5.4941,-5.4685,-5.4229,-5.4232,-5.4347,-5.5253,-5.5481,-5.5822,-5.5791,-5.5643,-5.5353,-5.5472,-5.5993,-5.5136,-5.5136,-5.5223,-5.4997,-5.4482,-5.4291,-5.4278,-5.3992,-5.3442,-5.3131,-5.2975,-5.2923,-5.2928,-5.2792,-5.2235,-5.1793,-5.1543,-5.1453,-5.1336,-5.1238,-5.1084,-5.0829,-5.1255,-5.1502,-5.1103,-5.0662,-4.9811,-4.9245,-4.918,-4.8811,-4.7929,-4.7778,-4.8247,-4.815,-4.7758,-4.7606,-4.7439,-4.7032,-4.6488,-4.5854,-4.5159,-4.4515,-4.3897,-4.3612,-4.3374,-4.3752,-4.4059,-4.4402,-4.4949,-4.5681,-5.446,-5.3917,-5.389,-5.3782,-5.3619,-5.3592,-5.3714,-5.3909,-5.4011,-5.394,-5.3905,-5.4485,-5.5356,-5.5844,-5.5943,-5.598,-5.6739,-5.5772,-5.5103,-5.5138,-5.5146,-5.5154,-5.5317,-5.5597,-5.6232,-5.6514,-5.7032,-5.7414,-5.7661,-5.785,-5.7791,-5.7675,-5.7577,-5.7266,-5.7101,-5.6804,-5.6874,-5.6794,-5.6766,-5.6451,-5.648,-5.6423,-5.6337,-5.6423,-5.6595,-5.6823,-5.6595,-5.6451,-5.6223,-5.568,-5.4998,-5.4234,-5.4092,-5.3979,-5.3553,-5.3782,-5.4318,-5.5282,-5.5879,-5.6165,-5.6108,-5.6304,-5.5926,-5.61,-5.6479,-5.5765,-5.5335,-5.5165,-5.4993,-5.461,-5.4281,-5.4357,-5.4359,-5.3809,-5.3703,-5.3573,-5.3325,-5.3328,-5.3019,-5.2461,-5.1933,-5.1709,-5.1368,-5.1336,-5.1217,-5.1122,-5.0972,-5.1449,-5.1868,-5.1496,-5.0914,-4.995,-4.9298,-4.9206,-4.8785,-4.8099,-4.8189,-4.8794,-4.8517,-4.7958,-4.7981,-4.7739,-4.7332,-4.6914,-4.6172,-4.5357,-4.4603,-4.412,-4.4418,-4.4707,-4.5125,-4.5348,-4.5497,-4.6029,-4.6745,-5.5057,-5.4514,-5.4487,-5.4134,-5.3646,-5.3673,-5.3369,-5.2703,-5.2783,-5.2944,-5.3144,-5.436,-5.5139,-5.5751,-5.6006,-5.6133,-5.6052,-5.5231,-5.4754,-5.4437,-5.4233,-5.4511,-5.4797,-5.5003,-5.5762,-5.6568,-5.7141,-5.7414,-5.767,-5.7476,-5.7238,-5.6987,-5.6932,-5.6753,-5.6632,-5.6564,-5.6694,-5.6471,-5.6276,-5.6077,-5.6049,-5.6222,-5.6135,-5.6135,-5.6365,-5.6423,-5.6308,-5.6164,-5.5823,-5.531,-5.4713,-5.4121,-5.3809,-5.3809,-5.3415,-5.3445,-5.3946,-5.4935,-5.5732,-5.5961,-5.6308,-5.6537,-5.648,-5.648,-5.6394,-5.6166,-5.568,-5.5252,-5.4939,-5.4412,-5.3992,-5.4294,-5.4589,-5.4448,-5.4394,-5.4117,-5.3837,-5.3528,-5.3135,-5.2659,-5.2101,-5.1736,-5.1283,-5.1137,-5.1189,-5.0797,-5.0675,-5.091,-5.1299,-5.1636,-5.0956,-4.999,-4.9469,-4.9199,-4.8759,-4.8158,-4.8575,-4.9158,-4.8319,-4.7803,-4.7933,-4.8103,-4.7735,-4.7234,-4.6392,-4.5712,-4.5387,-4.5478,-4.5776,-4.6151,-4.6425,-4.6532,-4.6637,-4.7028,-4.7566,-5.5437,-5.4514,-5.4487,-5.4134,-5.37,-5.4053,-5.3754,-5.3117,-5.3566,-5.3724,-5.3422,-5.3853,-5.4666,-5.5301,-5.4907,-5.5303,-5.5087,-5.4566,-5.4109,-5.3751,-5.3404,-5.3769,-5.4189,-5.4664,-5.5519,-5.6396,-5.7059,-5.7296,-5.7469,-5.7185,-5.6776,-5.6609,-5.6209,-5.6221,-5.621,-5.6108,-5.581,-5.5594,-5.5463,-5.5582,-5.5613,-5.5729,-5.5671,-5.5845,-5.6077,-5.6163,-5.6077,-5.6077,-5.5679,-5.5026,-5.4488,-5.4092,-5.4345,-5.4177,-5.3951,-5.4739,-5.5044,-5.5355,-5.5584,-5.5874,-5.6135,-5.6537,-5.6652,-5.6766,-5.6709,-5.6394,-5.5909,-5.5396,-5.4998,-5.451,-5.4247,-5.4478,-5.4624,-5.457,-5.4601,-5.4516,-5.4175,-5.3724,-5.333,-5.2769,-5.2264,-5.1899,-5.1443,-5.1217,-5.1156,-5.0631,-5.0351,-5.0532,-5.0757,-5.1096,-5.091,-4.9943,-4.9581,-4.9311,-4.8845,-4.8328,-4.8928,-4.9306,-4.8528,-4.8212,-4.8863,-4.8949,-4.8341,-4.7725,-4.7101,-4.6753,-4.648,-4.6649,-4.6923,-4.731,-4.7569,-4.7678,-4.7858,-4.8232,-4.8619,-5.6088,-5.5247,-5.5193,-5.4867,-5.4487,-5.4948,-5.4743,-5.4117,-5.4217,-5.402,-5.3894,-5.4023,-5.4432,-5.4938,-5.4556,-5.4512,-5.4826,-5.3575,-5.2978,-5.3093,-5.2713,-5.3281,-5.3868,-5.4396,-5.524,-5.6142,-5.6768,-5.6968,-5.6986,-5.6456,-5.5929,-5.5657,-5.538,-5.5502,-5.5431,-5.5006,-5.4578,-5.4598,-5.4671,-5.4908,-5.5085,-5.532,-5.5437,-5.5554,-5.5816,-5.5874,-5.5874,-5.5932,-5.5479,-5.4714,-5.4064,-5.3895,-5.4063,-5.3923,-5.4543,-5.5157,-5.5236,-5.5323,-5.5496,-5.5671,-5.6019,-5.6279,-5.6595,-5.6709,-5.6709,-5.6537,-5.5937,-5.5367,-5.5026,-5.4714,-5.4686,-5.4601,-5.4545,-5.4488,-5.4626,-5.4814,-5.4443,-5.399,-5.3428,-5.284,-5.2446,-5.2136,-5.1823,-5.1571,-5.1071,-5.0327,-5.0027,-5.0104,-5.0327,-5.0584,-5.0459,-4.9778,-4.9548,-4.9396,-4.8878,-4.8551,-4.9109,-4.9421,-4.9125,-4.904,-4.9812,-4.9558,-4.8798,-4.8316,-4.7947,-4.7622,-4.7449,-4.7656,-4.7905,-4.8347,-4.8705,-4.9022,-4.9139,-4.933,-4.9717,-5.6821,-5.6251,-5.6251,-5.579,-5.5518,-5.5952,-5.5871,-5.532,-5.4556,-5.4244,-5.442,-5.4373,-5.4527,-5.4681,-5.4413,-5.4092,-5.3958,-5.2926,-5.243,-5.2553,-5.2271,-5.2633,-5.3449,-5.4046,-5.471,-5.5691,-5.626,-5.6269,-5.597,-5.5523,-5.5005,-5.4516,-5.4358,-5.4381,-5.4468,-5.4112,-5.3942,-5.4069,-5.4433,-5.479,-5.4967,-5.5203,-5.5437,-5.5496,-5.5671,-5.5787,-5.5671,-5.5474,-5.528,-5.4233,-5.3613,-5.3388,-5.3276,-5.3752,-5.4592,-5.493,-5.5012,-5.5096,-5.5327,-5.5528,-5.5961,-5.625,-5.648,-5.6652,-5.6709,-5.6595,-5.6023,-5.5566,-5.5223,-5.5053,-5.4969,-5.4997,-5.5025,-5.5025,-5.5076,-5.5124,-5.4923,-5.4321,-5.3543,-5.3014,-5.2599,-5.226,-5.1738,-5.1401,-5.0854,-5.0084,-4.981,-4.9891,-5.0017,-5.0223,-5.002,-4.9717,-4.9587,-4.9357,-4.8957,-4.8786,-4.9244,-4.9429,-4.9343,-4.9693,-5.0281,-4.9914,-4.9204,-4.8962,-4.8768,-4.8551,-4.8372,-4.861,-4.8843,-4.9315,-4.9784,-5.0288,-5.0456,-5.0387,-5.0259,-5.6848,-5.6251,-5.5817,-5.5518,-5.5518,-5.6034,-5.598,-5.541,-5.5212,-5.4907,-5.4727,-5.4474,-5.4293,-5.4313,-5.4083,-5.3815,-5.3361,-5.2696,-5.2395,-5.2183,-5.1934,-5.2173,-5.2908,-5.3406,-5.4119,-5.4824,-5.5247,-5.5437,-5.5119,-5.4719,-5.4372,-5.3915,-5.3773,-5.3833,-5.4014,-5.3713,-5.3713,-5.3894,-5.4134,-5.4493,-5.4699,-5.4817,-5.4936,-5.5203,-5.5409,-5.5379,-5.5379,-5.5468,-5.4823,-5.3922,-5.3499,-5.2994,-5.2519,-5.3723,-5.4201,-5.4259,-5.451,-5.4708,-5.4906,-5.5276,-5.5735,-5.6222,-5.648,-5.6737,-5.6766,-5.6537,-5.6251,-5.5849,-5.5563,-5.5392,-5.5335,-5.5448,-5.5475,-5.5474,-5.5442,-5.5381,-5.532,-5.4446,-5.3626,-5.3152,-5.277,-5.228,-5.1758,-5.1183,-5.0553,-5.0254,-5.0008,-4.998,-4.9951,-5.0044,-4.9952,-4.964,-4.9552,-4.9323,-4.889,-4.9159,-4.9792,-4.9827,-4.9759,-5.025,-5.0839,-5.0421,-4.9951,-4.9875,-4.9657,-4.9389,-4.9236,-4.9336,-4.9696,-5.0124,-5.0406,-5.0714,-5.1028,-5.1036,-5.0769,-5.6984,-5.6658,-5.6332,-5.6197,-5.6224,-5.6278,-5.6115,-5.5762,-5.5247,-5.4816,-5.4477,-5.4136,-5.384,-5.3608,-5.3432,-5.3219,-5.2872,-5.2403,-5.2059,-5.1783,-5.1836,-5.197,-5.2368,-5.2828,-5.3343,-5.3957,-5.4511,-5.46,-5.446,-5.4134,-5.3836,-5.3619,-5.3592,-5.3652,-5.3894,-5.3713,-5.3652,-5.3833,-5.3894,-5.4074,-5.4401,-5.452,-5.4623,-5.4862,-5.4918,-5.4911,-5.4995,-5.5057,-5.4555,-5.3884,-5.3516,-5.3127,-5.2905,-5.3663,-5.4057,-5.406,-5.4117,-5.4175,-5.4373,-5.4798,-5.5395,-5.5823,-5.5966,-5.5966,-5.6451,-5.6308,-5.6365,-5.6021,-5.5644,-5.5415,-5.5821,-5.5935,-5.5848,-5.5818,-5.5615,-5.5468,-5.5026,-5.4259,-5.3757,-5.3468,-5.3038,-5.2642,-5.2123,-5.1465,-5.0974,-5.0568,-5.0348,-5.0232,-5.0175,-5.017,-5.0002,-4.9916,-4.9943,-4.9425,-4.8875,-4.9558,-5.051,-5.0465,-5.0298,-5.0669,-5.1194,-5.0942,-5.0715,-5.0461,-5.0206,-5.0142,-5.0014,-5.0052,-5.0265,-5.0509,-5.0786,-5.1078,-5.1314,-5.1587,-5.1321,-5.7174,-5.7174,-5.7146,-5.7174,-5.7119,-5.6658,-5.6359,-5.6115,-5.522,-5.4403,-5.3984,-5.3673,-5.3148,-5.2713,-5.2569,-5.2322,-5.2181,-5.2322,-5.1967,-5.1842,-5.1842,-5.2108,-5.2243,-5.2315,-5.2864,-5.3361,-5.3858,-5.4194,-5.427,-5.3944,-5.37,-5.3619,-5.3592,-5.3592,-5.3592,-5.3592,-5.3652,-5.3652,-5.3685,-5.3752,-5.4019,-5.4314,-5.4363,-5.4311,-5.4366,-5.4552,-5.4607,-5.4556,-5.428,-5.392,-5.3619,-5.3259,-5.3178,-5.3573,-5.38,-5.3887,-5.3809,-5.3894,-5.4007,-5.4148,-5.4743,-5.5112,-5.5112,-5.5567,-5.6251,-5.648,-5.6595,-5.6423,-5.6019,-5.5961,-5.6337,-5.6451,-5.6337,-5.6049,-5.5817,-5.5351,-5.4671,-5.4074,-5.3833,-5.3565,-5.3315,-5.2893,-5.2459,-5.1856,-5.1477,-5.1041,-5.082,-5.0706,-5.0646,-5.0751,-5.0745,-5.0691,-5.0655,-5.009,-4.9391,-5.0068,-5.1309,-5.1496,-5.1414,-5.1478,-5.1471,-5.122,-5.0968,-5.0778,-5.0614,-5.0639,-5.0666,-5.0704,-5.0881,-5.1158,-5.1296,-5.1601,-5.1715,-5.185,-5.1729,-5.7174,-5.7174,-5.7174,-5.7174,-5.7146,-5.7038,-5.6766,-5.6305,-5.6034,-5.515,-5.3869,-5.353,-5.3174,-5.2615,-5.2607,-5.2448,-5.226,-5.2329,-5.2439,-5.2391,-5.2197,-5.2502,-5.247,-5.2164,-5.2598,-5.2986,-5.3436,-5.3687,-5.3883,-5.3694,-5.3592,-5.3592,-5.3592,-5.3592,-5.3592,-5.3592,-5.3592,-5.3592,-5.3537,-5.3577,-5.3512,-5.3773,-5.4107,-5.4199,-5.4318,-5.4401,-5.452,-5.4817,-5.4547,-5.4213,-5.3932,-5.3511,-5.3315,-5.3513,-5.3798,-5.3717,-5.3611,-5.3894,-5.3978,-5.4205,-5.4799,-5.5908,-5.6107,-5.6562,-5.7105,-5.7389,-5.7445,-5.7389,-5.7107,-5.6908,-5.7078,-5.7021,-5.6908,-5.6451,-5.6106,-5.5057,-5.4134,-5.3894,-5.3713,-5.3582,-5.3375,-5.317,-5.2986,-5.2551,-5.2281,-5.1923,-5.1809,-5.1722,-5.161,-5.1607,-5.1435,-5.1438,-5.1413,-5.1388,-5.1108,-5.1169,-5.1991,-5.2269,-5.2339,-5.1989,-5.1705,-5.1471,-5.1194,-5.1064,-5.112,-5.1186,-5.1278,-5.1317,-5.1768,-5.1998,-5.2035,-5.2134,-5.2174,-5.2211,-5.2169]},{"header":{"parameterUnit":"m.s-1","parameterCategory":1,"la1":31.0,"la2":29.5877,"lo1":-88.7671,"lo2":-86.6584,"dy":0.0162,"dx":0.0185,"nx":115,"ny":88,"refTime":"2023-06-14T06:00:00:Z","depth":0,"parameterNumber":3,"parameterNumberName":"V-component_of_WINDS"},"data":[0.0,0.0,0.0,0.0,0.0,0.0,0.0,0.0,0.0,0.0,0.0,0.0,0.0,0.0,0.0,0.0,0.0,0.0,0.0,0.0,0.0,0.0,0.0,0.0,0.0,0.0,0.0,0.0,0.0,0.0,0.0,0.0,0.0,0.0,0.0,0.0,0.0,0.0,0.0,0.0,0.0,0.0,0.0,0.0,0.0,0.0,0.0,0.0,0.0,0.0,0.0,0.0,0.0,0.0,0.0,0.0,0.0,0.0,0.0,0.0,0.0,0.0,0.0,0.0,0.0,0.0,0.0,0.0,0.0,0.0,0.0,0.0,0.0,0.0,0.0,0.0,0.0,0.0,0.0,0.0,0.0,0.0,0.0,0.0,0.0,0.0,0.0,0.0,0.0,0.0,0.0,0.0,0.0,0.0,0.0,0.0,0.0,0.0,0.0,0.0,0.0,0.0,0.0,0.0,0.0,0.0,0.0,0.0,0.0,0.0,0.0,0.0,0.0,0.0,0.0,0.0,0.0,0.0,0.0,0.0,0.0,0.0,0.0,0.0,0.0,0.0,0.0,0.0,0.0,0.0,0.0,0.0,0.0,0.0,0.0,0.0,0.0,0.0,0.0,0.0,0.0,0.0,0.0,0.0,0.0,0.0,0.0,0.0,0.0,0.0,0.0,0.0,0.0,0.0,0.0,0.0,0.0,0.0,0.0,0.0,0.0,0.0,0.0,0.0,0.0,0.0,0.0,0.0,0.0,0.0,0.0,0.0,0.0,0.0,0.0,0.0,0.0,0.0,0.0,0.0,0.0,0.0,0.0,0.0,0.0,0.0,0.0,0.0,0.0,0.0,0.0,0.0,0.0,0.0,0.0,0.0,0.0,0.0,0.0,0.0,0.0,0.0,0.0,0.0,0.0,0.0,0.0,0.0,0.0,0.0,0.0,0.0,0.0,0.0,0.0,0.0,0.0,0.0,0.0,0.0,0.0,0.0,0.0,0.0,0.0,0.0,0.0,0.0,0.0,0.0,0.0,0.0,0.0,0.0,0.0,0.0,0.0,0.0,0.0,0.0,0.0,0.0,0.0,0.0,0.0,0.0,0.0,0.0,0.0,0.0,0.0,0.0,0.0,0.0,0.0,0.0,0.0,0.0,0.0,0.0,0.0,0.0,0.0,0.0,0.0,0.0,0.0,0.0,0.0,0.0,0.0,0.0,0.0,0.0,0.0,0.0,0.0,0.0,0.0,0.0,0.0,0.0,0.0,0.0,0.0,0.0,0.0,0.0,0.0,0.0,0.0,0.0,0.0,0.0,0.0,0.0,0.0,0.0,0.0,0.0,0.0,0.0,0.0,0.0,0.0,0.0,0.0,0.0,0.0,0.0,0.0,0.0,0.0,0.0,0.0,0.0,0.0,0.0,0.0,0.0,0.0,0.0,0.0,0.0,0.0,0.0,0.0,0.0,0.0,0.0,0.0,0.0,0.0,0.0,0.0,0.0,0.0,0.0,0.0,0.0,0.0,0.0,0.0,0.0,0.0,0.0,0.0,0.0,0.0,0.0,0.0,0.0,0.0,0.0,0.0,0.0,0.0,0.0,0.0,0.0,0.0,0.0,0.0,0.0,0.0,0.0,0.0,0.0,0.0,0.0,0.0,0.0,0.0,0.0,0.0,0.0,0.0,0.0,0.0,0.0,0.0,0.0,0.0,0.0,0.0,0.0,0.0,0.0,0.0,0.0,0.0,0.0,0.0,0.0,0.0,0.0,0.0,0.0,0.0,0.0,0.0,0.0,0.0,0.0,0.0,0.0,0.0,0.0,0.0,0.0,0.0,0.0,0.0,0.0,0.0,0.0,0.0,0.0,0.0,0.0,0.0,0.0,0.0,0.0,0.0,0.0,0.0,0.0,0.0,0.0,0.0,0.0,0.0,0.0,0.0,0.0,0.0,0.0,0.0,0.0,0.0,0.0,0.0,0.0,0.0,0.0,0.0,0.0,0.0,0.0,0.0,0.0,0.0,0.0,0.0,0.0,0.0,0.0,0.0,0.0,0.0,0.0,0.0,0.0,0.0,0.0,0.0,0.0,0.0,0.0,0.0,0.0,0.0,0.0,0.0,0.0,0.0,0.0,0.0,0.0,0.0,0.0,0.0,0.0,0.0,0.0,0.0,0.0,0.0,0.0,0.0,0.0,0.0,0.0,0.0,0.0,0.0,0.0,0.0,0.0,0.0,0.0,0.0,0.0,0.0,0.0,0.0,0.0,0.0,0.0,0.0,0.0,0.0,0.0,0.0,0.0,0.0,0.0,0.0,0.0,0.0,0.0,0.0,0.0,0.0,0.0,0.0,0.0,0.0,0.0,0.0,0.0,0.0,0.0,0.0,0.0,0.0,0.0,0.0,0.0,0.0,0.0,0.0,0.0,0.0,0.0,0.0,0.0,0.0,0.0,0.0,0.0,0.0,0.0,0.0,0.0,0.0,0.0,0.0,0.0,0.0,0.0,0.0,0.0,0.0,0.0,0.0,0.0,0.0,0.0,0.0,0.0,0.0,0.0,0.0,0.0,0.0,0.0,0.0,0.0,0.0,0.0,0.0,0.0,0.0,0.0,0.0,0.0,0.0,0.0,0.0,0.0,0.0,0.0,0.0,0.0,0.0,0.0,0.0,0.0,0.0,0.0,0.0,0.0,0.0,0.0,0.0,0.0,0.0,0.0,0.0,0.0,0.0,0.0,0.0,0.0,0.0,0.0,0.0,0.0,0.0,0.0,0.0,0.0,0.0,0.0,0.0,0.0,0.0,0.0,0.0,0.0,0.0,0.0,0.0,0.0,0.0,0.0,0.0,0.0,0.0,0.0,0.0,0.0,0.0,0.0,0.0,0.0,0.0,0.0,0.0,0.0,0.0,0.0,0.0,0.0,0.0,0.0,0.0,0.0,0.0,0.0,0.0,0.0,0.0,0.0,0.0,0.0,0.0,0.0,0.0,0.0,0.0,0.0,0.0,0.0,0.0,0.0,0.0,0.0,0.0,0.0,0.0,0.0,0.0,0.0,0.0,0.0,0.0,0.0,0.0,0.0,0.0,0.0,0.0,0.0,0.0,0.0,0.0,0.0,0.0,0.0,0.0,0.0,0.0,0.0,0.0,0.0,0.0,0.0,0.0,0.0,0.0,0.0,0.0,0.0,0.0,0.0,0.0,0.0,0.0,0.0,0.0,0.0,0.0,0.0,0.0,0.0,0.0,0.0,0.0,0.0,0.0,0.0,0.0,0.0,0.0,0.0,0.0,0.0,0.0,0.0,0.0,0.0,0.0,0.0,0.0,0.0,0.0,0.0,0.0,0.0,0.0,0.0,0.0,0.0,0.0,0.0,0.0,0.0,0.0,0.0,0.0,0.0,0.0,0.0,0.0,0.0,0.0,0.0,0.0,0.0,0.0,0.0,0.0,0.0,0.0,0.0,0.0,0.0,0.0,0.0,0.0,0.0,0.0,0.0,0.0,0.0,0.0,0.0,0.0,0.0,0.0,0.0,0.0,0.0,0.0,0.0,0.0,0.0,0.0,0.0,0.0,0.0,0.0,0.0,0.0,0.0,0.0,0.0,0.0,0.0,0.0,0.0,0.0,0.0,0.0,0.0,0.0,0.0,0.0,0.0,0.0,0.0,0.0,0.0,0.0,0.0,0.0,0.0,0.0,0.0,0.0,0.0,0.0,0.0,0.0,0.0,0.0,0.0,0.0,0.0,0.0,0.0,0.0,0.0,0.0,0.0,0.0,0.0,0.0,0.0,0.0,0.0,0.0,0.0,0.0,0.0,0.0,0.0,0.0,0.0,0.0,0.0,0.0,0.0,0.0,0.0,0.0,0.0,0.0,0.0,0.0,0.0,0.0,0.0,0.0,0.0,0.0,0.0,0.0,0.0,0.0,0.0,0.0,0.0,0.0,0.0,0.0,0.0,0.0,0.0,0.0,0.0,0.0,0.0,0.0,0.0,0.0,0.0,0.0,0.0,0.0,0.0,0.0,0.0,0.0,0.0,0.0,0.0,0.0,0.0,0.0,0.0,0.0,0.0,0.0,0.0,0.0,0.0,0.0,0.0,0.0,0.0,0.0,0.0,0.0,0.0,0.0,0.0,0.0,0.0,0.0,0.0,0.0,0.0,0.0,0.0,0.0,0.0,0.0,0.0,0.0,0.0,0.0,0.0,0.0,0.0,0.0,0.0,0.0,0.0,0.0,0.0,0.0,0.0,0.0,0.0,0.0,0.0,0.0,0.0,0.0,0.0,0.0,0.0,-2.1387,0.0,0.0,0.0,0.0,0.0,0.0,0.0,0.0,0.0,0.0,0.0,0.0,0.0,0.0,0.0,0.0,0.0,0.0,0.0,0.0,0.0,0.0,0.0,0.0,0.0,0.0,0.0,0.0,0.0,0.0,0.0,0.0,0.0,0.0,0.0,0.0,0.0,0.0,0.0,0.0,0.0,0.0,0.0,0.0,0.0,0.0,0.0,0.0,0.0,0.0,0.0,0.0,0.0,0.0,0.0,0.0,0.0,0.0,0.0,0.0,0.0,0.0,0.0,0.0,0.0,0.0,0.0,0.0,0.0,0.0,0.0,0.0,0.0,0.0,0.0,0.0,0.0,0.0,0.0,0.0,0.0,0.0,0.0,0.0,0.0,0.0,0.0,0.0,0.0,0.0,0.0,0.0,0.0,0.0,0.0,0.0,0.0,0.0,0.0,0.0,0.0,0.0,0.0,0.0,0.0,0.0,0.0,0.0,0.0,0.0,-1.838,-2.0092,-2.0317,-2.1129,-2.2655,0.0,0.0,0.0,0.0,0.0,0.0,0.0,0.0,0.0,0.0,0.0,0.0,0.0,0.0,0.0,0.0,0.0,0.0,0.0,0.0,0.0,0.0,0.0,0.0,0.0,0.0,0.0,0.0,0.0,0.0,0.0,0.0,0.0,0.0,0.0,0.0,0.0,0.0,0.0,0.0,0.0,0.0,0.0,0.0,0.0,0.0,0.0,0.0,0.0,0.0,0.0,0.0,0.0,0.0,0.0,0.0,0.0,0.0,0.0,0.0,0.0,0.0,0.0,0.0,0.0,0.0,0.0,0.0,0.0,0.0,0.0,0.0,0.0,0.0,0.0,0.0,0.0,0.0,0.0,0.0,0.0,0.0,0.0,0.0,0.0,0.0,0.0,0.0,0.0,0.0,0.0,0.0,0.0,0.0,0.0,0.0,0.0,0.0,0.0,0.0,0.0,0.0,0.0,0.0,0.0,0.0,0.0,0.0,0.0,0.0,0.0,0.0,-2.1346,-2.2266,-2.358,0.0,0.0,0.0,0.0,0.0,0.0,0.0,0.0,0.0,0.0,0.0,0.0,0.0,0.0,0.0,0.0,0.0,0.0,0.0,0.0,0.0,0.0,0.0,0.0,0.0,0.0,0.0,0.0,0.0,0.0,0.0,0.0,0.0,0.0,0.0,0.0,0.0,0.0,0.0,0.0,0.0,0.0,0.0,0.0,0.0,0.0,0.0,0.0,0.0,0.0,0.0,0.0,0.0,0.0,0.0,0.0,0.0,0.0,0.0,0.0,0.0,0.0,0.0,0.0,0.0,0.0,0.0,0.0,0.0,0.0,0.0,0.0,0.0,0.0,0.0,0.0,0.0,0.0,0.0,0.0,0.0,0.0,0.0,0.0,0.0,0.0,0.0,0.0,0.0,0.0,0.0,0.0,0.0,0.0,0.0,0.0,0.0,0.0,0.0,0.0,0.0,0.0,0.0,0.0,0.0,0.0,0.0,0.0,0.0,0.0,-2.0769,-2.1331,-2.2552,0.0,-2.4664,0.0,0.0,0.0,0.0,0.0,0.0,0.0,0.0,0.0,0.0,0.0,0.0,0.0,0.0,0.0,0.0,0.0,0.0,0.0,0.0,0.0,0.0,0.0,0.0,0.0,0.0,0.0,0.0,0.0,0.0,0.0,0.0,0.0,0.0,0.0,0.0,0.0,0.0,0.0,0.0,0.0,0.0,0.0,0.0,0.0,0.0,0.0,0.0,0.0,0.0,0.0,0.0,0.0,0.0,0.0,0.0,0.0,0.0,0.0,0.0,0.0,0.0,0.0,0.0,0.0,0.0,0.0,0.0,0.0,0.0,0.0,0.0,0.0,0.0,0.0,0.0,0.0,0.0,0.0,0.0,0.0,0.0,0.0,0.0,0.0,0.0,0.0,0.0,0.0,0.0,0.0,0.0,0.0,0.0,0.0,0.0,0.0,0.0,0.0,0.0,0.0,0.0,0.0,0.0,0.0,0.0,0.0,0.0,0.0,0.0,-2.1159,-2.2145,-2.3369,-2.4235,0.0,0.0,0.0,0.0,0.0,0.0,0.0,0.0,0.0,0.0,0.0,0.0,0.0,0.0,0.0,0.0,0.0,0.0,0.0,0.0,0.0,0.0,0.0,0.0,0.0,0.0,0.0,0.0,0.0,0.0,0.0,0.0,0.0,0.0,0.0,0.0,0.0,0.0,0.0,0.0,0.0,0.0,0.0,0.0,0.0,0.0,0.0,0.0,0.0,0.0,0.0,0.0,0.0,0.0,0.0,0.0,0.0,0.0,0.0,0.0,0.0,0.0,0.0,0.0,0.0,0.0,0.0,0.0,0.0,0.0,0.0,0.0,0.0,0.0,0.0,0.0,0.0,0.0,0.0,0.0,0.0,0.0,0.0,0.0,0.0,0.0,0.0,0.0,0.0,0.0,0.0,0.0,0.0,0.0,0.0,0.0,0.0,0.0,0.0,0.0,0.0,0.0,0.0,0.0,0.0,0.0,0.0,0.0,0.0,0.0,-2.0808,-2.1913,-2.3236,-2.4164,-2.4684,-2.4726,0.0,0.0,0.0,0.0,0.0,0.0,0.0,0.0,0.0,0.0,0.0,0.0,0.0,0.0,0.0,0.0,0.0,0.0,0.0,0.0,0.0,0.0,0.0,0.0,0.0,0.0,0.0,0.0,0.0,0.0,0.0,0.0,0.0,0.0,0.0,0.0,0.0,0.0,0.0,0.0,0.0,0.0,0.0,0.0,0.0,0.0,0.0,0.0,0.0,0.0,0.0,0.0,0.0,0.0,0.0,0.0,0.0,0.0,0.0,0.0,0.0,0.0,0.0,0.0,0.0,0.0,0.0,0.0,0.0,0.0,0.0,0.0,0.0,0.0,0.0,0.0,0.0,0.0,0.0,0.0,0.0,0.0,0.0,0.0,0.0,0.0,0.0,0.0,0.0,0.0,0.0,0.0,0.0,0.0,0.0,0.0,0.0,0.0,0.0,0.0,0.0,0.0,0.0,0.0,0.0,0.0,0.0,0.0,-2.0874,-2.216,-2.3439,-2.4712,-2.5073,-2.5163,0.0,0.0,0.0,0.0,0.0,0.0,0.0,0.0,0.0,0.0,0.0,0.0,0.0,0.0,0.0,0.0,0.0,0.0,0.0,0.0,0.0,0.0,0.0,0.0,0.0,0.0,0.0,0.0,0.0,0.0,0.0,0.0,0.0,0.0,0.0,0.0,0.0,0.0,0.0,0.0,0.0,0.0,0.0,0.0,0.0,0.0,0.0,0.0,0.0,0.0,0.0,0.0,0.0,0.0,0.0,0.0,0.0,0.0,0.0,0.0,0.0,0.0,0.0,0.0,0.0,0.0,0.0,0.0,0.0,0.0,0.0,0.0,0.0,0.0,0.0,0.0,0.0,0.0,0.0,0.0,0.0,0.0,0.0,0.0,0.0,0.0,0.0,0.0,0.0,0.0,0.0,0.0,0.0,0.0,0.0,0.0,0.0,0.0,0.0,0.0,0.0,0.0,0.0,0.0,0.0,0.0,0.0,0.0,0.0,-2.1727,-2.384,-2.4997,-2.5105,-2.5505,-2.5392,0.0,0.0,0.0,0.0,0.0,0.0,0.0,0.0,0.0,0.0,0.0,0.0,0.0,0.0,0.0,0.0,0.0,0.0,0.0,0.0,0.0,0.0,0.0,0.0,0.0,0.0,0.0,0.0,0.0,0.0,0.0,0.0,0.0,0.0,0.0,0.0,0.0,0.0,0.0,0.0,0.0,0.0,0.0,0.0,0.0,0.0,0.0,0.0,0.0,0.0,0.0,0.0,0.0,0.0,0.0,0.0,0.0,0.0,0.0,0.0,0.0,0.0,0.0,0.0,0.0,0.0,0.0,0.0,0.0,0.0,0.0,0.0,0.0,0.0,0.0,0.0,0.0,0.0,0.0,0.0,0.0,0.0,0.0,0.0,0.0,0.0,0.0,0.0,0.0,0.0,0.0,0.0,0.0,0.0,0.0,0.0,0.0,0.0,0.0,0.0,0.0,0.0,0.0,0.0,0.0,0.0,0.0,0.0,0.0,-2.2857,0.0,-2.5607,-2.5086,-2.5435,-2.517,0.0,0.0,0.0,0.0,0.0,0.0,0.0,0.0,0.0,0.0,0.0,0.0,0.0,0.0,0.0,0.0,0.0,0.0,0.0,0.0,0.0,0.0,0.0,0.0,0.0,0.0,0.0,0.0,0.0,0.0,0.0,0.0,0.0,0.0,0.0,0.0,0.0,0.0,0.0,0.0,0.0,0.0,0.0,0.0,0.0,0.0,0.0,0.0,0.0,0.0,0.0,0.0,0.0,0.0,0.0,0.0,0.0,0.0,0.0,0.0,0.0,0.0,0.0,0.0,0.0,0.0,0.0,0.0,0.0,0.0,0.0,0.0,0.0,0.0,0.0,0.0,0.0,0.0,0.0,0.0,0.0,0.0,0.0,0.0,0.0,0.0,0.0,0.0,0.0,0.0,0.0,0.0,0.0,0.0,0.0,0.0,0.0,0.0,0.0,0.0,0.0,0.0,0.0,0.0,0.0,0.0,0.0,0.0,-2.1513,-2.4287,-2.5073,-2.5291,-2.4784,-2.5059,-2.4612,0.0,0.0,0.0,0.0,0.0,0.0,0.0,0.0,0.0,0.0,0.0,0.0,0.0,0.0,0.0,0.0,0.0,0.0,0.0,0.0,0.0,0.0,0.0,0.0,0.0,0.0,0.0,0.0,0.0,0.0,0.0,0.0,0.0,0.0,0.0,0.0,0.0,0.0,0.0,0.0,0.0,0.0,0.0,0.0,0.0,0.0,0.0,0.0,0.0,0.0,0.0,0.0,0.0,0.0,0.0,0.0,0.0,0.0,0.0,0.0,0.0,0.0,0.0,0.0,0.0,0.0,0.0,0.0,0.0,0.0,0.0,0.0,0.0,0.0,0.0,0.0,0.0,0.0,0.0,0.0,0.0,0.0,0.0,0.0,0.0,0.0,0.0,0.0,0.0,0.0,0.0,0.0,0.0,0.0,0.0,0.0,0.0,0.0,0.0,0.0,0.0,0.0,0.0,0.0,0.0,0.0,0.0,0.0,0.0,-2.5113,-2.5822,-2.6296,-2.6561,-2.6459,-2.5843,0.0,0.0,0.0,0.0,0.0,0.0,0.0,0.0,0.0,0.0,0.0,0.0,0.0,0.0,0.0,0.0,0.0,0.0,0.0,0.0,0.0,0.0,0.0,0.0,0.0,0.0,0.0,0.0,0.0,0.0,0.0,0.0,0.0,0.0,0.0,0.0,0.0,0.0,0.0,0.0,0.0,0.0,0.0,0.0,0.0,0.0,0.0,0.0,0.0,0.0,0.0,0.0,0.0,0.0,0.0,0.0,0.0,0.0,0.0,0.0,0.0,0.0,0.0,0.0,0.0,0.0,0.0,0.0,0.0,0.0,0.0,0.0,0.0,0.0,0.0,0.0,0.0,0.0,0.0,0.0,0.0,0.0,0.0,0.0,0.0,0.0,0.0,0.0,0.0,0.0,0.0,0.0,0.0,0.0,0.0,0.0,0.0,0.0,0.0,0.0,0.0,0.0,0.0,0.0,0.0,0.0,0.0,0.0,0.0,-2.6522,-2.6914,-2.7389,-2.7969,-2.7515,-2.6756,-2.5735,0.0,0.0,0.0,0.0,0.0,0.0,0.0,0.0,0.0,0.0,0.0,0.0,0.0,0.0,0.0,0.0,0.0,0.0,0.0,0.0,0.0,0.0,0.0,0.0,0.0,0.0,0.0,0.0,0.0,0.0,0.0,0.0,0.0,0.0,0.0,0.0,0.0,0.0,0.0,0.0,0.0,0.0,0.0,0.0,0.0,0.0,0.0,0.0,0.0,0.0,0.0,0.0,0.0,0.0,0.0,0.0,0.0,0.0,0.0,0.0,0.0,0.0,0.0,0.0,0.0,0.0,0.0,0.0,0.0,0.0,0.0,0.0,0.0,0.0,0.0,0.0,0.0,0.0,0.0,0.0,0.0,0.0,0.0,0.0,0.0,0.0,0.0,0.0,0.0,0.0,0.0,0.0,0.0,0.0,0.0,0.0,0.0,0.0,0.0,0.0,0.0,0.0,0.0,0.0,0.0,0.0,0.0,0.0,-2.854,-2.8607,-2.8869,-2.9246,-2.846,-2.7579,0.0,0.0,0.0,0.0,0.0,0.0,0.0,0.0,0.0,0.0,0.0,0.0,0.0,0.0,0.0,0.0,0.0,0.0,0.0,0.0,0.0,0.0,0.0,0.0,0.0,0.0,0.0,0.0,0.0,0.0,0.0,0.0,0.0,0.0,0.0,0.0,0.0,0.0,0.0,0.0,0.0,0.0,0.0,0.0,0.0,0.0,0.0,0.0,0.0,0.0,0.0,0.0,0.0,0.0,0.0,0.0,0.0,0.0,0.0,0.0,0.0,0.0,0.0,0.0,0.0,0.0,0.0,0.0,0.0,0.0,0.0,0.0,0.0,0.0,0.0,0.0,0.0,0.0,0.0,0.0,0.0,0.0,0.0,0.0,0.0,0.0,0.0,0.0,0.0,0.0,0.0,0.0,0.0,0.0,0.0,0.0,0.0,0.0,0.0,0.0,0.0,0.0,0.0,0.0,0.0,0.0,0.0,0.0,0.0,-3.056,-3.3608,-3.4344,-3.2471,-3.1651,-3.0431,0.0,0.0,0.0,0.0,0.0,0.0,0.0,0.0,0.0,0.0,0.0,0.0,0.0,0.0,0.0,0.0,0.0,0.0,0.0,0.0,0.0,0.0,0.0,0.0,0.0,0.0,0.0,0.0,0.0,0.0,0.0,0.0,0.0,0.0,0.0,0.0,0.0,0.0,0.0,0.0,0.0,0.0,0.0,0.0,0.0,0.0,0.0,0.0,0.0,0.0,0.0,0.0,0.0,0.0,0.0,0.0,0.0,0.0,0.0,0.0,0.0,0.0,0.0,0.0,0.0,0.0,0.0,0.0,0.0,0.0,0.0,0.0,0.0,0.0,0.0,0.0,0.0,0.0,0.0,0.0,0.0,0.0,0.0,0.0,0.0,0.0,0.0,0.0,0.0,0.0,0.0,0.0,0.0,0.0,0.0,0.0,0.0,0.0,0.0,0.0,0.0,0.0,0.0,0.0,0.0,0.0,0.0,0.0,-3.0413,-3.2619,-3.6839,-3.8429,-3.7095,-3.5502,-3.365,0.0,0.0,0.0,0.0,0.0,0.0,0.0,0.0,0.0,0.0,0.0,0.0,0.0,0.0,0.0,0.0,0.0,0.0,0.0,0.0,0.0,0.0,0.0,0.0,0.0,0.0,0.0,0.0,0.0,0.0,0.0,0.0,0.0,0.0,0.0,0.0,0.0,0.0,0.0,0.0,0.0,0.0,0.0,0.0,0.0,0.0,0.0,0.0,0.0,0.0,0.0,0.0,0.0,0.0,0.0,0.0,0.0,0.0,0.0,0.0,0.0,0.0,0.0,0.0,0.0,0.0,0.0,0.0,0.0,0.0,0.0,0.0,0.0,0.0,0.0,0.0,0.0,0.0,0.0,0.0,0.0,0.0,0.0,0.0,0.0,0.0,0.0,0.0,0.0,0.0,0.0,0.0,0.0,0.0,0.0,0.0,0.0,0.0,0.0,0.0,0.0,0.0,0.0,0.0,0.0,0.0,0.0,0.0,-3.1703,-3.4789,-3.8992,-4.1438,-4.1899,-3.9346,-3.68,0.0,0.0,0.0,0.0,0.0,0.0,0.0,0.0,0.0,0.0,0.0,0.0,0.0,0.0,0.0,0.0,0.0,0.0,0.0,0.0,0.0,0.0,0.0,0.0,0.0,0.0,0.0,0.0,0.0,0.0,0.0,0.0,0.0,0.0,0.0,0.0,0.0,0.0,0.0,0.0,0.0,0.0,0.0,0.0,0.0,0.0,0.0,0.0,0.0,0.0,0.0,0.0,0.0,0.0,0.0,0.0,0.0,0.0,0.0,0.0,0.0,0.0,0.0,0.0,0.0,0.0,0.0,0.0,0.0,0.0,0.0,0.0,0.0,0.0,0.0,0.0,0.0,0.0,0.0,0.0,0.0,0.0,0.0,0.0,0.0,0.0,0.0,0.0,0.0,0.0,0.0,0.0,0.0,0.0,0.0,0.0,0.0,0.0,0.0,0.0,0.0,0.0,0.0,0.0,0.0,0.0,0.0,0.0,-3.4139,-3.6913,-4.1321,-4.3555,-4.335,-4.06,-3.8171,0.0,0.0,0.0,0.0,0.0,0.0,0.0,0.0,0.0,0.0,0.0,0.0,0.0,0.0,0.0,0.0,0.0,0.0,0.0,0.0,0.0,0.0,0.0,0.0,0.0,0.0,0.0,0.0,0.0,0.0,0.0,0.0,0.0,0.0,0.0,0.0,0.0,0.0,0.0,0.0,0.0,0.0,0.0,0.0,0.0,0.0,0.0,0.0,-3.4673,0.0,0.0,0.0,0.0,0.0,0.0,0.0,0.0,0.0,0.0,0.0,0.0,0.0,0.0,0.0,0.0,0.0,0.0,0.0,0.0,0.0,0.0,0.0,0.0,0.0,0.0,0.0,0.0,0.0,0.0,0.0,0.0,0.0,0.0,0.0,0.0,0.0,0.0,0.0,0.0,0.0,0.0,0.0,0.0,0.0,0.0,0.0,0.0,0.0,0.0,0.0,0.0,0.0,0.0,0.0,0.0,0.0,0.0,0.0,-3.5039,-3.8856,-4.235,-4.439,-4.471,-4.296,-4.0736,0.0,0.0,0.0,0.0,0.0,0.0,0.0,0.0,0.0,0.0,0.0,0.0,0.0,0.0,0.0,0.0,0.0,0.0,0.0,0.0,0.0,0.0,0.0,0.0,0.0,0.0,0.0,0.0,0.0,0.0,0.0,0.0,0.0,0.0,0.0,0.0,0.0,0.0,0.0,0.0,0.0,0.0,0.0,0.0,0.0,0.0,0.0,0.0,0.0,0.0,0.0,0.0,0.0,0.0,0.0,0.0,0.0,0.0,0.0,0.0,0.0,0.0,0.0,0.0,0.0,0.0,0.0,0.0,0.0,0.0,0.0,0.0,0.0,0.0,0.0,0.0,0.0,0.0,0.0,0.0,0.0,0.0,0.0,0.0,0.0,0.0,0.0,0.0,0.0,0.0,0.0,0.0,0.0,0.0,0.0,0.0,0.0,0.0,0.0,0.0,0.0,0.0,0.0,0.0,0.0,0.0,0.0,-3.1591,-3.5839,-4.0788,-4.3357,-4.5069,-4.606,-4.5425,-4.3557,-4.0289,0.0,0.0,0.0,0.0,0.0,0.0,0.0,0.0,0.0,0.0,0.0,0.0,0.0,0.0,0.0,0.0,0.0,0.0,0.0,0.0,0.0,0.0,0.0,0.0,0.0,0.0,0.0,0.0,0.0,0.0,0.0,0.0,0.0,0.0,0.0,0.0,0.0,0.0,-2.8262,-3.0413,0.0,0.0,0.0,0.0,0.0,0.0,0.0,0.0,-3.7274,0.0,0.0,0.0,0.0,0.0,0.0,0.0,0.0,0.0,0.0,0.0,0.0,0.0,0.0,0.0,0.0,0.0,0.0,0.0,0.0,0.0,0.0,0.0,0.0,0.0,0.0,0.0,0.0,0.0,0.0,0.0,0.0,0.0,0.0,0.0,0.0,0.0,0.0,0.0,0.0,0.0,0.0,0.0,0.0,0.0,0.0,0.0,0.0,0.0,0.0,0.0,0.0,0.0,0.0,0.0,0.0,-3.1458,-3.4724,-3.8663,-4.3392,-4.6217,-4.7233,-4.6477,-4.6669,-4.5342,-4.2388,0.0,0.0,0.0,0.0,0.0,0.0,0.0,0.0,0.0,0.0,0.0,0.0,0.0,0.0,0.0,0.0,0.0,0.0,0.0,0.0,0.0,0.0,0.0,0.0,0.0,0.0,0.0,0.0,0.0,0.0,0.0,0.0,0.0,0.0,0.0,0.0,0.0,0.0,0.0,-3.2639,-3.3695,0.0,0.0,0.0,0.0,0.0,0.0,0.0,0.0,-3.9804,0.0,0.0,0.0,0.0,0.0,0.0,0.0,0.0,0.0,0.0,0.0,0.0,0.0,0.0,0.0,0.0,0.0,0.0,0.0,0.0,0.0,0.0,0.0,0.0,0.0,0.0,0.0,0.0,0.0,0.0,0.0,0.0,0.0,0.0,0.0,0.0,0.0,0.0,0.0,0.0,0.0,0.0,0.0,0.0,0.0,0.0,0.0,0.0,0.0,0.0,0.0,0.0,0.0,0.0,0.0,-3.2947,-3.6686,-4.0588,-4.4695,-4.7101,-4.8071,-4.7497,-4.7318,-4.5862,0.0,0.0,0.0,0.0,0.0,0.0,0.0,0.0,0.0,0.0,0.0,0.0,0.0,0.0,0.0,0.0,0.0,0.0,0.0,0.0,0.0,0.0,0.0,0.0,0.0,0.0,0.0,0.0,0.0,0.0,0.0,0.0,0.0,0.0,0.0,0.0,0.0,0.0,0.0,0.0,-3.4323,-3.5824,-3.903,0.0,0.0,0.0,0.0,0.0,0.0,-4.2399,-4.1609,0.0,0.0,0.0,0.0,0.0,0.0,0.0,0.0,0.0,0.0,0.0,0.0,0.0,0.0,0.0,0.0,0.0,0.0,0.0,0.0,0.0,0.0,0.0,0.0,0.0,0.0,0.0,0.0,0.0,0.0,0.0,0.0,0.0,0.0,0.0,0.0,0.0,0.0,0.0,0.0,0.0,0.0,0.0,0.0,0.0,0.0,0.0,0.0,0.0,0.0,0.0,0.0,0.0,0.0,0.0,-3.4098,-3.8424,-4.2283,-4.5672,-4.767,-4.8634,-4.8597,-4.7696,-4.5952,0.0,0.0,0.0,0.0,0.0,0.0,0.0,0.0,0.0,0.0,0.0,0.0,0.0,0.0,0.0,0.0,0.0,0.0,0.0,0.0,0.0,0.0,0.0,0.0,0.0,0.0,0.0,0.0,0.0,0.0,0.0,0.0,0.0,0.0,0.0,0.0,0.0,0.0,0.0,0.0,0.0,-3.7818,-4.1432,-3.9019,0.0,0.0,0.0,0.0,-4.3773,-4.4087,0.0,0.0,0.0,0.0,0.0,0.0,0.0,0.0,0.0,0.0,0.0,0.0,0.0,0.0,0.0,0.0,0.0,0.0,0.0,0.0,0.0,0.0,0.0,0.0,0.0,0.0,0.0,0.0,0.0,0.0,0.0,0.0,0.0,0.0,0.0,0.0,0.0,0.0,0.0,0.0,0.0,0.0,0.0,0.0,0.0,0.0,0.0,0.0,0.0,0.0,0.0,0.0,0.0,0.0,0.0,0.0,-3.5536,-4.0495,-4.4259,-4.6634,-4.8998,-4.9973,-4.9352,-4.7902,-4.6092,0.0,0.0,0.0,0.0,0.0,0.0,0.0,0.0,0.0,0.0,0.0,0.0,0.0,0.0,0.0,0.0,0.0,0.0,0.0,0.0,0.0,0.0,0.0,0.0,0.0,0.0,0.0,0.0,0.0,0.0,0.0,0.0,0.0,0.0,0.0,0.0,0.0,0.0,0.0,0.0,0.0,-3.8638,-4.3336,-4.1417,-4.0333,0.0,0.0,-4.4819,-4.5832,-4.7243,0.0,0.0,0.0,0.0,0.0,0.0,0.0,0.0,0.0,0.0,0.0,0.0,0.0,0.0,0.0,0.0,0.0,0.0,0.0,0.0,0.0,0.0,0.0,0.0,0.0,0.0,0.0,0.0,0.0,0.0,0.0,0.0,0.0,0.0,0.0,0.0,0.0,0.0,0.0,0.0,0.0,0.0,0.0,0.0,0.0,0.0,0.0,0.0,0.0,0.0,0.0,0.0,0.0,0.0,0.0,-3.4323,-3.7952,-4.2379,-4.5889,-4.8348,-5.0073,-5.0806,-5.0542,-4.8584,-4.6602,0.0,0.0,0.0,0.0,0.0,0.0,0.0,0.0,0.0,0.0,0.0,0.0,0.0,0.0,0.0,0.0,0.0,0.0,0.0,0.0,0.0,0.0,0.0,0.0,0.0,0.0,0.0,0.0,0.0,0.0,0.0,0.0,0.0,0.0,0.0,0.0,0.0,0.0,0.0,0.0,0.0,0.0,-4.3687,-4.3105,0.0,0.0,0.0,-4.595,-4.6239,0.0,0.0,0.0,0.0,0.0,0.0,0.0,0.0,0.0,0.0,0.0,0.0,0.0,0.0,0.0,0.0,0.0,0.0,0.0,0.0,0.0,0.0,0.0,0.0,0.0,0.0,0.0,0.0,0.0,0.0,0.0,0.0,0.0,0.0,0.0,0.0,0.0,0.0,0.0,0.0,0.0,0.0,0.0,0.0,0.0,0.0,0.0,0.0,0.0,0.0,0.0,0.0,0.0,0.0,0.0,0.0,0.0,-3.9384,-4.3746,-4.72,-4.955,-5.0667,-5.1351,-5.1598,-4.9487,0.0,0.0,0.0,0.0,0.0,0.0,0.0,0.0,0.0,0.0,0.0,0.0,0.0,0.0,0.0,0.0,0.0,0.0,0.0,0.0,0.0,0.0,0.0,0.0,0.0,0.0,0.0,-2.773,0.0,0.0,0.0,0.0,0.0,0.0,0.0,0.0,0.0,0.0,0.0,0.0,0.0,0.0,-4.0865,-4.3729,-4.4426,-4.5629,0.0,0.0,-4.6924,-4.7133,-4.8963,-4.9145,0.0,0.0,0.0,0.0,0.0,0.0,0.0,0.0,0.0,0.0,0.0,0.0,0.0,0.0,0.0,0.0,0.0,0.0,0.0,0.0,0.0,0.0,0.0,0.0,0.0,0.0,0.0,0.0,0.0,0.0,0.0,0.0,0.0,0.0,0.0,0.0,0.0,0.0,0.0,0.0,0.0,0.0,0.0,0.0,0.0,0.0,0.0,0.0,0.0,0.0,0.0,0.0,0.0,0.0,0.0,-3.8966,-4.4342,-4.7965,-4.9582,-5.0515,-5.1533,-5.2533,-5.058,-4.8439,0.0,0.0,0.0,0.0,0.0,0.0,0.0,0.0,0.0,0.0,0.0,0.0,0.0,0.0,0.0,0.0,0.0,0.0,0.0,0.0,0.0,0.0,0.0,0.0,0.0,0.0,0.0,0.0,0.0,0.0,0.0,0.0,0.0,0.0,0.0,0.0,0.0,0.0,0.0,0.0,0.0,-4.1072,-4.38,-4.5588,-4.7271,0.0,-4.8546,-4.8331,-4.9295,-5.1001,-5.0946,-4.7144,0.0,0.0,0.0,0.0,0.0,0.0,0.0,0.0,0.0,0.0,0.0,0.0,0.0,0.0,0.0,0.0,0.0,0.0,0.0,0.0,0.0,0.0,0.0,0.0,0.0,0.0,0.0,0.0,0.0,0.0,0.0,0.0,0.0,0.0,0.0,0.0,0.0,0.0,0.0,0.0,0.0,0.0,0.0,0.0,0.0,0.0,0.0,0.0,0.0,0.0,0.0,0.0,0.0,-3.8376,-4.1444,-4.5602,-4.8809,-5.097,-5.1726,-5.2448,-5.3309,-5.1331,-4.9308,0.0,0.0,0.0,0.0,0.0,0.0,0.0,0.0,0.0,0.0,0.0,0.0,0.0,0.0,0.0,0.0,0.0,0.0,0.0,0.0,0.0,0.0,0.0,0.0,0.0,0.0,0.0,0.0,-4.0467,-4.0816,-3.8055,0.0,0.0,0.0,0.0,0.0,0.0,0.0,0.0,0.0,0.0,-4.2704,-4.6217,-4.8121,0.0,0.0,-5.0139,-4.9561,-4.8872,-4.9989,-4.9675,-4.5731,-4.4684,0.0,0.0,0.0,0.0,0.0,0.0,0.0,0.0,0.0,0.0,0.0,0.0,0.0,0.0,0.0,0.0,0.0,0.0,0.0,0.0,0.0,0.0,0.0,0.0,0.0,0.0,0.0,0.0,0.0,0.0,0.0,0.0,0.0,0.0,0.0,0.0,0.0,0.0,0.0,0.0,0.0,0.0,0.0,0.0,0.0,0.0,0.0,0.0,0.0,0.0,0.0,0.0,-3.9499,-4.256,-4.6281,-4.9377,-5.1821,-5.2513,-5.3155,-5.3732,-5.2068,-5.0374,0.0,0.0,0.0,0.0,0.0,0.0,0.0,0.0,0.0,0.0,0.0,0.0,0.0,0.0,0.0,0.0,0.0,0.0,0.0,0.0,0.0,0.0,0.0,0.0,0.0,0.0,0.0,0.0,-4.2704,-4.2182,-3.7791,0.0,0.0,0.0,0.0,0.0,0.0,0.0,0.0,0.0,0.0,-4.4402,-4.6969,-4.8631,-4.9694,-4.9961,-4.9809,-4.9133,-4.7737,-4.8445,-4.824,-4.5399,0.0,0.0,0.0,0.0,0.0,0.0,0.0,0.0,0.0,0.0,0.0,0.0,0.0,0.0,0.0,0.0,0.0,0.0,0.0,0.0,0.0,0.0,0.0,0.0,0.0,0.0,0.0,-3.4051,0.0,0.0,-3.333,0.0,0.0,0.0,0.0,0.0,0.0,0.0,0.0,0.0,0.0,0.0,0.0,0.0,0.0,0.0,0.0,0.0,0.0,0.0,0.0,0.0,0.0,-3.9671,-4.1363,-4.6188,-4.9601,-5.1572,-5.2594,-5.3439,-5.4051,-5.2879,-5.1573,-5.0158,0.0,0.0,0.0,0.0,0.0,0.0,0.0,0.0,0.0,0.0,0.0,0.0,0.0,0.0,0.0,0.0,0.0,0.0,0.0,0.0,0.0,0.0,0.0,0.0,0.0,0.0,-3.719,-4.0169,-4.1099,0.0,0.0,0.0,0.0,0.0,0.0,0.0,0.0,0.0,-3.7891,-4.2816,-4.5953,-4.52,-4.6377,-4.7333,-4.7387,-4.7037,-4.6562,-4.6095,-4.6634,-4.7075,0.0,0.0,0.0,0.0,0.0,0.0,0.0,0.0,0.0,0.0,0.0,0.0,0.0,0.0,0.0,0.0,0.0,0.0,0.0,0.0,0.0,0.0,0.0,0.0,0.0,0.0,0.0,-3.6508,-3.6781,0.0,0.0,0.0,0.0,0.0,0.0,0.0,0.0,0.0,0.0,0.0,-4.0653,-4.0905,0.0,0.0,0.0,0.0,0.0,0.0,0.0,0.0,0.0,0.0,0.0,0.0,-4.005,-4.2901,-4.6828,-4.9837,-5.1809,-5.2816,-5.3636,-5.4253,-5.2869,-5.0762,-4.7934,0.0,0.0,0.0,0.0,0.0,0.0,0.0,0.0,0.0,0.0,0.0,0.0,0.0,0.0,0.0,0.0,0.0,0.0,0.0,0.0,0.0,0.0,0.0,0.0,0.0,-3.9651,0.0,0.0,0.0,0.0,0.0,0.0,0.0,0.0,0.0,0.0,0.0,-3.9774,-4.2028,-4.2554,-4.3349,-4.5192,-4.5788,-4.6677,0.0,0.0,0.0,0.0,0.0,0.0,0.0,0.0,0.0,0.0,0.0,0.0,0.0,0.0,-4.4956,-4.4294,-4.5125,-4.6036,-4.6294,0.0,0.0,0.0,0.0,0.0,0.0,0.0,0.0,0.0,0.0,0.0,0.0,0.0,0.0,-3.7997,0.0,-3.7799,0.0,0.0,0.0,0.0,0.0,0.0,0.0,0.0,-4.1314,-4.306,-4.4736,-4.5153,-4.5341,0.0,-4.473,-4.2665,0.0,0.0,0.0,0.0,0.0,0.0,0.0,0.0,-4.1204,-4.4066,-4.777,-5.0506,-5.2224,-5.3159,-5.3813,-5.4157,-5.2911,-5.0968,-4.8313,-4.7717,-4.6443,0.0,0.0,0.0,0.0,0.0,0.0,0.0,0.0,0.0,0.0,0.0,0.0,0.0,0.0,0.0,0.0,0.0,0.0,0.0,0.0,0.0,0.0,0.0,-4.1332,0.0,0.0,0.0,0.0,0.0,0.0,0.0,0.0,0.0,-3.8818,-4.0753,-4.2674,-4.4168,-4.3438,-4.311,-4.3998,0.0,0.0,0.0,0.0,0.0,0.0,0.0,-4.3968,-4.2739,-4.4216,-4.5974,-4.7237,-4.8164,-4.8961,-4.9529,0.0,0.0,-4.8154,-4.8679,-4.9542,-5.0045,-4.9887,-4.9763,-4.9887,-4.9825,-4.97,0.0,0.0,0.0,0.0,0.0,0.0,0.0,0.0,-3.8763,-3.9554,0.0,-3.9561,0.0,0.0,0.0,0.0,-3.831,-4.0177,0.0,0.0,-4.5421,-4.7302,-4.8605,-4.8826,-4.8645,-4.8168,-4.8249,-4.7725,-4.6471,-4.2159,0.0,0.0,0.0,0.0,0.0,0.0,-4.3186,-4.488,-4.8862,-5.1531,-5.2651,-5.3552,-5.3942,-5.377,-5.3035,-5.2156,-5.1264,-4.9855,-4.884,-4.8201,-4.4453,0.0,0.0,0.0,0.0,0.0,0.0,0.0,0.0,0.0,0.0,0.0,0.0,0.0,0.0,0.0,0.0,0.0,0.0,0.0,0.0,-4.1084,0.0,0.0,0.0,0.0,0.0,0.0,0.0,0.0,0.0,0.0,-4.086,-4.3648,-4.5455,-4.4348,0.0,0.0,0.0,0.0,-4.2535,-4.1157,-4.1414,-4.1686,-4.078,-4.3309,-4.5655,-4.6335,0.0,0.0,-5.1729,-5.1717,-5.1675,-5.1712,-5.3383,-5.4133,-5.1831,-5.1128,-5.1095,-5.1654,-5.1427,-5.0995,-5.1193,-5.1496,-5.1262,-4.0986,0.0,0.0,0.0,0.0,-3.8964,-4.0212,-4.2248,-4.2315,-4.2664,-4.3061,-4.2395,0.0,0.0,0.0,0.0,0.0,0.0,-4.4167,-4.5532,-4.7198,-4.883,-5.0483,-5.0574,-5.0857,-5.1339,-5.1251,-5.0752,-4.9916,-4.8487,-4.5455,-4.104,0.0,0.0,0.0,0.0,-4.4255,-4.6815,-4.9403,-5.1241,-5.2366,-5.3024,-5.3333,-5.328,-5.3206,-5.2536,-5.1127,-5.0959,-5.0237,-4.8917,-4.675,0.0,0.0,0.0,0.0,0.0,0.0,0.0,0.0,0.0,0.0,0.0,0.0,0.0,0.0,0.0,0.0,0.0,0.0,0.0,-4.2585,-4.4498,-4.3964,0.0,0.0,0.0,0.0,0.0,0.0,0.0,0.0,0.0,-4.6496,-4.5717,-4.4918,0.0,0.0,-4.1085,-3.9606,-4.1219,-4.3166,-4.4773,-4.568,0.0,-4.7385,-4.7354,-4.7436,-4.8026,-5.0969,-5.337,-5.3604,-5.4525,-5.5193,-5.516,-5.5747,-5.5975,-5.5502,-5.5378,-5.542,-5.5774,-5.5669,-5.5667,-5.5881,-5.5776,-5.56,-4.5482,-4.2881,-4.084,-4.0764,-4.1964,-4.2115,-4.3089,-4.4541,-4.4751,-4.512,-4.5631,-4.4877,-4.4285,-4.3901,-4.3543,0.0,0.0,0.0,-4.6597,-4.7875,-4.9094,-5.0439,-5.1958,-5.2438,-5.2899,-5.34,-5.3607,-5.3377,-5.2657,-5.2154,-5.0009,-4.6204,0.0,0.0,-4.3643,-4.4971,-4.6924,-4.9374,-5.1182,-5.2565,-5.3482,-5.3672,-5.3759,-5.3773,-5.3545,-5.293,-5.2023,-5.1908,-5.1487,-5.0703,-4.8618,-4.6636,0.0,0.0,0.0,0.0,0.0,0.0,0.0,0.0,0.0,0.0,0.0,-3.8879,-3.8417,0.0,0.0,0.0,-4.411,-4.5266,-4.6879,-4.6838,0.0,0.0,0.0,0.0,0.0,0.0,0.0,-4.2599,-4.5878,-4.8471,-4.9006,-4.7516,-4.6442,-4.68,-4.4486,-4.2498,-4.1676,0.0,-4.4937,-4.6722,-4.7557,-4.8398,-4.9612,-4.984,-5.02,-5.1351,-5.3039,-5.4495,-5.4861,-5.5677,-5.6349,-5.6614,-5.668,-5.6719,-5.6872,-5.6987,-5.7139,-5.7402,-5.7364,-5.7327,-5.7625,-5.7551,-5.7476,-4.903,-4.7491,-4.4448,-4.3878,-4.4971,-4.506,-4.5615,-4.6582,-4.6437,-4.7237,-4.8515,-4.6959,-4.7133,-4.8536,-4.7494,0.0,-4.7524,-4.8103,-4.8967,-5.0182,-5.1002,-5.1938,-5.3058,-5.4126,-5.4576,-5.4442,-5.5255,-5.5376,-5.4652,-5.3913,-5.2872,-5.1481,-4.927,-4.7735,-4.7078,-4.8564,-5.0293,-5.2063,-5.3464,-5.4521,-5.5204,-5.4867,-5.4687,-5.4656,-5.3798,-5.3311,-5.3311,-5.2581,-5.2331,-5.2629,-4.9923,-4.827,-4.7977,0.0,0.0,0.0,0.0,0.0,0.0,0.0,0.0,0.0,0.0,0.0,0.0,0.0,0.0,0.0,-4.779,0.0,-5.15,-4.8554,0.0,0.0,0.0,-4.4849,-4.6291,-4.6774,-4.7486,-4.8639,0.0,0.0,-4.9508,-4.9292,-4.9589,-5.1015,-4.9119,-4.7216,-4.6162,-4.6801,-4.7505,-4.7762,-4.8266,-4.8862,-4.9931,-5.159,-5.3466,-5.4969,-5.5085,-5.5019,-5.5544,-5.5714,-5.6017,-5.6581,-5.668,-5.668,-5.668,-5.6719,-5.6796,-5.7176,-5.6987,-5.6872,-5.7252,-5.7289,-5.7289,-5.1025,-5.0825,-4.9823,-4.8632,-4.7369,-4.8021,-4.8656,-4.9169,-4.9205,-4.9461,-4.9905,-4.891,-4.9014,-4.973,-4.8494,-4.8799,-5.026,-4.99,-5.0246,-5.1228,-5.1955,-5.2534,-5.3055,-5.3959,-5.4373,-5.4421,-5.5237,-5.5376,-5.4714,-5.5021,-5.4296,-5.2687,-5.2032,-5.0577,-4.8367,-4.9254,-5.0532,-5.2002,-5.2185,-5.2734,-5.361,-5.353,-5.3601,-5.3715,-5.302,-5.2668,-5.2636,-5.1643,-5.1137,-5.1155,-4.9663,-4.8341,-4.7317,-4.4288,0.0,0.0,0.0,0.0,0.0,0.0,0.0,0.0,0.0,-4.1957,-4.1534,0.0,-4.5825,0.0,-5.0765,-5.2723,-5.244,-5.1489,0.0,0.0,-4.7756,-4.7592,-4.7676,-4.9772,-5.0819,-4.9787,-5.1542,-5.2733,-5.2469,-5.2594,-5.3236,-5.455,-5.1077,-4.8107,-4.7452,-4.9334,-5.0825,-5.1037,-5.2709,-5.4435,-5.441,-5.5195,-5.5803,-5.6183,-5.6167,-5.6249,-5.6415,-5.6448,-5.6514,-5.6647,-5.668,-5.668,-5.6713,-5.668,-5.6752,-5.6834,-5.6872,-5.6987,-5.7252,-5.7176,-5.7063,-5.1186,-5.0818,-5.0637,-5.0006,-4.9136,-5.0164,-5.0808,-5.1101,-5.1136,-5.1291,-5.1461,-5.1178,-5.1199,-5.1468,-5.078,-5.1143,-5.221,-5.188,-5.1974,-5.2476,-5.2963,-5.3162,-5.3239,-5.3888,-5.4182,-5.4213,-5.5122,-5.5388,-5.5033,-5.5695,-5.5385,-5.4185,-5.4396,-5.3172,-5.0532,-5.0375,-5.0773,-5.1588,-5.2201,-5.2945,-5.3804,-5.363,-5.3276,-5.2606,-5.177,-5.0962,-5.01,-4.931,-4.8917,-4.8929,-4.8112,-4.7209,-4.6263,-4.4104,-4.2243,0.0,0.0,0.0,0.0,0.0,0.0,0.0,0.0,0.0,0.0,0.0,-4.8529,-4.9704,-5.2292,-5.3551,-5.254,-5.2058,-5.1471,-5.0778,-5.083,-5.1132,-5.159,-5.3165,-5.3785,-5.2754,-5.3995,-5.4867,-5.4388,-5.4592,-5.5077,-5.5861,-5.3719,-5.1954,-5.1679,-5.2669,-5.3455,-5.397,-5.5187,-5.6132,-5.6244,-5.6362,-5.648,-5.6525,-5.6338,-5.6316,-5.6614,-5.6415,-5.6316,-5.6614,-5.668,-5.6812,-5.7111,-5.7177,-5.7177,-5.7249,-5.7598,-5.7686,-5.7158,-5.6949,-5.6872,-5.0783,-4.9831,-4.9825,-5.0112,-5.071,-5.1765,-5.2272,-5.2435,-5.2397,-5.2516,-5.2763,-5.3117,-5.3245,-5.3245,-5.3204,-5.344,-5.3814,-5.3585,-5.3525,-5.3585,-5.3778,-5.3718,-5.3513,-5.3844,-5.4079,-5.4127,-5.4944,-5.5424,-5.5516,-5.6097,-5.6084,-5.5555,-5.5944,-5.4855,-5.2437,-5.1429,-5.0969,-5.1033,-5.264,-5.3741,-5.4296,-5.3714,-5.2658,-5.1146,-5.0125,-4.8716,-4.6913,-4.6594,-4.6387,-4.6342,-4.6142,-4.592,-4.5703,-4.4024,-4.2839,0.0,-4.0577,0.0,0.0,0.0,0.0,0.0,0.0,0.0,0.0,-4.9863,-5.1296,-5.2336,-5.3355,-5.371,-5.3038,-5.2323,-5.2639,-5.4317,-5.4276,-5.4705,-5.6039,-5.6151,-5.6046,-5.5879,-5.5839,-5.5726,-5.5531,-5.5726,-5.5886,-5.5927,-5.6027,-5.5975,-5.633,-5.5647,-5.545,-5.6342,-5.6151,-5.6123,-5.6163,-5.621,-5.6369,-5.6624,-5.641,-5.6117,-5.6779,-5.6481,-5.6282,-5.6746,-5.6978,-5.721,-5.7707,-5.7839,-5.7873,-5.7608,-5.8229,-5.8374,-5.7199,-5.6967,-5.6857,-5.2305,-5.2084,-5.2287,-5.2473,-5.2588,-5.299,-5.2966,-5.2574,-5.2452,-5.2417,-5.2575,-5.3327,-5.3684,-5.3655,-5.3365,-5.3822,-5.478,-5.3535,-5.3356,-5.4061,-5.3883,-5.3584,-5.3331,-5.4085,-5.4503,-5.4503,-5.4868,-5.5348,-5.5895,-5.6017,-5.5516,-5.4507,-5.4578,-5.3396,-5.1199,0.0,0.0,0.0,-5.2142,-5.264,-5.2199,-5.0602,-4.9281,-4.8278,-4.7501,0.0,-4.5029,-4.502,-4.4865,-4.4498,-4.5522,0.0,0.0,0.0,0.0,0.0,0.0,0.0,0.0,0.0,0.0,0.0,-4.8565,-4.8809,-4.8492,-5.0593,-5.2922,-5.5154,-5.5687,-5.6296,-5.7273,-5.7051,-5.6978,-5.7314,-5.6825,-5.658,-5.6872,-5.6446,-5.6086,-5.6046,-5.6046,-5.6006,-5.5966,-5.6165,-5.6284,-5.6284,-5.6486,-5.6867,-5.7469,-5.6828,-5.647,-5.6636,-5.6697,-5.6695,-5.6449,-5.6621,-5.6824,-5.7099,-5.7311,-5.737,-5.7469,-5.7972,-5.7972,-5.7707,-5.8071,-5.8237,-5.7939,-5.827,-5.8336,-5.7144,-5.758,-5.7858,-5.711,-5.753,-5.7912,-5.1928,-5.1821,-5.1775,-5.2043,0.0,-5.2722,-5.2879,-5.3059,-5.2997,-5.3004,-5.3187,-5.3786,-5.4167,-5.4268,-5.3882,-5.427,-5.5149,-5.406,-5.376,-5.4238,-5.4137,-5.3959,-5.3733,-5.4062,-5.4291,-5.4389,-5.4537,-5.4865,-5.5296,-5.553,-5.545,-5.5118,-5.4969,-5.4311,-5.3159,-5.3258,-5.2684,-5.1482,-5.2591,-5.3128,-5.3131,-5.2199,-5.094,-4.9424,-4.8723,0.0,0.0,0.0,0.0,0.0,0.0,0.0,0.0,-4.7068,0.0,-4.8023,-4.686,-4.6943,-4.8725,-4.8932,-4.9894,-5.2094,-5.3249,-5.3204,-5.1809,-5.3859,-5.5762,-5.7057,-5.7213,-5.7609,-5.8289,-5.8289,-5.8133,-5.805,-5.7723,-5.7453,-5.7306,-5.6833,-5.6449,-5.6424,-5.6275,-5.6086,-5.6086,-5.6284,-5.6369,-5.6441,-5.6894,-5.7376,-5.7674,-5.7475,-5.7225,-5.7117,-5.6986,-5.6741,-5.6292,-5.6311,-5.6593,-5.6808,-5.7208,-5.7449,-5.7489,-5.7945,-5.8237,-5.7906,-5.8104,-5.8369,-5.8899,-5.9198,-5.9238,-5.8694,-5.8761,-5.8673,-5.7935,-5.7706,-5.7644,-5.1189,-5.0892,-5.0653,-5.0974,-5.164,-5.1904,-5.2536,-5.3343,-5.3477,0.0,0.0,-5.4097,-5.4385,-5.4619,-5.4406,-5.456,-5.5027,-5.4458,-5.4252,-5.4304,-5.4252,-5.4245,-5.42,-5.3879,-5.3893,-5.4221,-5.4122,-5.4251,-5.4649,-5.494,-5.534,-5.5882,-5.5712,-5.5631,-5.5712,-5.5691,-5.4767,-5.299,-5.3338,-5.3839,-5.4365,-5.4118,-5.3024,-5.0971,-5.0471,-4.9132,-4.6749,-4.6716,-4.6636,-4.6387,-4.6977,-4.7578,-4.7908,-4.7908,-4.8084,-4.8541,-4.8493,-4.9408,-5.1506,-5.1851,-5.326,-5.6391,-5.7322,-5.7195,-5.5846,-5.7352,-5.8394,-5.8567,-5.8558,-5.8558,-5.8525,-5.8484,-5.8367,-5.8232,-5.8102,-5.7953,-5.7751,-5.7293,-5.6897,-5.6735,-5.6441,-5.6177,-5.6119,-5.6336,-5.6488,-5.6626,-5.7185,-5.7833,-5.7906,-5.7773,-5.75,-5.7265,-5.6873,-5.6401,-5.6028,-5.6029,-5.6157,-5.6796,-5.7214,-5.7438,-5.7527,-5.791,-5.8184,-5.8336,-5.827,-5.8866,-5.9761,-6.0059,-6.0141,-6.007,-6.0184,-5.9964,-5.8853,-5.8012,-5.7611,-5.1373,-5.0934,-5.1098,-5.1262,-5.14,-5.1701,-5.219,-5.2841,-5.3319,-5.35,-5.3553,-5.3867,-5.3942,-5.4075,-5.42,-5.4355,-5.4406,-5.4097,-5.4045,-5.4304,-5.4045,-5.3936,-5.3861,-5.3571,-5.3692,-5.4092,-5.3743,-5.3938,-5.4675,-5.456,-5.4856,-5.567,-5.5678,-5.5811,-5.6089,-5.6033,-5.5679,-5.5109,-5.4022,-5.3355,-5.3234,-5.2012,-5.0738,-4.9465,-4.9624,-4.8915,-4.7364,-4.7903,-4.7712,-4.6654,-4.7727,-4.8895,-4.9896,-4.9939,-5.0864,-5.2887,-5.2734,-5.2976,-5.3862,-5.4666,-5.5986,-5.7774,-5.8249,-5.8421,-5.8495,-5.872,-5.9216,-5.9975,-5.9847,-5.9826,-5.9816,-5.9578,-5.9383,-5.9339,-5.8885,-5.8486,-5.8443,-5.7881,-5.7275,-5.6756,-5.6661,-5.6507,-5.6243,-5.649,-5.6776,-5.6988,-5.7355,-5.7781,-5.819,-5.7756,-5.7199,-5.6873,-5.6317,-5.6048,-5.6169,-5.6471,-5.6881,-5.7588,-5.7979,-5.83,-5.854,-5.924,-5.958,-5.9646,-5.9886,-6.0291,-6.0191,-6.0556,-6.0398,-5.9717,-5.9944,-6.0031,-5.946,-5.9348,-5.9161,-5.1155,-5.0871,-5.0682,-5.0851,-5.1348,-5.2004,-5.2221,-5.2221,-5.2491,-5.2865,-5.3319,-5.3553,-5.3967,-5.4416,-5.4013,-5.4199,-5.4834,-5.4013,-5.3867,-5.4045,-5.3785,-5.3773,-5.384,-5.3891,-5.4124,-5.4509,-5.4479,-5.4753,-5.5256,-5.506,-5.5195,-5.5701,-5.5595,-5.5577,-5.5671,-5.5662,-5.5508,-5.5381,-5.515,-5.492,-5.462,-5.4092,-5.3407,-5.2477,-5.2723,-5.2424,-5.1423,-5.1708,-5.1626,-5.121,-5.1789,-5.2505,-5.3268,-5.2675,-5.2989,-5.449,-5.4053,-5.4033,-5.4738,-5.6101,-5.7256,-5.8029,-5.8786,-5.9274,-5.9361,-5.9372,-5.9578,-5.999,-5.9935,-5.9892,-5.9892,-5.9892,-5.9848,-5.9716,-5.948,-5.9361,-5.9134,-5.8702,-5.8203,-5.7888,-5.7306,-5.6841,-5.6515,-5.6654,-5.6759,-5.6865,-5.7427,-5.826,-5.8719,-5.8109,-5.7657,-5.7865,-5.7535,-5.709,-5.6834,-5.6892,-5.7153,-5.7484,-5.7884,-5.8075,-5.8152,-5.8905,-5.947,-5.9227,-5.9828,-6.0448,-6.049,-6.0904,-6.0894,-6.0717,-6.0298,-6.0357,-6.0321,-6.041,-6.0083,-5.0946,-5.0694,-5.0435,-5.0705,-5.146,-5.2256,-5.2254,-5.1623,-5.1623,-5.2035,-5.269,-5.3005,-5.3579,-5.4304,-5.368,-5.3896,-5.4562,-5.392,-5.3605,-5.3762,-5.3448,-5.3448,-5.3681,-5.3785,-5.4081,-5.4495,-5.4703,-5.4996,-5.5278,-5.5101,-5.5256,-5.5674,-5.5591,-5.5521,-5.5566,-5.5442,-5.5329,-5.527,-5.5752,-5.5951,-5.583,-5.6127,-5.6048,-5.556,-5.5691,-5.5667,-5.5175,-5.5191,-5.5193,-5.5256,-5.5225,-5.5348,-5.5482,-5.451,-5.4245,-5.4818,-5.4321,-5.4338,-5.531,-5.6702,-5.7726,-5.8096,-5.8996,-5.9584,-5.9673,-5.9584,-5.9584,-5.9673,-5.9716,-5.9716,-5.9716,-5.9892,-5.9935,-5.976,-5.9892,-5.9859,-5.9696,-5.9361,-5.9068,-5.884,-5.8023,-5.7314,-5.6897,-5.6895,-5.7042,-5.7184,-5.785,-5.8586,-5.8722,-5.8326,-5.8294,-5.8491,-5.8296,-5.7625,-5.7231,-5.72,-5.72,-5.72,-5.7674,-5.7752,-5.762,-5.8421,-5.9161,-5.9034,-5.9564,-6.0374,-6.1028,-6.126,-6.1432,-6.142,-6.1207,-6.0998,-6.0993,-6.0593,-6.0362,-5.1111,-5.0512,-5.0907,-5.1401,-5.1707,-5.2156,-5.1794,-5.1017,-5.0962,-5.1154,-5.1539,-5.182,-5.2278,-5.2873,-5.3058,-5.3246,-5.3357,-5.3453,-5.3477,-5.3506,-5.3001,-5.2947,-5.3136,-5.268,-5.2858,-5.3532,-5.354,-5.3801,-5.4312,-5.4007,-5.4347,-5.5392,-5.5981,-5.6174,-5.6168,-5.5808,-5.5513,-5.5292,-5.506,-5.5079,-5.5259,-5.578,-5.5998,-5.5937,-5.6201,-5.6445,-5.6484,-5.6625,-5.6317,-5.5731,-5.5639,-5.5392,-5.4838,-5.416,-5.4037,-5.4607,-5.4099,-5.4376,-5.5829,-5.6326,-5.7132,-5.8374,-5.8818,-5.9229,-5.9584,-5.9318,-5.9274,-5.9584,-5.9673,-5.9628,-5.9673,-5.9716,-5.9716,-5.9673,-5.9716,-5.9716,-5.9673,-5.9652,-5.936,-5.868,-5.8356,-5.7978,-5.6825,-5.7109,-5.7744,-5.7942,-5.8119,-5.8328,-5.8268,-5.8332,-5.8096,-5.8096,-5.7308,-5.6821,-5.6997,-5.7231,-5.7218,-5.7295,-5.7814,-5.7947,-5.7988,-5.849,-5.9402,-5.9487,-6.022,-6.0712,-6.1111,-6.1383,-6.1465,-6.1635,-6.1669,-6.1666,-6.1255,-6.0381,-5.9671,-5.0624,-5.055,-5.0511,-5.0756,-5.125,-5.1557,-5.1162,-5.026,-5.026,-5.042,-5.0725,-5.086,-5.1557,-5.2687,-5.2765,-5.2786,-5.2869,-5.314,-5.3249,-5.3249,-5.3223,-5.3231,-5.3381,-5.3326,-5.3468,-5.3834,-5.4035,-5.429,-5.446,-5.4483,-5.4676,-5.5132,-5.545,-5.5595,-5.5761,-5.5586,-5.5262,-5.4811,-5.4977,-5.5012,-5.4796,-5.5075,-5.535,-5.5501,-5.6077,-5.6519,-5.6761,-5.6664,-5.6317,-5.5896,-5.5719,-5.553,-5.5177,-5.4425,-5.4296,-5.4891,-5.4974,-5.5267,-5.6142,-5.6586,-5.7058,-5.77,-5.8072,-5.8487,-5.8972,-5.8882,-5.8972,-5.9331,-5.9197,-5.9152,-5.9375,-5.9464,-5.9452,-5.9363,-5.954,-5.9584,-5.9318,-5.9274,-5.9029,-5.8484,-5.7795,-5.7043,-5.6263,-5.6483,-5.7267,-5.8004,-5.8321,-5.818,-5.78,-5.799,-5.7818,-5.705,-5.664,-5.6766,-5.7018,-5.7565,-5.7533,-5.7316,-5.7709,-5.8128,-5.7788,-5.8403,-5.9202,-5.9383,-5.9987,-6.06,-6.1094,-6.1424,-6.1628,-6.1649,-6.1486,-6.1424,-6.0757,-6.06,-6.0367,-5.0542,-5.0855,-5.0891,-5.117,-5.1551,-5.144,-5.0917,-5.006,-4.9724,-4.9828,-5.0288,-5.0311,-5.097,-5.2085,-5.2401,-5.2519,-5.2631,-5.2939,-5.3134,-5.3106,-5.3217,-5.3304,-5.3358,-5.3471,-5.3555,-5.3695,-5.4116,-5.4424,-5.4562,-5.4834,-5.4936,-5.4936,-5.5026,-5.5213,-5.5395,-5.5453,-5.5196,-5.4785,-5.4984,-5.4892,-5.4533,-5.4545,-5.4849,-5.5266,-5.6022,-5.6598,-5.6941,-5.6464,-5.6218,-5.6191,-5.5771,-5.5401,-5.527,-5.4551,-5.434,-5.4849,-5.5323,-5.5725,-5.6115,-5.6457,-5.6844,-5.718,-5.7417,-5.7793,-5.8257,-5.8211,-5.8257,-5.8578,-5.8257,-5.8211,-5.8895,-5.885,-5.8714,-5.861,-5.8812,-5.8793,-5.8637,-5.8619,-5.8422,-5.8172,-5.7471,-5.6455,-5.5903,-5.6069,-5.6708,-5.7674,-5.8162,-5.8148,-5.7551,-5.7677,-5.7396,-5.6224,-5.6336,-5.6475,-5.657,-5.7101,-5.7304,-5.7193,-5.7365,-5.7929,-5.7407,-5.8228,-5.8972,-5.9173,-5.9729,-6.0184,-6.0675,-6.1136,-6.1313,-6.1274,-6.1015,-6.0613,-6.0283,-6.0502,-6.0272,-5.1356,-5.132,-5.2754,-5.325,-5.3351,-5.2117,-5.1283,-5.0518,-4.9524,-4.9502,-5.026,-5.028,-5.0514,-5.1049,-5.1868,-5.2212,-5.23,-5.2818,-5.3074,-5.3074,-5.2931,-5.2787,-5.2699,-5.2468,-5.2537,-5.2998,-5.3316,-5.3558,-5.3784,-5.4314,-5.4607,-5.4639,-5.5144,-5.5468,-5.5528,-5.55,-5.547,-5.5276,-5.491,-5.4573,-5.4539,-5.4507,-5.4931,-5.5627,-5.626,-5.6769,-5.7109,-5.6213,-5.6033,-5.6889,-5.5761,-5.5027,-5.4684,-5.4149,-5.3872,-5.4032,-5.474,-5.532,-5.5601,-5.5731,-5.6145,-5.7115,-5.694,-5.7132,-5.7933,-5.737,-5.7084,-5.7227,-5.6892,-5.7005,-5.7902,-5.7855,-5.7621,-5.7543,-5.7243,-5.735,-5.7839,-5.7628,-5.7625,-5.7892,-5.7372,-5.6568,-5.6138,-5.6157,-5.6473,-5.7155,-5.7832,-5.7993,-5.7619,-5.7258,-5.6821,-5.6323,-5.5888,-5.5576,-5.5638,-5.623,-5.6384,-5.643,-5.6977,-5.7744,-5.7754,-5.7933,-5.8446,-5.8908,-5.9254,-5.9696,-6.0206,-6.0436,-6.049,-6.0284,-5.9644,-5.9309,-5.9426,-5.8875,-5.8739,-5.0778,-5.1445,-5.1883,-5.217,-5.2215,-5.1198,-5.0477,-5.0036,-4.9558,-4.9786,-5.0381,-5.0514,-5.0789,-5.1345,-5.1689,-5.1583,-5.1384,-5.233,-5.2814,-5.29,-5.3134,-5.3296,-5.3298,-5.3206,-5.3169,-5.3299,-5.3386,-5.3615,-5.3926,-5.4221,-5.452,-5.4817,-5.5026,-5.5261,-5.5437,-5.5496,-5.5211,-5.47,-5.4755,-5.4704,-5.4401,-5.4998,-5.5479,-5.5513,-5.5864,-5.6265,-5.6869,-5.6318,-5.5983,-5.596,-5.5278,-5.4671,-5.4,-5.3921,-5.406,-5.4395,-5.4756,-5.5057,-5.528,-5.533,-5.5531,-5.5948,-5.5998,-5.6293,-5.6765,-5.6651,-5.6603,-5.6844,-5.6457,-5.6329,-5.6621,-5.6988,-5.7227,-5.7181,-5.6965,-5.6963,-5.734,-5.7104,-5.6975,-5.7221,-5.6496,-5.5556,-5.5399,-5.5139,-5.5655,-5.6857,-5.6801,-5.6647,-5.6647,-5.6555,-5.6246,-5.5331,-5.5115,-5.5069,-5.439,-5.5268,-5.5888,-5.62,-5.6684,-5.7354,-5.7617,-5.8004,-5.8487,-5.8805,-5.9017,-5.9222,-5.9729,-5.9666,-5.9713,-5.9172,-5.8528,-5.837,-5.8504,-5.8349,-5.8349,-5.0588,-5.1481,-5.1425,-5.1416,-5.1455,-5.068,-5.0166,-4.9886,-4.9783,-5.0104,-5.0525,-5.0715,-5.1094,-5.1534,-5.1596,-5.139,-5.1194,-5.2118,-5.2607,-5.2755,-5.3293,-5.3571,-5.3598,-5.3592,-5.3592,-5.3592,-5.3592,-5.3713,-5.3954,-5.4134,-5.452,-5.4849,-5.4967,-5.5144,-5.5437,-5.5379,-5.4979,-5.4552,-5.4831,-5.472,-5.4448,-5.51,-5.5364,-5.4941,-5.5076,-5.5678,-5.6544,-5.6099,-5.5762,-5.5552,-5.5109,-5.4434,-5.3801,-5.3827,-5.4075,-5.4466,-5.4671,-5.4905,-5.5057,-5.5108,-5.5179,-5.5381,-5.5381,-5.5551,-5.6066,-5.6017,-5.6195,-5.6293,-5.6047,-5.57,-5.58,-5.6195,-5.6537,-5.6541,-5.637,-5.6482,-5.7008,-5.659,-5.6357,-5.6321,-5.5649,-5.4898,-5.4442,-5.4402,-5.4992,-5.6172,-5.5743,-5.5621,-5.5902,-5.5686,-5.5502,-5.4528,-5.4297,-5.4174,-5.3836,-5.4311,-5.5052,-5.5502,-5.6264,-5.6933,-5.7604,-5.8009,-5.8367,-5.8687,-5.8895,-5.9024,-5.9035,-5.8945,-5.8601,-5.8129,-5.7781,-5.7586,-5.7787,-5.8156,-5.8119,-5.0994,-5.1523,-5.1622,-5.1586,-5.1565,-5.0893,-5.0614,-5.0474,-5.0193,-5.0232,-5.0588,-5.0931,-5.1246,-5.1534,-5.1596,-5.1606,-5.1714,-5.2297,-5.2631,-5.2692,-5.3268,-5.3598,-5.3592,-5.3592,-5.3592,-5.3592,-5.3592,-5.3592,-5.3713,-5.4221,-5.452,-5.4639,-5.4849,-5.5085,-5.5437,-5.5144,-5.5026,-5.4852,-5.488,-5.4778,-5.4594,-5.4837,-5.4585,-5.3837,-5.406,-5.4885,-5.6395,-5.5487,-5.5348,-5.5945,-5.5156,-5.4417,-5.4111,-5.4018,-5.3977,-5.4199,-5.4554,-5.4811,-5.4862,-5.4921,-5.5287,-5.5451,-5.5209,-5.5218,-5.5601,-5.5451,-5.533,-5.5381,-5.5381,-5.528,-5.528,-5.5381,-5.5581,-5.5571,-5.5439,-5.5511,-5.6181,-5.605,-5.5563,-5.5318,-5.5054,-5.4572,-5.3881,-5.3819,-5.4286,-5.4656,-5.4923,-5.5285,-5.5627,-5.5147,-5.4544,-5.4391,-5.4129,-5.379,-5.3498,-5.3314,-5.402,-5.4714,-5.5689,-5.6512,-5.7276,-5.7822,-5.8197,-5.8504,-5.8733,-5.8799,-5.8137,-5.801,-5.7649,-5.7244,-5.6962,-5.6939,-5.7348,-5.7682,-5.7749,-5.0691,-5.1408,-5.1178,-5.1498,-5.1884,-5.0904,-5.0493,-5.0442,-4.996,-5.0104,-5.0525,-5.0741,-5.1031,-5.1534,-5.1596,-5.1721,-5.1996,-5.2404,-5.2615,-5.2711,-5.3288,-5.3592,-5.3592,-5.3592,-5.3592,-5.3592,-5.3592,-5.3713,-5.3981,-5.4161,-5.4341,-5.458,-5.4667,-5.4758,-5.4904,-5.4908,-5.4849,-5.4433,-5.458,-5.456,-5.4276,-5.4323,-5.4138,-5.3793,-5.3791,-5.3969,-5.4007,-5.4431,-5.4913,-5.5366,-5.5308,-5.5049,-5.4722,-5.4681,-5.4807,-5.5182,-5.5342,-5.5401,-5.5233,-5.5499,-5.5456,-5.504,-5.5005,-5.5137,-5.5138,-5.5027,-5.4976,-5.5179,-5.5451,-5.5601,-5.533,-5.5531,-5.567,-5.5849,-5.5292,-5.5366,-5.6383,-5.6642,-5.6059,-5.5116,-5.4962,-5.4558,-5.3534,-5.3276,-5.3326,-5.3954,-5.3787,-5.3745,-5.47,-5.4761,-5.4545,-5.4607,-5.4145,-5.3637,-5.333,-5.3114,-5.339,-5.4051,-5.4961,-5.6108,-5.6901,-5.7526,-5.79,-5.8289,-5.8518,-5.8332,-5.764,-5.7184,-5.6978,-5.6653,-5.6547,-5.6717,-5.7017,-5.7166,-5.7238,-5.1666,-5.2426,-5.1441,-5.158,-5.2319,-5.1175,-5.0619,-5.0393,-5.0302,-5.041,-5.0639,-5.0842,-5.135,-5.1821,-5.1936,-5.2124,-5.2437,-5.2749,-5.289,-5.2887,-5.3349,-5.3592,-5.3646,-5.3836,-5.408,-5.4243,-5.427,-5.4257,-5.4221,-5.4342,-5.4551,-5.4671,-5.4511,-5.4598,-5.4856,-5.4722,-5.4433,-5.4194,-5.4341,-5.4281,-5.4014,-5.4014,-5.375,-5.3096,-5.3134,-5.3027,-5.2669,-5.3462,-5.4172,-5.4627,-5.5055,-5.5252,-5.516,-5.5097,-5.5198,-5.555,-5.5737,-5.5669,-5.5536,-5.5854,-5.576,-5.4929,-5.4966,-5.4959,-5.4716,-5.459,-5.4743,-5.5179,-5.5401,-5.5601,-5.562,-5.5577,-5.5682,-5.5761,-5.5444,-5.5591,-5.6506,-5.6858,-5.646,-5.5423,-5.4961,-5.4268,-5.3406,-5.2641,-5.2643,-5.33,-5.2811,-5.2734,-5.3881,-5.4204,-5.4173,-5.4159,-5.3883,-5.3454,-5.3177,-5.3008,-5.2899,-5.3466,-5.4127,-5.5378,-5.6419,-5.7025,-5.7507,-5.8082,-5.8374,-5.8249,-5.7608,-5.7162,-5.6839,-5.6539,-5.6388,-5.6382,-5.6612,-5.6735,-5.6812,-5.3398,-5.3975,-5.2199,-5.191,-5.2541,-5.1671,-5.1087,-5.0716,-5.102,-5.1062,-5.0933,-5.1183,-5.1847,-5.2354,-5.2302,-5.2465,-5.2965,-5.3226,-5.3361,-5.3313,-5.3626,-5.3829,-5.3972,-5.429,-5.4697,-5.5193,-5.5274,-5.503,-5.463,-5.4849,-5.4998,-5.4944,-5.4539,-5.4578,-5.5056,-5.4611,-5.4161,-5.4211,-5.4129,-5.3954,-5.3652,-5.3894,-5.3407,-5.2022,-5.2256,-5.2376,-5.2243,-5.2724,-5.3372,-5.4165,-5.4824,-5.5225,-5.5395,-5.5217,-5.5209,-5.5568,-5.575,-5.5804,-5.5854,-5.603,-5.5757,-5.5154,-5.5019,-5.4726,-5.4429,-5.4406,-5.4641,-5.5128,-5.5381,-5.5681,-5.5975,-5.5743,-5.5407,-5.5249,-5.5292,-5.5626,-5.617,-5.6432,-5.6019,-5.5404,-5.4772,-5.4018,-5.3193,-5.2444,-5.2534,-5.27,-5.2579,-5.3064,-5.3658,-5.3918,-5.3324,-5.3434,-5.3881,-5.3561,-5.333,-5.339,-5.325,-5.3082,-5.3773,-5.4837,-5.6092,-5.6806,-5.7476,-5.7941,-5.8292,-5.8103,-5.7813,-5.742,-5.7135,-5.7036,-5.6784,-5.6308,-5.6336,-5.6672,-5.6696,-5.3166,-5.2528,-5.2542,-5.2425,-5.2119,-5.1875,-5.1883,-5.1747,-5.1249,-5.1369,-5.1472,-5.1364,-5.1825,-5.2406,-5.2067,-5.2229,-5.2965,-5.3422,-5.3655,-5.3796,-5.4297,-5.4708,-5.4824,-5.4808,-5.5059,-5.5401,-5.5456,-5.5328,-5.5193,-5.5201,-5.5263,-5.529,-5.4699,-5.4699,-5.5196,-5.4533,-5.4254,-5.4351,-5.4205,-5.3954,-5.3652,-5.3652,-5.3082,-5.1991,-5.2294,-5.2108,-5.154,-5.2486,-5.3754,-5.5012,-5.5271,-5.5503,-5.5793,-5.5737,-5.5766,-5.6077,-5.6331,-5.6355,-5.6121,-5.649,-5.6165,-5.4963,-5.5109,-5.4876,-5.4111,-5.4385,-5.4743,-5.5229,-5.58,-5.6195,-5.6103,-5.57,-5.5053,-5.408,-5.4473,-5.4891,-5.4843,-5.511,-5.5066,-5.3922,-5.357,-5.3128,-5.267,-5.2469,-5.2493,-5.2735,-5.2993,-5.3326,-5.3947,-5.4092,-5.3715,-5.4279,-5.4544,-5.4037,-5.3697,-5.3757,-5.3571,-5.302,-5.3466,-5.4421,-5.5765,-5.6929,-5.7663,-5.8257,-5.8514,-5.8467,-5.8229,-5.7946,-5.7763,-5.7572,-5.7486,-5.7225,-5.7131,-5.7305,-5.6987,-5.4353,-5.3988,-5.3623,-5.3438,-5.3314,-5.302,-5.28,-5.2623,-5.2265,-5.2154,-5.2285,-5.2192,-5.2502,-5.3112,-5.2743,-5.2986,-5.3715,-5.3974,-5.4208,-5.4477,-5.5024,-5.5356,-5.5447,-5.5193,-5.5391,-5.6079,-5.5824,-5.578,-5.5727,-5.542,-5.5284,-5.5193,-5.4541,-5.446,-5.4929,-5.4318,-5.3997,-5.4033,-5.3936,-5.3773,-5.3592,-5.3592,-5.313,-5.2425,-5.2533,-5.2267,-5.1789,-5.2736,-5.3951,-5.4753,-5.5152,-5.5437,-5.5729,-5.5932,-5.6135,-5.6423,-5.6595,-5.6565,-5.6476,-5.6848,-5.6326,-5.5221,-5.5242,-5.4852,-5.4136,-5.423,-5.4692,-5.5381,-5.5948,-5.6145,-5.5993,-5.5292,-5.3983,-5.2768,-5.311,-5.3488,-5.3465,-5.3972,-5.3869,-5.3326,-5.2989,-5.2803,-5.2352,-5.254,-5.2822,-5.3043,-5.323,-5.3699,-5.4198,-5.4231,-5.4279,-5.4599,-5.476,-5.4237,-5.3742,-5.3678,-5.4049,-5.3528,-5.4004,-5.4791,-5.5609,-5.6944,-5.741,-5.8018,-5.8483,-5.8722,-5.8345,-5.8181,-5.8335,-5.817,-5.8228,-5.801,-5.7723,-5.7705,-5.7397,-5.6025,-5.6504,-5.4794,-5.4474,-5.4839,-5.434,-5.3679,-5.3402,-5.3472,-5.3346,-5.3062,-5.327,-5.353,-5.4197,-5.3658,-5.4062,-5.4628,-5.4704,-5.4968,-5.5256,-5.5633,-5.5939,-5.5875,-5.5553,-5.5816,-5.6499,-5.6287,-5.616,-5.5932,-5.5356,-5.5213,-5.5157,-5.4297,-5.4134,-5.4514,-5.3999,-5.3673,-5.3782,-5.3761,-5.3592,-5.3531,-5.3504,-5.3125,-5.2415,-5.2144,-5.2158,-5.2205,-5.2794,-5.3444,-5.371,-5.455,-5.5175,-5.5437,-5.5729,-5.6019,-5.625,-5.6308,-5.6451,-5.6737,-5.6736,-5.6389,-5.5375,-5.5521,-5.5158,-5.4136,-5.423,-5.4794,-5.5381,-5.5531,-5.564,-5.5387,-5.4187,-5.267,-5.1565,-5.1383,-5.164,-5.2339,-5.2811,-5.3025,-5.2886,-5.2613,-5.2575,-5.2645,-5.2763,-5.2941,-5.3327,-5.3625,-5.4181,-5.4559,-5.4673,-5.4552,-5.4396,-5.4451,-5.4437,-5.3973,-5.3568,-5.4004,-5.4205,-5.4884,-5.5565,-5.5842,-5.6741,-5.7095,-5.7575,-5.8215,-5.8332,-5.802,-5.8093,-5.8539,-5.8831,-5.8893,-5.8394,-5.792,-5.8035,-5.7953,-5.5115,-5.3766,-5.4189,-5.3734,-5.2984,-5.3649,-5.3999,-5.3973,-5.3841,-5.3855,-5.3818,-5.3609,-5.3934,-5.4576,-5.3973,-5.3947,-5.4772,-5.5146,-5.5537,-5.6305,-5.6386,-5.6493,-5.6402,-5.5996,-5.5862,-5.5965,-5.6076,-5.6072,-5.5848,-5.5643,-5.5528,-5.5239,-5.4623,-5.4569,-5.4894,-5.408,-5.3863,-5.4107,-5.3836,-5.3498,-5.3288,-5.3356,-5.2869,-5.1858,-5.1287,-5.1138,-5.1285,-5.1634,-5.1774,-5.2182,-5.3585,-5.4828,-5.506,-5.5323,-5.5584,-5.5729,-5.5961,-5.6077,-5.625,-5.6537,-5.6445,-5.5455,-5.5492,-5.5318,-5.4325,-5.4641,-5.5027,-5.528,-5.525,-5.491,-5.4101,-5.2809,-5.1745,-5.0924,-5.0171,-4.9931,-5.0485,-5.1306,-5.16,-5.1354,-5.1246,-5.1216,-5.1699,-5.2378,-5.2841,-5.3423,-5.406,-5.471,-5.492,-5.5035,-5.4965,-5.4748,-5.5008,-5.51,-5.4435,-5.4018,-5.4237,-5.47,-5.5411,-5.6124,-5.6404,-5.6852,-5.7333,-5.772,-5.806,-5.7974,-5.7822,-5.8486,-5.8988,-5.9252,-5.9415,-5.8988,-5.8591,-5.8623,-5.8355,-5.4905,-5.3973,-5.4545,-5.4285,-5.3661,-5.4322,-5.4756,-5.4853,-5.4892,-5.4932,-5.4945,-5.4616,-5.48,-5.5246,-5.4666,-5.4666,-5.5285,-5.5809,-5.6294,-5.6796,-5.6888,-5.6688,-5.6359,-5.639,-5.6271,-5.6122,-5.5709,-5.5747,-5.5811,-5.5408,-5.4988,-5.4913,-5.4379,-5.4039,-5.4329,-5.3856,-5.366,-5.3673,-5.3538,-5.3315,-5.3166,-5.281,-5.2446,-5.1497,-5.091,-5.0733,-5.096,-5.0914,-5.0972,-5.1343,-5.2513,-5.3716,-5.4141,-5.4491,-5.4837,-5.5233,-5.5379,-5.5729,-5.5961,-5.6251,-5.6107,-5.5285,-5.5579,-5.5166,-5.4739,-5.4845,-5.5048,-5.4997,-5.4807,-5.4395,-5.3063,-5.2259,-5.1401,-5.0781,-5.0147,-4.9966,-5.0217,-5.0558,-5.0813,-5.0825,-5.1233,-5.1595,-5.1996,-5.244,-5.2981,-5.3708,-5.4022,-5.4565,-5.5029,-5.517,-5.5469,-5.5507,-5.5876,-5.5825,-5.5036,-5.4637,-5.4528,-5.5005,-5.5608,-5.6246,-5.673,-5.7277,-5.782,-5.7895,-5.7874,-5.7933,-5.7955,-5.8716,-5.9133,-5.927,-5.9295,-5.9296,-5.9066,-5.8619,-5.8403,-5.5113,-5.5034,-5.5113,-5.518,-5.5167,-5.5406,-5.5419,-5.5551,-5.5734,-5.5575,-5.5906,-5.567,-5.5577,-5.5972,-5.556,-5.5705,-5.6103,-5.6432,-5.6785,-5.7109,-5.7109,-5.6763,-5.6316,-5.6466,-5.672,-5.6915,-5.5934,-5.5655,-5.5569,-5.4968,-5.4459,-5.4283,-5.389,-5.3633,-5.343,-5.3437,-5.3464,-5.3247,-5.322,-5.301,-5.2895,-5.2311,-5.1924,-5.1384,-5.0663,-5.0486,-5.0489,-5.0482,-5.0478,-5.0875,-5.1312,-5.203,-5.2811,-5.3551,-5.3951,-5.48,-5.4803,-5.5126,-5.5534,-5.568,-5.5481,-5.5005,-5.538,-5.5118,-5.4524,-5.4436,-5.4509,-5.4458,-5.4193,-5.3737,-5.2509,-5.1838,-5.1347,-5.0896,-5.0777,-5.0748,-5.0668,-5.0269,-5.0532,-5.0953,-5.1273,-5.1628,-5.2274,-5.2807,-5.3354,-5.389,-5.4149,-5.4406,-5.4794,-5.527,-5.5546,-5.5865,-5.6135,-5.5875,-5.5162,-5.4314,-5.4296,-5.4769,-5.5385,-5.6039,-5.6665,-5.7027,-5.7306,-5.7505,-5.7548,-5.7747,-5.7979,-5.8428,-5.878,-5.9004,-5.9238,-5.9263,-5.8982,-5.8548,-5.8498,-5.501,-5.4826,-5.5327,-5.5406,-5.5244,-5.5256,-5.5282,-5.5176,-5.4906,-5.4868,-5.5321,-5.5347,-5.5797,-5.6298,-5.6183,-5.6209,-5.659,-5.6747,-5.6942,-5.7174,-5.7174,-5.6909,-5.665,-5.6639,-5.6812,-5.6524,-5.5973,-5.556,-5.5156,-5.46,-5.428,-5.385,-5.3673,-5.3531,-5.3525,-5.3531,-5.341,-5.3044,-5.3044,-5.2799,-5.2359,-5.2207,-5.1796,-5.1186,-5.0327,-4.9929,-4.9882,-4.9855,-5.0017,-5.0478,-5.0411,-5.1014,-5.2003,-5.3072,-5.3641,-5.3868,-5.4099,-5.4448,-5.4968,-5.4884,-5.4842,-5.4807,-5.4958,-5.4638,-5.3967,-5.3733,-5.3681,-5.3337,-5.3073,-5.2644,-5.1997,-5.144,-5.1076,-5.0794,-5.0569,-5.0428,-5.0738,-5.0791,-5.0723,-5.1085,-5.1322,-5.1696,-5.2341,-5.2822,-5.321,-5.3571,-5.389,-5.4097,-5.4406,-5.4968,-5.551,-5.5797,-5.614,-5.5712,-5.514,-5.4155,-5.368,-5.4104,-5.4735,-5.5388,-5.5966,-5.6451,-5.673,-5.718,-5.76,-5.7878,-5.811,-5.8278,-5.86,-5.8934,-5.9081,-5.9206,-5.9122,-5.8972,-5.8864,-5.4642,-5.4993,-5.4967,-5.4846,-5.48,-5.4965,-5.5055,-5.5002,-5.4951,-5.5203,-5.5569,-5.5628,-5.6052,-5.6677,-5.659,-5.659,-5.6877,-5.6942,-5.7044,-5.7174,-5.7174,-5.7109,-5.6942,-5.6942,-5.6942,-5.685,-5.6405,-5.5805,-5.5177,-5.4817,-5.4459,-5.4093,-5.3782,-5.3667,-5.3734,-5.3633,-5.3342,-5.301,-5.2799,-5.2455,-5.1733,-5.1644,-5.105,-5.0504,-5.0393,-5.0247,-5.0063,-5.039,-5.0748,-5.108,-5.0918,-5.1165,-5.1747,-5.228,-5.2791,-5.2993,-5.3141,-5.3633,-5.429,-5.4373,-5.4445,-5.4735,-5.459,-5.4192,-5.3622,-5.3261,-5.2808,-5.2408,-5.1922,-5.1595,-5.1348,-5.1042,-5.093,-5.0875,-5.0596,-5.0704,-5.0982,-5.112,-5.1166,-5.1233,-5.1616,-5.2023,-5.2349,-5.2766,-5.3006,-5.3303,-5.3681,-5.3896,-5.4133,-5.4738,-5.5388,-5.5371,-5.5549,-5.5013,-5.4491,-5.3754,-5.3111,-5.3459,-5.407,-5.4738,-5.5608,-5.617,-5.6762,-5.723,-5.762,-5.8007,-5.805,-5.8155,-5.851,-5.8767,-5.8542,-5.857,-5.9197,-5.9414,-5.9219,-5.4383,-5.5104,-5.4597,-5.4474,-5.46,-5.4808,-5.488,-5.488,-5.5157,-5.5518,-5.6025,-5.6023,-5.6374,-5.6936,-5.6979,-5.6942,-5.7174,-5.7174,-5.7174,-5.7174,-5.7174,-5.7174,-5.7109,-5.7174,-5.7109,-5.6915,-5.6915,-5.6374,-5.5654,-5.5276,-5.4934,-5.4697,-5.4162,-5.4039,-5.424,-5.3951,-5.3347,-5.2933,-5.2492,-5.2077,-5.1408,-5.082,-5.0319,-4.9844,-5.0697,-5.0827,-5.0564,-5.0864,-5.1245,-5.147,-5.1444,-5.1444,-5.1787,-5.1765,-5.1886,-5.2178,-5.2236,-5.2903,-5.3557,-5.3865,-5.3966,-5.4197,-5.393,-5.351,-5.2877,-5.2301,-5.195,-5.1568,-5.1293,-5.1017,-5.1017,-5.0934,-5.0934,-5.0906,-5.0906,-5.0989,-5.1238,-5.1402,-5.1456,-5.1672,-5.2004,-5.2247,-5.2484,-5.2857,-5.3097,-5.3429,-5.3809,-5.4095,-5.4311,-5.4749,-5.5138,-5.4943,-5.4749,-5.4141,-5.3631,-5.3163,-5.2683,-5.2708,-5.3412,-5.4121,-5.5142,-5.6075,-5.6621,-5.7262,-5.7699,-5.8009,-5.8022,-5.8142,-5.8451,-5.8486,-5.7985,-5.8128,-5.9076,-5.9434,-5.9349,-5.4527,-5.4897,-5.4817,-5.5006,-5.5149,-5.5025,-5.4808,-5.4623,-5.4924,-5.5223,-5.5708,-5.6025,-5.6567,-5.7065,-5.7109,-5.7174,-5.7174,-5.7174,-5.7174,-5.7174,-5.7174,-5.7044,-5.6877,-5.7109,-5.7044,-5.6979,-5.7044,-5.6757,-5.6305,-5.5851,-5.5555,-5.5293,-5.5138,-5.5184,-5.5068,-5.4287,-5.3788,-5.3308,-5.2545,-5.1917,-5.1511,-5.104,-5.0848,-5.0785,-5.0816,-5.0758,-5.083,-5.1076,-5.1323,-5.167,-5.121,-5.1356,-5.1895,-5.1632,-5.1561,-5.1828,-5.2182,-5.2565,-5.3107,-5.3189,-5.3209,-5.3292,-5.2984,-5.2278,-5.1735,-5.1294,-5.0988,-5.0711,-5.0794,-5.0933,-5.0961,-5.0934,-5.0906,-5.085,-5.085,-5.1045,-5.1211,-5.1183,-5.1321,-5.1513,-5.1677,-5.2113,-5.2462,-5.2812,-5.3189,-5.3574,-5.3883,-5.4168,-5.4507,-5.4895,-5.4972,-5.4789,-5.4576,-5.401,-5.3317,-5.2772,-5.2599,-5.2365,-5.2907,-5.3705,-5.4799,-5.5855,-5.6574,-5.7183,-5.7652,-5.8043,-5.8056,-5.8208,-5.8501,-5.8428,-5.8128,-5.8498,-5.9157,-5.9323,-5.9358,-5.4753,-5.5238,-5.4883,-5.4834,-5.4929,-5.4776,-5.4764,-5.4828,-5.4971,-5.5367,-5.588,-5.617,-5.6631,-5.7092,-5.7174,-5.7174,-5.7174,-5.7174,-5.7174,-5.7174,-5.7174,-5.7109,-5.7044,-5.7109,-5.7044,-5.7109,-5.7238,-5.7441,-5.6931,-5.6441,-5.5988,-5.5952,-5.5627,-5.5573,-5.5645,-5.4637,-5.3913,-5.3165,-5.22,-5.1459,-5.1449,-5.1126,-5.0847,-5.097,-5.118,-5.1231,-5.1168,-5.1675,-5.1862,-5.2189,-5.1922,-5.207,-5.2393,-5.2191,-5.1961,-5.2284,-5.2462,-5.2581,-5.2575,-5.2436,-5.2459,-5.2363,-5.2059,-5.1432,-5.0956,-5.0783,-5.086,-5.1241,-5.1001,-5.098,-5.104,-5.0903,-5.0683,-5.0655,-5.0711,-5.0711,-5.0878,-5.0878,-5.0934,-5.1155,-5.1348,-5.1787,-5.2141,-5.2411,-5.2734,-5.3169,-5.3641,-5.4037,-5.4492,-5.5002,-5.4939,-5.4672,-5.4416,-5.4119,-5.3381,-5.2773,-5.2753,-5.2665,-5.2799,-5.3658,-5.464,-5.5603,-5.6415,-5.7104,-5.7653,-5.7903,-5.8058,-5.8053,-5.8078,-5.826,-5.8428,-5.8735,-5.9011,-5.9254,-5.9234,-5.5095,-5.5455,-5.4833,-5.4548,-5.452,-5.4639,-5.4819,-5.4977,-5.538,-5.5888,-5.6431,-5.6723,-5.6986,-5.7221,-5.7367,-5.7431,-5.7201,-5.7303,-5.7238,-5.7238,-5.7174,-5.7174,-5.7174,-5.7174,-5.7238,-5.7303,-5.7496,-5.7661,-5.7615,-5.7241,-5.6832,-5.6623,-5.6287,-5.6061,-5.5799,-5.4889,-5.3806,-5.2747,-5.1741,-5.1371,-5.1465,-5.123,-5.1073,-5.1188,-5.1495,-5.1786,-5.1558,-5.1839,-5.2227,-5.2227,-5.2201,-5.2271,-5.2578,-5.2432,-5.2433,-5.2647,-5.2745,-5.2443,-5.2196,-5.1982,-5.1877,-5.1516,-5.1211,-5.0679,-5.0944,-5.0851,-5.1068,-5.1584,-5.1207,-5.1162,-5.1195,-5.0896,-5.0594,-5.0457,-5.0375,-5.0375,-5.0375,-5.0487,-5.0711,-5.0962,-5.1183,-5.1293,-5.1623,-5.1869,-5.2224,-5.2684,-5.3263,-5.3906,-5.4558,-5.5188,-5.4923,-5.4686,-5.4502,-5.413,-5.3341,-5.2868,-5.2852,-5.3019,-5.3134,-5.3836,-5.5001,-5.5796,-5.655,-5.7101,-5.7651,-5.7825,-5.8044,-5.782,-5.7656,-5.8137,-5.851,-5.8568,-5.878,-5.9043,-5.928,-5.5465,-5.5463,-5.4845,-5.446,-5.4254,-5.473,-5.4971,-5.527,-5.6254,-5.6809,-5.7189,-5.7713,-5.7578,-5.7496,-5.7752,-5.7752,-5.7238,-5.7496,-5.7441,-5.7312,-5.7174,-5.7157,-5.7167,-5.7231,-5.734,-5.7569,-5.7788,-5.8007,-5.8071,-5.8052,-5.7742,-5.7578,-5.705,-5.6695,-5.6006,-5.4897,-5.3359,-5.2391,-5.1554,-5.1465,-5.157,-5.1518,-5.1492,-5.1492,-5.157,-5.1632,-5.1606,-5.1757,-5.1846,-5.1846,-5.1865,-5.1989,-5.2279,-5.2215,-5.2413,-5.2634,-5.2647,-5.2225,-5.1801,-5.1653,-5.1473,-5.0759,-5.015,-5.0192,-5.0949,-5.0414,-5.0658,-5.1602,-5.13,-5.1068,-5.1159,-5.1053,-5.0555,-5.0229,-5.0093,-5.0093,-5.015,-5.0263,-5.0487,-5.0795,-5.0906,-5.0962,-5.1128,-5.1431,-5.1978,-5.244,-5.3895,-5.4569,-5.5108,-5.5565,-5.5043,-5.4749,-5.4575,-5.4095,-5.3253,-5.2981,-5.3077,-5.3427,-5.377,-5.4564,-5.5663,-5.6311,-5.7051,-5.7422,-5.7959,-5.8027,-5.8044,-5.7885,-5.7912,-5.8346,-5.8624,-5.8669,-5.8765,-5.9092,-5.9407,-5.5496,-5.5496,-5.5231,-5.5085,-5.4967,-5.5203,-5.5643,-5.6149,-5.627,-5.6709,-5.7314,-5.7922,-5.8071,-5.7944,-5.8007,-5.8071,-5.7816,-5.7944,-5.766,-5.745,-5.735,-5.7159,-5.705,-5.7159,-5.7524,-5.7649,-5.7977,-5.8325,-5.8451,-5.8451,-5.8262,-5.8007,-5.7624,-5.6986,-5.6097,-5.47,-5.3101,-5.2072,-5.1596,-5.1596,-5.1596,-5.1596,-5.1596,-5.1596,-5.1596,-5.1596,-5.1659,-5.1783,-5.1846,-5.1829,-5.1716,-5.1883,-5.196,-5.1842,-5.1951,-5.2278,-5.217,-5.1895,-5.1411,-5.1296,-5.0783,-5.0313,-4.9764,-4.9921,-5.1084,-5.06,-5.0944,-5.1427,-5.146,-5.1184,-5.1188,-5.0891,-5.0401,-4.9943,-4.9727,-4.9727,-4.981,-4.998,-5.015,-5.046,-5.046,-5.046,-5.0711,-5.0989,-5.1651,-5.2335,-5.3849,-5.512,-5.5461,-5.5684,-5.5105,-5.4666,-5.4463,-5.4313,-5.3535,-5.3378,-5.3381,-5.3852,-5.4351,-5.531,-5.6263,-5.7262,-5.7917,-5.8122,-5.8107,-5.8055,-5.8012,-5.7997,-5.8104,-5.8413,-5.8568,-5.8663,-5.8868,-5.9136,-5.9564,-5.5496,-5.5496,-5.5496,-5.5437,-5.5379,-5.5437,-5.5968,-5.66,-5.6381,-5.6563,-5.7376,-5.7959,-5.8048,-5.804,-5.8396,-5.8325,-5.8262,-5.8206,-5.7847,-5.761,-5.7339,-5.7181,-5.6961,-5.6989,-5.7347,-5.7661,-5.7889,-5.8237,-5.8641,-5.8704,-5.8388,-5.8071,-5.7825,-5.7186,-5.5781,-5.4244,-5.2704,-5.1888,-5.1596,-5.1596,-5.1596,-5.1596,-5.1721,-5.1721,-5.1685,-5.1659,-5.1783,-5.1908,-5.2059,-5.2077,-5.205,-5.1976,-5.1803,-5.1543,-5.1368,-5.1513,-5.1594,-5.1582,-5.1239,-5.08,-5.0415,-5.0132,-5.0036,-5.0569,-5.1162,-5.1035,-5.1438,-5.2058,-5.171,-5.1228,-5.1191,-5.0735,-5.0193,-4.9737,-4.9496,-4.9469,-4.9526,-4.964,-4.984,-5.0066,-5.015,-5.0457,-5.1097,-5.1544,-5.2211,-5.2678,-5.3321,-5.4448,-5.4929,-5.5065,-5.4996,-5.4587,-5.4264,-5.4115,-5.3931,-5.3854,-5.3883,-5.4509,-5.5096,-5.5922,-5.6849,-5.7851,-5.843,-5.8393,-5.8319,-5.808,-5.8119,-5.8279,-5.8263,-5.8274,-5.8542,-5.8873,-5.9033,-5.9333,-5.9886,-5.5524,-5.5496,-5.5496,-5.532,-5.5144,-5.5379,-5.5889,-5.6448,-5.6773,-5.6996,-5.7374,-5.7964,-5.7992,-5.7793,-5.8439,-5.8571,-5.8431,-5.8439,-5.8105,-5.7501,-5.7294,-5.7204,-5.7073,-5.699,-5.7411,-5.8154,-5.8209,-5.8209,-5.8704,-5.8641,-5.8262,-5.7952,-5.7779,-5.7058,-5.5374,-5.3627,-5.2359,-5.1721,-5.1659,-5.1721,-5.1721,-5.1721,-5.1908,-5.197,-5.181,-5.1783,-5.1996,-5.2094,-5.2183,-5.2192,-5.2234,-5.2063,-5.1675,-5.1523,-5.1323,-5.1174,-5.1347,-5.1433,-5.1411,-5.0764,-5.0611,-5.0472,-5.0353,-5.093,-5.1776,-5.1793,-5.1551,-5.2024,-5.1877,-5.1347,-5.0998,-5.0612,-5.0068,-4.9609,-4.9285,-4.9431,-4.9488,-4.9657,-4.9939,-5.0089,-5.0428,-5.0819,-5.157,-5.2268,-5.2883,-5.3273,-5.3299,-5.3776,-5.4482,-5.49,-5.4976,-5.4533,-5.4182,-5.4289,-5.4245,-5.4228,-5.4422,-5.5108,-5.5805,-5.6582,-5.7263,-5.7952,-5.84,-5.857,-5.848,-5.8244,-5.8429,-5.8671,-5.8468,-5.8373,-5.8844,-5.9175,-5.9302,-5.96,-6.0212,-5.5889,-5.5496,-5.5496,-5.5437,-5.532,-5.5437,-5.5861,-5.6482,-5.7115,-5.7347,-5.7171,-5.768,-5.8062,-5.8043,-5.7981,-5.8351,-5.8697,-5.783,-5.7439,-5.735,-5.7138,-5.6865,-5.6781,-5.7138,-5.7645,-5.8187,-5.8174,-5.8181,-5.8704,-5.8459,-5.8297,-5.8016,-5.7385,-5.6486,-5.5222,-5.3922,-5.313,-5.2421,-5.228,-5.228,-5.2218,-5.2218,-5.228,-5.2404,-5.2094,-5.1996,-5.2183,-5.2306,-5.2404,-5.2306,-5.2291,-5.1957,-5.1683,-5.1555,-5.1014,-5.1239,-5.1686,-5.1864,-5.2078,-5.1941,-5.1573,-5.1099,-5.0722,-5.1054,-5.1873,-5.1303,-5.1303,-5.1496,-5.1623,-5.0916,-4.9858,-5.0504,-5.0238,-4.951,-4.9329,-4.9725,-4.9894,-5.0117,-5.0317,-5.0333,-5.0564,-5.1207,-5.1904,-5.224,-5.2827,-5.3247,-5.3329,-5.3894,-5.4628,-5.5162,-5.5409,-5.4598,-5.4215,-5.438,-5.4449,-5.4293,-5.4841,-5.5624,-5.6377,-5.7169,-5.7751,-5.8192,-5.847,-5.8705,-5.8558,-5.8455,-5.8408,-5.8386,-5.8404,-5.8483,-5.9127,-5.9678,-6.0007,-6.0331,-6.0759,-5.6395,-5.5833,-5.5805,-5.5693,-5.5524,-5.5496,-5.5866,-5.6437,-5.704,-5.7215,-5.7302,-5.7667,-5.8079,-5.8208,-5.8058,-5.7969,-5.8755,-5.8006,-5.7186,-5.7097,-5.6981,-5.6865,-5.7033,-5.7197,-5.7724,-5.8267,-5.8417,-5.8425,-5.8676,-5.8103,-5.7665,-5.7174,-5.6828,-5.603,-5.5022,-5.426,-5.3619,-5.2961,-5.2704,-5.2527,-5.2553,-5.2615,-5.265,-5.2615,-5.243,-5.2183,-5.243,-5.2527,-5.2543,-5.2379,-5.2191,-5.1804,-5.1669,-5.1336,-5.082,-5.1373,-5.2112,-5.2346,-5.2681,-5.2719,-5.2207,-5.1593,-5.1022,-5.1294,-5.2095,-5.1888,-5.1375,-5.1329,-5.117,-5.0261,-4.9522,-5.0247,-5.0359,-4.9632,-4.9861,-5.0286,-5.0493,-5.0717,-5.0644,-5.0661,-5.0812,-5.1484,-5.2044,-5.224,-5.2575,-5.2939,-5.3246,-5.3979,-5.4658,-5.5223,-5.5442,-5.463,-5.4273,-5.4409,-5.442,-5.4247,-5.4949,-5.6131,-5.668,-5.7154,-5.7948,-5.83,-5.858,-5.8716,-5.8307,-5.8054,-5.7996,-5.8021,-5.8678,-5.9194,-5.9612,-6.0178,-6.0652,-6.1083,-6.1472,-5.7013,-5.6451,-5.6423,-5.6058,-5.5552,-5.558,-5.5872,-5.6394,-5.6479,-5.7024,-5.7743,-5.7786,-5.8232,-5.8621,-5.8377,-5.8255,-5.817,-5.7821,-5.7196,-5.6742,-5.6776,-5.6942,-5.6992,-5.6957,-5.7744,-5.8323,-5.8529,-5.8425,-5.8557,-5.798,-5.7114,-5.6369,-5.6314,-5.5771,-5.5169,-5.4623,-5.4036,-5.3589,-5.3171,-5.2983,-5.2956,-5.2773,-5.2922,-5.2922,-5.2677,-5.2615,-5.2738,-5.2834,-5.2513,-5.2373,-5.2377,-5.1696,-5.1287,-5.1174,-5.1134,-5.1498,-5.2552,-5.2935,-5.312,-5.3105,-5.2738,-5.2148,-5.2209,-5.2439,-5.2474,-5.2375,-5.2036,-5.1636,-5.1456,-5.0188,-4.9258,-4.997,-5.0572,-5.0552,-5.0724,-5.1019,-5.1201,-5.1242,-5.1088,-5.1075,-5.1199,-5.1623,-5.2073,-5.238,-5.2547,-5.2602,-5.2936,-5.3414,-5.4176,-5.5252,-5.5244,-5.4435,-5.4223,-5.4521,-5.4391,-5.4194,-5.5025,-5.6177,-5.6077,-5.6467,-5.7378,-5.8354,-5.8555,-5.8459,-5.7933,-5.7725,-5.7832,-5.8603,-5.9656,-6.0009,-6.0094,-6.0504,-6.0916,-6.1845,-6.227,-5.7407,-5.6451,-5.6423,-5.6058,-5.5608,-5.5973,-5.6152,-5.6219,-5.7192,-5.7738,-5.7539,-5.8258,-5.8622,-5.9045,-5.786,-5.8023,-5.7796,-5.7375,-5.6894,-5.6641,-5.6646,-5.6785,-5.6979,-5.7228,-5.787,-5.8272,-5.8445,-5.8432,-5.8481,-5.7938,-5.7024,-5.6362,-5.6209,-5.5976,-5.56,-5.5258,-5.4725,-5.4276,-5.3794,-5.3558,-5.347,-5.3349,-5.341,-5.3227,-5.2983,-5.2949,-5.2983,-5.2983,-5.2722,-5.2332,-5.1934,-5.1556,-5.2252,-5.175,-5.1534,-5.2745,-5.3272,-5.3456,-5.3443,-5.3254,-5.2922,-5.2492,-5.2368,-5.2245,-5.2306,-5.2474,-5.2364,-5.1997,-5.185,-5.0943,-5.0366,-5.0691,-5.105,-5.1222,-5.1588,-5.2188,-5.2316,-5.2221,-5.2065,-5.1856,-5.1923,-5.2012,-5.2463,-5.2575,-5.2743,-5.2544,-5.2597,-5.3018,-5.372,-5.4794,-5.5074,-5.4265,-5.4227,-5.4525,-5.4367,-5.4147,-5.5182,-5.6099,-5.5949,-5.6324,-5.7719,-5.8464,-5.8512,-5.8412,-5.8164,-5.7993,-5.7912,-5.8777,-5.9655,-6.0147,-6.034,-6.0751,-6.1255,-6.2152,-6.2792,-5.8081,-5.721,-5.7154,-5.6816,-5.6423,-5.6901,-5.6936,-5.6778,-5.7383,-5.7676,-5.7794,-5.8314,-5.8627,-5.8529,-5.7869,-5.7696,-5.7775,-5.7076,-5.6564,-5.6563,-5.6652,-5.6763,-5.7014,-5.7321,-5.7704,-5.8137,-5.8401,-5.8479,-5.8243,-5.745,-5.6543,-5.5657,-5.5987,-5.5866,-5.5552,-5.5368,-5.5297,-5.4837,-5.4433,-5.4194,-5.4014,-5.3773,-5.3652,-5.3531,-5.3315,-5.3254,-5.3254,-5.3193,-5.2763,-5.2149,-5.1642,-5.1593,-5.2208,-5.1959,-5.2328,-5.3381,-5.3691,-5.3658,-5.3592,-5.341,-5.3044,-5.2711,-5.243,-5.2306,-5.2306,-5.2377,-5.2276,-5.2084,-5.2218,-5.2149,-5.1895,-5.1701,-5.1761,-5.182,-5.2637,-5.3397,-5.3385,-5.3288,-5.3079,-5.284,-5.279,-5.2823,-5.2966,-5.2939,-5.2771,-5.2457,-5.2258,-5.2454,-5.3266,-5.4364,-5.4586,-5.4205,-5.431,-5.45,-5.4284,-5.4158,-5.5022,-5.5737,-5.5894,-5.6539,-5.7937,-5.8411,-5.8284,-5.8482,-5.8684,-5.8546,-5.8334,-5.872,-5.9423,-5.997,-6.0685,-6.1081,-6.1638,-6.2434,-6.2924,-5.884,-5.825,-5.825,-5.7772,-5.7491,-5.794,-5.7856,-5.7411,-5.7115,-5.7412,-5.8104,-5.8308,-5.8218,-5.8127,-5.7843,-5.7501,-5.7359,-5.688,-5.6595,-5.648,-5.6795,-5.6939,-5.6818,-5.6953,-5.7401,-5.7922,-5.8132,-5.8015,-5.7706,-5.6996,-5.5973,-5.4754,-5.5075,-5.5217,-5.5186,-5.5426,-5.5373,-5.5141,-5.4671,-5.4314,-5.4134,-5.3894,-5.3652,-5.3592,-5.341,-5.3288,-5.341,-5.322,-5.2688,-5.2144,-5.1774,-5.1557,-5.1673,-5.2248,-5.3065,-5.3277,-5.3474,-5.3555,-5.3429,-5.3389,-5.3105,-5.2799,-5.2553,-5.2368,-5.2306,-5.243,-5.2356,-5.25,-5.2634,-5.2587,-5.2392,-5.2419,-5.2446,-5.256,-5.307,-5.3582,-5.3621,-5.3732,-5.4013,-5.3712,-5.3408,-5.3413,-5.2995,-5.2995,-5.2546,-5.2204,-5.2033,-5.2117,-5.2592,-5.374,-5.3875,-5.3783,-5.4115,-5.4219,-5.3897,-5.3946,-5.4691,-5.5259,-5.565,-5.6539,-5.7841,-5.8055,-5.7994,-5.8351,-5.8767,-5.8897,-5.8942,-5.91,-5.9516,-6.0493,-6.1068,-6.1412,-6.2031,-6.264,-6.3043,-5.8868,-5.825,-5.78,-5.7491,-5.7491,-5.8025,-5.7969,-5.7378,-5.7298,-5.7482,-5.7923,-5.8161,-5.8222,-5.799,-5.7617,-5.7332,-5.7223,-5.6881,-5.668,-5.6823,-5.705,-5.6937,-5.6737,-5.702,-5.7154,-5.7021,-5.721,-5.7407,-5.6953,-5.6416,-5.5936,-5.5345,-5.532,-5.5261,-5.5085,-5.5379,-5.5379,-5.5203,-5.4967,-5.4612,-5.446,-5.4341,-5.4221,-5.3894,-5.3625,-5.3713,-5.3713,-5.3565,-5.2826,-5.2072,-5.2116,-5.185,-5.1386,-5.2334,-5.257,-5.2398,-5.287,-5.2946,-5.3022,-5.3031,-5.289,-5.2658,-5.2439,-5.2218,-5.2245,-5.2492,-5.2685,-5.2883,-5.2958,-5.291,-5.2857,-5.2964,-5.3106,-5.322,-5.3423,-5.3598,-5.3773,-5.4327,-5.4809,-5.4562,-5.417,-5.3667,-5.3247,-5.2771,-5.2349,-5.204,-5.1898,-5.1869,-5.1952,-5.262,-5.2869,-5.3001,-5.3723,-5.3827,-5.3588,-5.3765,-5.4457,-5.5217,-5.575,-5.6673,-5.7716,-5.7875,-5.7971,-5.8397,-5.8787,-5.886,-5.8937,-5.9057,-5.9621,-6.0536,-6.1012,-6.1112,-6.1765,-6.2466,-6.2834,-5.9008,-5.8671,-5.8334,-5.8193,-5.8221,-5.8278,-5.8109,-5.7744,-5.721,-5.7137,-5.7406,-5.7674,-5.7737,-5.774,-5.7424,-5.7195,-5.7197,-5.6938,-5.6936,-5.7134,-5.7192,-5.6964,-5.7024,-5.7024,-5.7079,-5.6984,-5.6942,-5.6911,-5.6395,-5.6058,-5.5749,-5.5524,-5.5496,-5.5437,-5.5203,-5.5379,-5.5437,-5.5261,-5.5203,-5.5026,-5.4758,-5.4639,-5.4149,-5.3795,-5.385,-5.4079,-5.4161,-5.3987,-5.3494,-5.2951,-5.2935,-5.2551,-5.2331,-5.2619,-5.2775,-5.2548,-5.2489,-5.2316,-5.2393,-5.2458,-5.2568,-5.2398,-5.2303,-5.2189,-5.2527,-5.2738,-5.2677,-5.2815,-5.3268,-5.3281,-5.2856,-5.2849,-5.2998,-5.3086,-5.3356,-5.3565,-5.4074,-5.4734,-5.5063,-5.5126,-5.4564,-5.3804,-5.3273,-5.2715,-5.2212,-5.1571,-5.1458,-5.179,-5.1844,-5.2066,-5.2119,-5.2256,-5.3091,-5.3468,-5.3337,-5.3611,-5.4166,-5.4953,-5.5739,-5.677,-5.7611,-5.7833,-5.8085,-5.8305,-5.8525,-5.858,-5.8689,-5.8862,-5.9245,-6.0061,-6.039,-6.0604,-6.1425,-6.2164,-6.2535,-5.9205,-5.9205,-5.9177,-5.9205,-5.9149,-5.8671,-5.8362,-5.8109,-5.7182,-5.683,-5.7012,-5.7306,-5.6994,-5.7025,-5.7369,-5.7225,-5.7195,-5.7225,-5.7337,-5.745,-5.745,-5.7367,-5.7138,-5.6967,-5.6938,-5.6848,-5.6755,-5.6488,-5.6198,-5.5861,-5.5608,-5.5524,-5.5496,-5.5496,-5.5496,-5.5496,-5.5437,-5.5437,-5.5351,-5.5178,-5.497,-5.479,-5.4244,-5.4075,-5.413,-5.4552,-5.4607,-5.4437,-5.4161,-5.3803,-5.3386,-5.3027,-5.2832,-5.2877,-5.2869,-5.2724,-5.219,-5.2045,-5.204,-5.2176,-5.2176,-5.2185,-5.2185,-5.2272,-5.257,-5.2553,-5.243,-5.2615,-5.3044,-5.3105,-5.265,-5.2527,-5.265,-5.2956,-5.32,-5.3685,-5.4433,-5.5026,-5.5261,-5.5468,-5.473,-5.3941,-5.3382,-5.2769,-5.2156,-5.1488,-5.1377,-5.1599,-5.1877,-5.2211,-5.2434,-5.2378,-5.2684,-5.2899,-5.2966,-5.3457,-5.395,-5.4742,-5.5619,-5.6673,-5.7416,-5.764,-5.7863,-5.8029,-5.8225,-5.8254,-5.8542,-5.8715,-5.9181,-5.9767,-6.006,-6.0416,-6.1088,-6.1792,-6.2198,-5.9205,-5.9205,-5.9205,-5.9205,-5.9177,-5.9064,-5.8783,-5.8306,-5.8025,-5.7736,-5.7389,-5.7278,-5.7023,-5.6423,-5.6537,-5.6738,-5.7282,-5.7483,-5.7858,-5.8059,-5.7971,-5.78,-5.7513,-5.7052,-5.6652,-5.645,-5.6186,-5.5838,-5.592,-5.5723,-5.5496,-5.5496,-5.5496,-5.5496,-5.5496,-5.5496,-5.5496,-5.5496,-5.544,-5.5239,-5.4811,-5.472,-5.4939,-5.4793,-5.4675,-5.4758,-5.4639,-5.4341,-5.3837,-5.3508,-5.3347,-5.3162,-5.3082,-5.3048,-5.2983,-5.2787,-5.2225,-5.2045,-5.2126,-5.2117,-5.2117,-5.2021,-5.1979,-5.1716,-5.1757,-5.156,-5.1497,-5.156,-5.1872,-5.2032,-5.1846,-5.1908,-5.2032,-5.2527,-5.2895,-5.3987,-5.4967,-5.5203,-5.5379,-5.5124,-5.4672,-5.4107,-5.3685,-5.3127,-5.2624,-5.2264,-5.2377,-5.2518,-5.2519,-5.2631,-5.2799,-5.2687,-5.2547,-5.2407,-5.2463,-5.3219,-5.3838,-5.46,-5.5396,-5.6364,-5.7047,-5.7416,-5.7611,-5.7465,-5.7781,-5.7983,-5.8214,-5.8388,-5.9291,-5.9816,-5.9991,-6.0371,-6.0954,-6.1538,-6.2034]}]]